<?xml version="1.0" encoding="UTF-8" standalone="no" ?>
<gpx xmlns="http://www.topografix.com/GPX/1/1" xmlns:xsi="http://www.w3.org/2001/XMLSchema-instance" xsi:schemaLocation="http://www.topografix.com/GPX/1/1 http://www.topografix.com/GPX/1/1/gpx.xsd" version="1.1" creator="VisuGPX - https://www.visugpx.com">
  <metadata>
    <name>En longeant l'Adour.</name>
    <desc><![CDATA[Exercice de déconfinement.

]]></desc>
  </metadata>
  <trk>
    <name><![CDATA[22 mai 2020 à 08:53:14]]></name>
    <cmt><![CDATA[22 mai 2020 à 08:53:14]]></cmt>
    <trkseg>
      <trkpt lat="43.23399" lon="0.08146">
        <ele>310</ele>
        <time>2020-05-22T06:53:14Z</time>
      </trkpt>
      <trkpt lat="43.23396" lon="0.0815">
        <ele>310</ele>
        <time>2020-05-22T06:53:34Z</time>
      </trkpt>
      <trkpt lat="43.23398" lon="0.08155">
        <ele>310</ele>
        <time>2020-05-22T06:54:16Z</time>
      </trkpt>
      <trkpt lat="43.234" lon="0.08161">
        <ele>311</ele>
        <time>2020-05-22T06:54:53Z</time>
      </trkpt>
      <trkpt lat="43.23401" lon="0.0817">
        <ele>311</ele>
        <time>2020-05-22T06:54:58Z</time>
      </trkpt>
      <trkpt lat="43.23398" lon="0.08184">
        <ele>311</ele>
        <time>2020-05-22T06:55:07Z</time>
      </trkpt>
      <trkpt lat="43.23396" lon="0.0819">
        <ele>311</ele>
        <time>2020-05-22T06:55:13Z</time>
      </trkpt>
      <trkpt lat="43.234" lon="0.08195">
        <ele>311</ele>
        <time>2020-05-22T06:55:18Z</time>
      </trkpt>
      <trkpt lat="43.23403" lon="0.08203">
        <ele>310</ele>
        <time>2020-05-22T06:55:25Z</time>
      </trkpt>
      <trkpt lat="43.23406" lon="0.08208">
        <ele>310</ele>
        <time>2020-05-22T06:55:29Z</time>
      </trkpt>
      <trkpt lat="43.23413" lon="0.08213">
        <ele>310</ele>
        <time>2020-05-22T06:55:36Z</time>
      </trkpt>
      <trkpt lat="43.23416" lon="0.08219">
        <ele>310</ele>
        <time>2020-05-22T06:55:40Z</time>
      </trkpt>
      <trkpt lat="43.23418" lon="0.08226">
        <ele>310</ele>
        <time>2020-05-22T06:55:43Z</time>
      </trkpt>
      <trkpt lat="43.23419" lon="0.08233">
        <ele>310</ele>
        <time>2020-05-22T06:55:46Z</time>
      </trkpt>
      <trkpt lat="43.23419" lon="0.0824">
        <ele>311</ele>
        <time>2020-05-22T06:55:50Z</time>
      </trkpt>
      <trkpt lat="43.23423" lon="0.08247">
        <ele>310</ele>
        <time>2020-05-22T06:55:57Z</time>
      </trkpt>
      <trkpt lat="43.23431" lon="0.08258">
        <ele>310</ele>
        <time>2020-05-22T06:56:05Z</time>
      </trkpt>
      <trkpt lat="43.23435" lon="0.08264">
        <ele>311</ele>
        <time>2020-05-22T06:56:13Z</time>
      </trkpt>
      <trkpt lat="43.2344" lon="0.08269">
        <ele>311</ele>
        <time>2020-05-22T06:56:18Z</time>
      </trkpt>
      <trkpt lat="43.23445" lon="0.08276">
        <ele>311</ele>
        <time>2020-05-22T06:56:23Z</time>
      </trkpt>
      <trkpt lat="43.23444" lon="0.08288">
        <ele>311</ele>
        <time>2020-05-22T06:56:28Z</time>
      </trkpt>
      <trkpt lat="43.23442" lon="0.08296">
        <ele>311</ele>
        <time>2020-05-22T06:56:31Z</time>
      </trkpt>
      <trkpt lat="43.2344" lon="0.08324">
        <ele>311</ele>
        <time>2020-05-22T06:56:43Z</time>
      </trkpt>
      <trkpt lat="43.23434" lon="0.0834">
        <ele>311</ele>
        <time>2020-05-22T06:56:49Z</time>
      </trkpt>
      <trkpt lat="43.23433" lon="0.08349">
        <ele>311</ele>
        <time>2020-05-22T06:56:55Z</time>
      </trkpt>
      <trkpt lat="43.23434" lon="0.08357">
        <ele>310</ele>
        <time>2020-05-22T06:56:59Z</time>
      </trkpt>
      <trkpt lat="43.23433" lon="0.08364">
        <ele>311</ele>
        <time>2020-05-22T06:57:03Z</time>
      </trkpt>
      <trkpt lat="43.23438" lon="0.08385">
        <ele>311</ele>
        <time>2020-05-22T06:57:17Z</time>
      </trkpt>
      <trkpt lat="43.23441" lon="0.08393">
        <ele>311</ele>
        <time>2020-05-22T06:57:22Z</time>
      </trkpt>
      <trkpt lat="43.23445" lon="0.08398">
        <ele>311</ele>
        <time>2020-05-22T06:57:26Z</time>
      </trkpt>
      <trkpt lat="43.23447" lon="0.08404">
        <ele>311</ele>
        <time>2020-05-22T06:57:30Z</time>
      </trkpt>
      <trkpt lat="43.23447" lon="0.08411">
        <ele>311</ele>
        <time>2020-05-22T06:57:35Z</time>
      </trkpt>
      <trkpt lat="43.2345" lon="0.08419">
        <ele>311</ele>
        <time>2020-05-22T06:57:41Z</time>
      </trkpt>
      <trkpt lat="43.23457" lon="0.08431">
        <ele>311</ele>
        <time>2020-05-22T06:57:50Z</time>
      </trkpt>
      <trkpt lat="43.23462" lon="0.08432">
        <ele>311</ele>
        <time>2020-05-22T06:57:54Z</time>
      </trkpt>
      <trkpt lat="43.23466" lon="0.08428">
        <ele>311</ele>
        <time>2020-05-22T06:57:58Z</time>
      </trkpt>
      <trkpt lat="43.23469" lon="0.08434">
        <ele>312</ele>
        <time>2020-05-22T06:58:02Z</time>
      </trkpt>
      <trkpt lat="43.23472" lon="0.08441">
        <ele>312</ele>
        <time>2020-05-22T06:58:05Z</time>
      </trkpt>
      <trkpt lat="43.23475" lon="0.0845">
        <ele>312</ele>
        <time>2020-05-22T06:58:09Z</time>
      </trkpt>
      <trkpt lat="43.23478" lon="0.08458">
        <ele>312</ele>
        <time>2020-05-22T06:58:13Z</time>
      </trkpt>
      <trkpt lat="43.23484" lon="0.08462">
        <ele>311</ele>
        <time>2020-05-22T06:58:16Z</time>
      </trkpt>
      <trkpt lat="43.23493" lon="0.08474">
        <ele>311</ele>
        <time>2020-05-22T06:58:25Z</time>
      </trkpt>
      <trkpt lat="43.23502" lon="0.08489">
        <ele>310</ele>
        <time>2020-05-22T06:58:35Z</time>
      </trkpt>
      <trkpt lat="43.23507" lon="0.08498">
        <ele>310</ele>
        <time>2020-05-22T06:58:42Z</time>
      </trkpt>
      <trkpt lat="43.23511" lon="0.08505">
        <ele>310</ele>
        <time>2020-05-22T06:58:46Z</time>
      </trkpt>
      <trkpt lat="43.23518" lon="0.08524">
        <ele>311</ele>
        <time>2020-05-22T06:58:56Z</time>
      </trkpt>
      <trkpt lat="43.23522" lon="0.08551">
        <ele>310</ele>
        <time>2020-05-22T06:59:07Z</time>
      </trkpt>
      <trkpt lat="43.23525" lon="0.0856">
        <ele>310</ele>
        <time>2020-05-22T06:59:11Z</time>
      </trkpt>
      <trkpt lat="43.23534" lon="0.08557">
        <ele>310</ele>
        <time>2020-05-22T06:59:16Z</time>
      </trkpt>
      <trkpt lat="43.2354" lon="0.08555">
        <ele>310</ele>
        <time>2020-05-22T06:59:18Z</time>
      </trkpt>
      <trkpt lat="43.23544" lon="0.08557">
        <ele>310</ele>
        <time>2020-05-22T06:59:22Z</time>
      </trkpt>
      <trkpt lat="43.2355" lon="0.08567">
        <ele>310</ele>
        <time>2020-05-22T06:59:30Z</time>
      </trkpt>
      <trkpt lat="43.23553" lon="0.08573">
        <ele>310</ele>
        <time>2020-05-22T06:59:34Z</time>
      </trkpt>
      <trkpt lat="43.23559" lon="0.08574">
        <ele>310</ele>
        <time>2020-05-22T06:59:38Z</time>
      </trkpt>
      <trkpt lat="43.23563" lon="0.08578">
        <ele>310</ele>
        <time>2020-05-22T06:59:42Z</time>
      </trkpt>
      <trkpt lat="43.23565" lon="0.08583">
        <ele>310</ele>
        <time>2020-05-22T06:59:46Z</time>
      </trkpt>
      <trkpt lat="43.23572" lon="0.08581">
        <ele>307</ele>
        <time>2020-05-22T07:00:00Z</time>
      </trkpt>
      <trkpt lat="43.236" lon="0.08544">
        <ele>307</ele>
        <time>2020-05-22T07:00:32Z</time>
      </trkpt>
      <trkpt lat="43.23611" lon="0.08528">
        <ele>307</ele>
        <time>2020-05-22T07:00:43Z</time>
      </trkpt>
      <trkpt lat="43.23642" lon="0.08499">
        <ele>307</ele>
        <time>2020-05-22T07:01:11Z</time>
      </trkpt>
      <trkpt lat="43.23655" lon="0.08483">
        <ele>307</ele>
        <time>2020-05-22T07:01:26Z</time>
      </trkpt>
      <trkpt lat="43.23691" lon="0.08454">
        <ele>307</ele>
        <time>2020-05-22T07:01:58Z</time>
      </trkpt>
      <trkpt lat="43.23713" lon="0.08446">
        <ele>307</ele>
        <time>2020-05-22T07:02:17Z</time>
      </trkpt>
      <trkpt lat="43.23754" lon="0.0841">
        <ele>307</ele>
        <time>2020-05-22T07:02:48Z</time>
      </trkpt>
      <trkpt lat="43.23772" lon="0.0839">
        <ele>307</ele>
        <time>2020-05-22T07:03:03Z</time>
      </trkpt>
      <trkpt lat="43.23785" lon="0.08388">
        <ele>307</ele>
        <time>2020-05-22T07:03:10Z</time>
      </trkpt>
      <trkpt lat="43.23808" lon="0.08369">
        <ele>307</ele>
        <time>2020-05-22T07:03:30Z</time>
      </trkpt>
      <trkpt lat="43.23809" lon="0.0836">
        <ele>307</ele>
        <time>2020-05-22T07:03:33Z</time>
      </trkpt>
      <trkpt lat="43.23811" lon="0.08355">
        <ele>307</ele>
        <time>2020-05-22T07:03:36Z</time>
      </trkpt>
      <trkpt lat="43.23811" lon="0.08348">
        <ele>307</ele>
        <time>2020-05-22T07:03:39Z</time>
      </trkpt>
      <trkpt lat="43.23813" lon="0.08343">
        <ele>307</ele>
        <time>2020-05-22T07:03:42Z</time>
      </trkpt>
      <trkpt lat="43.23812" lon="0.08337">
        <ele>307</ele>
        <time>2020-05-22T07:03:44Z</time>
      </trkpt>
      <trkpt lat="43.23815" lon="0.08333">
        <ele>307</ele>
        <time>2020-05-22T07:03:48Z</time>
      </trkpt>
      <trkpt lat="43.23821" lon="0.08325">
        <ele>307</ele>
        <time>2020-05-22T07:03:55Z</time>
      </trkpt>
      <trkpt lat="43.23848" lon="0.08338">
        <ele>307</ele>
        <time>2020-05-22T07:04:07Z</time>
      </trkpt>
      <trkpt lat="43.23853" lon="0.08338">
        <ele>307</ele>
        <time>2020-05-22T07:04:09Z</time>
      </trkpt>
      <trkpt lat="43.23869" lon="0.08334">
        <ele>307</ele>
        <time>2020-05-22T07:04:18Z</time>
      </trkpt>
      <trkpt lat="43.23874" lon="0.08332">
        <ele>307</ele>
        <time>2020-05-22T07:04:22Z</time>
      </trkpt>
      <trkpt lat="43.23884" lon="0.08327">
        <ele>306</ele>
        <time>2020-05-22T07:04:30Z</time>
      </trkpt>
      <trkpt lat="43.23893" lon="0.08325">
        <ele>306</ele>
        <time>2020-05-22T07:04:36Z</time>
      </trkpt>
      <trkpt lat="43.23933" lon="0.08303">
        <ele>306</ele>
        <time>2020-05-22T07:05:07Z</time>
      </trkpt>
      <trkpt lat="43.23938" lon="0.08301">
        <ele>306</ele>
        <time>2020-05-22T07:05:11Z</time>
      </trkpt>
      <trkpt lat="43.23946" lon="0.08294">
        <ele>306</ele>
        <time>2020-05-22T07:05:19Z</time>
      </trkpt>
      <trkpt lat="43.23951" lon="0.08296">
        <ele>306</ele>
        <time>2020-05-22T07:05:24Z</time>
      </trkpt>
      <trkpt lat="43.23957" lon="0.08293">
        <ele>306</ele>
        <time>2020-05-22T07:05:29Z</time>
      </trkpt>
      <trkpt lat="43.23963" lon="0.08286">
        <ele>306</ele>
        <time>2020-05-22T07:05:39Z</time>
      </trkpt>
      <trkpt lat="43.23966" lon="0.08276">
        <ele>307</ele>
        <time>2020-05-22T07:05:43Z</time>
      </trkpt>
      <trkpt lat="43.23964" lon="0.08271">
        <ele>308</ele>
        <time>2020-05-22T07:05:47Z</time>
      </trkpt>
      <trkpt lat="43.23966" lon="0.08266">
        <ele>309</ele>
        <time>2020-05-22T07:05:54Z</time>
      </trkpt>
      <trkpt lat="43.2397" lon="0.0827">
        <ele>309</ele>
        <time>2020-05-22T07:05:58Z</time>
      </trkpt>
      <trkpt lat="43.23972" lon="0.08275">
        <ele>309</ele>
        <time>2020-05-22T07:06:01Z</time>
      </trkpt>
      <trkpt lat="43.23972" lon="0.08288">
        <ele>309</ele>
        <time>2020-05-22T07:06:07Z</time>
      </trkpt>
      <trkpt lat="43.23972" lon="0.08294">
        <ele>309</ele>
        <time>2020-05-22T07:06:10Z</time>
      </trkpt>
      <trkpt lat="43.23971" lon="0.08312">
        <ele>309</ele>
        <time>2020-05-22T07:06:21Z</time>
      </trkpt>
      <trkpt lat="43.23969" lon="0.08317">
        <ele>309</ele>
        <time>2020-05-22T07:06:24Z</time>
      </trkpt>
      <trkpt lat="43.23968" lon="0.08324">
        <ele>309</ele>
        <time>2020-05-22T07:06:28Z</time>
      </trkpt>
      <trkpt lat="43.23967" lon="0.08329">
        <ele>309</ele>
        <time>2020-05-22T07:06:31Z</time>
      </trkpt>
      <trkpt lat="43.23961" lon="0.0834">
        <ele>309</ele>
        <time>2020-05-22T07:06:39Z</time>
      </trkpt>
      <trkpt lat="43.23961" lon="0.08353">
        <ele>308</ele>
        <time>2020-05-22T07:06:48Z</time>
      </trkpt>
      <trkpt lat="43.23966" lon="0.08363">
        <ele>308</ele>
        <time>2020-05-22T07:06:55Z</time>
      </trkpt>
      <trkpt lat="43.2397" lon="0.08365">
        <ele>307</ele>
        <time>2020-05-22T07:06:59Z</time>
      </trkpt>
      <trkpt lat="43.23972" lon="0.0836">
        <ele>307</ele>
        <time>2020-05-22T07:07:03Z</time>
      </trkpt>
      <trkpt lat="43.23973" lon="0.08355">
        <ele>307</ele>
        <time>2020-05-22T07:07:07Z</time>
      </trkpt>
      <trkpt lat="43.23972" lon="0.0835">
        <ele>306</ele>
        <time>2020-05-22T07:07:11Z</time>
      </trkpt>
      <trkpt lat="43.23976" lon="0.08345">
        <ele>306</ele>
        <time>2020-05-22T07:07:14Z</time>
      </trkpt>
      <trkpt lat="43.23978" lon="0.0834">
        <ele>306</ele>
        <time>2020-05-22T07:07:17Z</time>
      </trkpt>
      <trkpt lat="43.23981" lon="0.08335">
        <ele>306</ele>
        <time>2020-05-22T07:07:20Z</time>
      </trkpt>
      <trkpt lat="43.23985" lon="0.08332">
        <ele>305</ele>
        <time>2020-05-22T07:07:24Z</time>
      </trkpt>
      <trkpt lat="43.23995" lon="0.08334">
        <ele>305</ele>
        <time>2020-05-22T07:07:30Z</time>
      </trkpt>
      <trkpt lat="43.23999" lon="0.08332">
        <ele>306</ele>
        <time>2020-05-22T07:07:33Z</time>
      </trkpt>
      <trkpt lat="43.24008" lon="0.08327">
        <ele>306</ele>
        <time>2020-05-22T07:07:41Z</time>
      </trkpt>
      <trkpt lat="43.24013" lon="0.08325">
        <ele>306</ele>
        <time>2020-05-22T07:07:44Z</time>
      </trkpt>
      <trkpt lat="43.24017" lon="0.08322">
        <ele>306</ele>
        <time>2020-05-22T07:07:47Z</time>
      </trkpt>
      <trkpt lat="43.24025" lon="0.08315">
        <ele>304</ele>
        <time>2020-05-22T07:07:53Z</time>
      </trkpt>
      <trkpt lat="43.24035" lon="0.08304">
        <ele>304</ele>
        <time>2020-05-22T07:08:03Z</time>
      </trkpt>
      <trkpt lat="43.24039" lon="0.083">
        <ele>305</ele>
        <time>2020-05-22T07:08:07Z</time>
      </trkpt>
      <trkpt lat="43.24047" lon="0.08294">
        <ele>305</ele>
        <time>2020-05-22T07:08:13Z</time>
      </trkpt>
      <trkpt lat="43.24052" lon="0.08293">
        <ele>305</ele>
        <time>2020-05-22T07:08:16Z</time>
      </trkpt>
      <trkpt lat="43.24056" lon="0.0829">
        <ele>304</ele>
        <time>2020-05-22T07:08:20Z</time>
      </trkpt>
      <trkpt lat="43.2406" lon="0.08288">
        <ele>304</ele>
        <time>2020-05-22T07:08:23Z</time>
      </trkpt>
      <trkpt lat="43.24064" lon="0.08286">
        <ele>304</ele>
        <time>2020-05-22T07:08:26Z</time>
      </trkpt>
      <trkpt lat="43.24068" lon="0.08284">
        <ele>304</ele>
        <time>2020-05-22T07:08:29Z</time>
      </trkpt>
      <trkpt lat="43.24071" lon="0.08282">
        <ele>304</ele>
        <time>2020-05-22T07:08:32Z</time>
      </trkpt>
      <trkpt lat="43.24079" lon="0.08278">
        <ele>304</ele>
        <time>2020-05-22T07:08:38Z</time>
      </trkpt>
      <trkpt lat="43.24087" lon="0.08271">
        <ele>303</ele>
        <time>2020-05-22T07:08:44Z</time>
      </trkpt>
      <trkpt lat="43.24092" lon="0.08268">
        <ele>303</ele>
        <time>2020-05-22T07:08:47Z</time>
      </trkpt>
      <trkpt lat="43.241" lon="0.08263">
        <ele>303</ele>
        <time>2020-05-22T07:08:53Z</time>
      </trkpt>
      <trkpt lat="43.24104" lon="0.08266">
        <ele>303</ele>
        <time>2020-05-22T07:08:56Z</time>
      </trkpt>
      <trkpt lat="43.24109" lon="0.08269">
        <ele>303</ele>
        <time>2020-05-22T07:09:22Z</time>
      </trkpt>
      <trkpt lat="43.24113" lon="0.08268">
        <ele>303</ele>
        <time>2020-05-22T07:09:26Z</time>
      </trkpt>
      <trkpt lat="43.24117" lon="0.08268">
        <ele>303</ele>
        <time>2020-05-22T07:09:29Z</time>
      </trkpt>
      <trkpt lat="43.24122" lon="0.08267">
        <ele>303</ele>
        <time>2020-05-22T07:09:33Z</time>
      </trkpt>
      <trkpt lat="43.24126" lon="0.08266">
        <ele>303</ele>
        <time>2020-05-22T07:09:36Z</time>
      </trkpt>
      <trkpt lat="43.24132" lon="0.0826">
        <ele>302</ele>
        <time>2020-05-22T07:09:43Z</time>
      </trkpt>
      <trkpt lat="43.24136" lon="0.08256">
        <ele>302</ele>
        <time>2020-05-22T07:09:47Z</time>
      </trkpt>
      <trkpt lat="43.24141" lon="0.08255">
        <ele>302</ele>
        <time>2020-05-22T07:09:51Z</time>
      </trkpt>
      <trkpt lat="43.2415" lon="0.08253">
        <ele>302</ele>
        <time>2020-05-22T07:09:57Z</time>
      </trkpt>
      <trkpt lat="43.24187" lon="0.08253">
        <ele>302</ele>
        <time>2020-05-22T07:10:24Z</time>
      </trkpt>
      <trkpt lat="43.24192" lon="0.08252">
        <ele>302</ele>
        <time>2020-05-22T07:10:27Z</time>
      </trkpt>
      <trkpt lat="43.24196" lon="0.08251">
        <ele>302</ele>
        <time>2020-05-22T07:10:30Z</time>
      </trkpt>
      <trkpt lat="43.2421" lon="0.08251">
        <ele>302</ele>
        <time>2020-05-22T07:10:42Z</time>
      </trkpt>
      <trkpt lat="43.24215" lon="0.08249">
        <ele>302</ele>
        <time>2020-05-22T07:10:45Z</time>
      </trkpt>
      <trkpt lat="43.24229" lon="0.08249">
        <ele>302</ele>
        <time>2020-05-22T07:10:54Z</time>
      </trkpt>
      <trkpt lat="43.24239" lon="0.08251">
        <ele>302</ele>
        <time>2020-05-22T07:11:01Z</time>
      </trkpt>
      <trkpt lat="43.24252" lon="0.08252">
        <ele>302</ele>
        <time>2020-05-22T07:11:11Z</time>
      </trkpt>
      <trkpt lat="43.24257" lon="0.0825">
        <ele>301</ele>
        <time>2020-05-22T07:11:14Z</time>
      </trkpt>
      <trkpt lat="43.24282" lon="0.08244">
        <ele>302</ele>
        <time>2020-05-22T07:11:33Z</time>
      </trkpt>
      <trkpt lat="43.24292" lon="0.08248">
        <ele>301</ele>
        <time>2020-05-22T07:11:40Z</time>
      </trkpt>
      <trkpt lat="43.24316" lon="0.08262">
        <ele>301</ele>
        <time>2020-05-22T07:11:56Z</time>
      </trkpt>
      <trkpt lat="43.24321" lon="0.08263">
        <ele>301</ele>
        <time>2020-05-22T07:12:00Z</time>
      </trkpt>
      <trkpt lat="43.24326" lon="0.08262">
        <ele>301</ele>
        <time>2020-05-22T07:12:05Z</time>
      </trkpt>
      <trkpt lat="43.24331" lon="0.08263">
        <ele>301</ele>
        <time>2020-05-22T07:12:09Z</time>
      </trkpt>
      <trkpt lat="43.24348" lon="0.08264">
        <ele>301</ele>
        <time>2020-05-22T07:12:22Z</time>
      </trkpt>
      <trkpt lat="43.24353" lon="0.08266">
        <ele>301</ele>
        <time>2020-05-22T07:12:26Z</time>
      </trkpt>
      <trkpt lat="43.24358" lon="0.08264">
        <ele>300</ele>
        <time>2020-05-22T07:12:30Z</time>
      </trkpt>
      <trkpt lat="43.24368" lon="0.08265">
        <ele>301</ele>
        <time>2020-05-22T07:12:37Z</time>
      </trkpt>
      <trkpt lat="43.24374" lon="0.08268">
        <ele>301</ele>
        <time>2020-05-22T07:12:41Z</time>
      </trkpt>
      <trkpt lat="43.2439" lon="0.08268">
        <ele>301</ele>
        <time>2020-05-22T07:12:53Z</time>
      </trkpt>
      <trkpt lat="43.24419" lon="0.08257">
        <ele>301</ele>
        <time>2020-05-22T07:13:18Z</time>
      </trkpt>
      <trkpt lat="43.24437" lon="0.08259">
        <ele>301</ele>
        <time>2020-05-22T07:13:31Z</time>
      </trkpt>
      <trkpt lat="43.24461" lon="0.08251">
        <ele>300</ele>
        <time>2020-05-22T07:13:46Z</time>
      </trkpt>
      <trkpt lat="43.24473" lon="0.08253">
        <ele>300</ele>
        <time>2020-05-22T07:13:56Z</time>
      </trkpt>
      <trkpt lat="43.24484" lon="0.08251">
        <ele>300</ele>
        <time>2020-05-22T07:14:04Z</time>
      </trkpt>
      <trkpt lat="43.24499" lon="0.08259">
        <ele>299</ele>
        <time>2020-05-22T07:14:13Z</time>
      </trkpt>
      <trkpt lat="43.24503" lon="0.08263">
        <ele>300</ele>
        <time>2020-05-22T07:14:16Z</time>
      </trkpt>
      <trkpt lat="43.24508" lon="0.08265">
        <ele>300</ele>
        <time>2020-05-22T07:14:19Z</time>
      </trkpt>
      <trkpt lat="43.24512" lon="0.08266">
        <ele>300</ele>
        <time>2020-05-22T07:14:22Z</time>
      </trkpt>
      <trkpt lat="43.24529" lon="0.08265">
        <ele>299</ele>
        <time>2020-05-22T07:14:35Z</time>
      </trkpt>
      <trkpt lat="43.24534" lon="0.08268">
        <ele>299</ele>
        <time>2020-05-22T07:14:39Z</time>
      </trkpt>
      <trkpt lat="43.24543" lon="0.08279">
        <ele>299</ele>
        <time>2020-05-22T07:14:46Z</time>
      </trkpt>
      <trkpt lat="43.24547" lon="0.08283">
        <ele>300</ele>
        <time>2020-05-22T07:14:50Z</time>
      </trkpt>
      <trkpt lat="43.24555" lon="0.08292">
        <ele>300</ele>
        <time>2020-05-22T07:14:57Z</time>
      </trkpt>
      <trkpt lat="43.24568" lon="0.08304">
        <ele>300</ele>
        <time>2020-05-22T07:15:08Z</time>
      </trkpt>
      <trkpt lat="43.24571" lon="0.08308">
        <ele>300</ele>
        <time>2020-05-22T07:15:12Z</time>
      </trkpt>
      <trkpt lat="43.24584" lon="0.08318">
        <ele>300</ele>
        <time>2020-05-22T07:15:22Z</time>
      </trkpt>
      <trkpt lat="43.24598" lon="0.0832">
        <ele>299</ele>
        <time>2020-05-22T07:15:33Z</time>
      </trkpt>
      <trkpt lat="43.24607" lon="0.08326">
        <ele>299</ele>
        <time>2020-05-22T07:15:39Z</time>
      </trkpt>
      <trkpt lat="43.24634" lon="0.08331">
        <ele>299</ele>
        <time>2020-05-22T07:16:00Z</time>
      </trkpt>
      <trkpt lat="43.2464" lon="0.0833">
        <ele>299</ele>
        <time>2020-05-22T07:16:04Z</time>
      </trkpt>
      <trkpt lat="43.24644" lon="0.08332">
        <ele>299</ele>
        <time>2020-05-22T07:16:08Z</time>
      </trkpt>
      <trkpt lat="43.24665" lon="0.08335">
        <ele>298</ele>
        <time>2020-05-22T07:16:25Z</time>
      </trkpt>
      <trkpt lat="43.24671" lon="0.0834">
        <ele>299</ele>
        <time>2020-05-22T07:16:28Z</time>
      </trkpt>
      <trkpt lat="43.24691" lon="0.08342">
        <ele>300</ele>
        <time>2020-05-22T07:16:41Z</time>
      </trkpt>
      <trkpt lat="43.247" lon="0.08348">
        <ele>300</ele>
        <time>2020-05-22T07:16:48Z</time>
      </trkpt>
      <trkpt lat="43.24714" lon="0.08348">
        <ele>300</ele>
        <time>2020-05-22T07:16:59Z</time>
      </trkpt>
      <trkpt lat="43.24719" lon="0.08346">
        <ele>300</ele>
        <time>2020-05-22T07:17:03Z</time>
      </trkpt>
      <trkpt lat="43.24724" lon="0.08349">
        <ele>300</ele>
        <time>2020-05-22T07:17:06Z</time>
      </trkpt>
      <trkpt lat="43.24733" lon="0.08349">
        <ele>299</ele>
        <time>2020-05-22T07:17:14Z</time>
      </trkpt>
      <trkpt lat="43.24738" lon="0.08347">
        <ele>299</ele>
        <time>2020-05-22T07:17:18Z</time>
      </trkpt>
      <trkpt lat="43.24747" lon="0.08346">
        <ele>299</ele>
        <time>2020-05-22T07:17:25Z</time>
      </trkpt>
      <trkpt lat="43.24767" lon="0.08341">
        <ele>299</ele>
        <time>2020-05-22T07:17:39Z</time>
      </trkpt>
      <trkpt lat="43.2478" lon="0.08345">
        <ele>299</ele>
        <time>2020-05-22T07:17:48Z</time>
      </trkpt>
      <trkpt lat="43.24789" lon="0.08344">
        <ele>298</ele>
        <time>2020-05-22T07:17:56Z</time>
      </trkpt>
      <trkpt lat="43.2481" lon="0.08334">
        <ele>299</ele>
        <time>2020-05-22T07:18:13Z</time>
      </trkpt>
      <trkpt lat="43.24819" lon="0.08326">
        <ele>298</ele>
        <time>2020-05-22T07:18:21Z</time>
      </trkpt>
      <trkpt lat="43.24824" lon="0.08325">
        <ele>298</ele>
        <time>2020-05-22T07:18:24Z</time>
      </trkpt>
      <trkpt lat="43.24829" lon="0.08325">
        <ele>298</ele>
        <time>2020-05-22T07:18:27Z</time>
      </trkpt>
      <trkpt lat="43.24833" lon="0.08327">
        <ele>298</ele>
        <time>2020-05-22T07:18:30Z</time>
      </trkpt>
      <trkpt lat="43.24843" lon="0.08324">
        <ele>298</ele>
        <time>2020-05-22T07:18:38Z</time>
      </trkpt>
      <trkpt lat="43.24848" lon="0.08325">
        <ele>298</ele>
        <time>2020-05-22T07:18:42Z</time>
      </trkpt>
      <trkpt lat="43.24895" lon="0.08323">
        <ele>299</ele>
        <time>2020-05-22T07:19:16Z</time>
      </trkpt>
      <trkpt lat="43.2493" lon="0.08315">
        <ele>299</ele>
        <time>2020-05-22T07:19:44Z</time>
      </trkpt>
      <trkpt lat="43.24934" lon="0.08316">
        <ele>299</ele>
        <time>2020-05-22T07:19:47Z</time>
      </trkpt>
      <trkpt lat="43.24944" lon="0.08315">
        <ele>299</ele>
        <time>2020-05-22T07:19:55Z</time>
      </trkpt>
      <trkpt lat="43.24954" lon="0.08317">
        <ele>298</ele>
        <time>2020-05-22T07:20:02Z</time>
      </trkpt>
      <trkpt lat="43.24999" lon="0.08321">
        <ele>298</ele>
        <time>2020-05-22T07:20:36Z</time>
      </trkpt>
      <trkpt lat="43.25035" lon="0.08326">
        <ele>298</ele>
        <time>2020-05-22T07:21:07Z</time>
      </trkpt>
      <trkpt lat="43.25039" lon="0.08327">
        <ele>298</ele>
        <time>2020-05-22T07:21:10Z</time>
      </trkpt>
      <trkpt lat="43.2506" lon="0.08327">
        <ele>298</ele>
        <time>2020-05-22T07:21:25Z</time>
      </trkpt>
      <trkpt lat="43.25101" lon="0.08341">
        <ele>298</ele>
        <time>2020-05-22T07:21:56Z</time>
      </trkpt>
      <trkpt lat="43.25135" lon="0.08344">
        <ele>298</ele>
        <time>2020-05-22T07:22:21Z</time>
      </trkpt>
      <trkpt lat="43.25147" lon="0.08341">
        <ele>298</ele>
        <time>2020-05-22T07:22:30Z</time>
      </trkpt>
      <trkpt lat="43.2516" lon="0.08341">
        <ele>298</ele>
        <time>2020-05-22T07:22:40Z</time>
      </trkpt>
      <trkpt lat="43.2517" lon="0.08353">
        <ele>297</ele>
        <time>2020-05-22T07:22:49Z</time>
      </trkpt>
      <trkpt lat="43.25172" lon="0.08358">
        <ele>297</ele>
        <time>2020-05-22T07:22:52Z</time>
      </trkpt>
      <trkpt lat="43.25175" lon="0.08361">
        <ele>298</ele>
        <time>2020-05-22T07:22:55Z</time>
      </trkpt>
      <trkpt lat="43.25195" lon="0.08367">
        <ele>297</ele>
        <time>2020-05-22T07:23:09Z</time>
      </trkpt>
      <trkpt lat="43.252" lon="0.08365">
        <ele>297</ele>
        <time>2020-05-22T07:23:13Z</time>
      </trkpt>
      <trkpt lat="43.25204" lon="0.08366">
        <ele>297</ele>
        <time>2020-05-22T07:23:16Z</time>
      </trkpt>
      <trkpt lat="43.25214" lon="0.08366">
        <ele>297</ele>
        <time>2020-05-22T07:23:24Z</time>
      </trkpt>
      <trkpt lat="43.25218" lon="0.08367">
        <ele>297</ele>
        <time>2020-05-22T07:23:27Z</time>
      </trkpt>
      <trkpt lat="43.25227" lon="0.08366">
        <ele>297</ele>
        <time>2020-05-22T07:23:34Z</time>
      </trkpt>
      <trkpt lat="43.25238" lon="0.08369">
        <ele>297</ele>
        <time>2020-05-22T07:23:42Z</time>
      </trkpt>
      <trkpt lat="43.25242" lon="0.08373">
        <ele>297</ele>
        <time>2020-05-22T07:23:46Z</time>
      </trkpt>
      <trkpt lat="43.25244" lon="0.08378">
        <ele>297</ele>
        <time>2020-05-22T07:23:49Z</time>
      </trkpt>
      <trkpt lat="43.25247" lon="0.08388">
        <ele>296</ele>
        <time>2020-05-22T07:23:55Z</time>
      </trkpt>
      <trkpt lat="43.25255" lon="0.08399">
        <ele>296</ele>
        <time>2020-05-22T07:24:04Z</time>
      </trkpt>
      <trkpt lat="43.25259" lon="0.08405">
        <ele>296</ele>
        <time>2020-05-22T07:24:07Z</time>
      </trkpt>
      <trkpt lat="43.25261" lon="0.08413">
        <ele>296</ele>
        <time>2020-05-22T07:24:11Z</time>
      </trkpt>
      <trkpt lat="43.25265" lon="0.08418">
        <ele>296</ele>
        <time>2020-05-22T07:24:15Z</time>
      </trkpt>
      <trkpt lat="43.2528" lon="0.08404">
        <ele>296</ele>
        <time>2020-05-22T07:24:30Z</time>
      </trkpt>
      <trkpt lat="43.25283" lon="0.08397">
        <ele>296</ele>
        <time>2020-05-22T07:24:34Z</time>
      </trkpt>
      <trkpt lat="43.25289" lon="0.08396">
        <ele>296</ele>
        <time>2020-05-22T07:24:38Z</time>
      </trkpt>
      <trkpt lat="43.25294" lon="0.08397">
        <ele>296</ele>
        <time>2020-05-22T07:24:42Z</time>
      </trkpt>
      <trkpt lat="43.25309" lon="0.08396">
        <ele>296</ele>
        <time>2020-05-22T07:24:53Z</time>
      </trkpt>
      <trkpt lat="43.25344" lon="0.08411">
        <ele>296</ele>
        <time>2020-05-22T07:25:20Z</time>
      </trkpt>
      <trkpt lat="43.25362" lon="0.08409">
        <ele>295</ele>
        <time>2020-05-22T07:25:35Z</time>
      </trkpt>
      <trkpt lat="43.25374" lon="0.08413">
        <ele>295</ele>
        <time>2020-05-22T07:25:42Z</time>
      </trkpt>
      <trkpt lat="43.2539" lon="0.08411">
        <ele>295</ele>
        <time>2020-05-22T07:25:53Z</time>
      </trkpt>
      <trkpt lat="43.25396" lon="0.08411">
        <ele>294</ele>
        <time>2020-05-22T07:25:58Z</time>
      </trkpt>
      <trkpt lat="43.25401" lon="0.08412">
        <ele>294</ele>
        <time>2020-05-22T07:26:02Z</time>
      </trkpt>
      <trkpt lat="43.25421" lon="0.08405">
        <ele>294</ele>
        <time>2020-05-22T07:26:18Z</time>
      </trkpt>
      <trkpt lat="43.25426" lon="0.08406">
        <ele>294</ele>
        <time>2020-05-22T07:26:23Z</time>
      </trkpt>
      <trkpt lat="43.25431" lon="0.08408">
        <ele>294</ele>
        <time>2020-05-22T07:26:26Z</time>
      </trkpt>
      <trkpt lat="43.25448" lon="0.08402">
        <ele>294</ele>
        <time>2020-05-22T07:26:38Z</time>
      </trkpt>
      <trkpt lat="43.25463" lon="0.08404">
        <ele>293</ele>
        <time>2020-05-22T07:26:49Z</time>
      </trkpt>
      <trkpt lat="43.25473" lon="0.08401">
        <ele>293</ele>
        <time>2020-05-22T07:26:57Z</time>
      </trkpt>
      <trkpt lat="43.25484" lon="0.08396">
        <ele>293</ele>
        <time>2020-05-22T07:27:05Z</time>
      </trkpt>
      <trkpt lat="43.25489" lon="0.08395">
        <ele>293</ele>
        <time>2020-05-22T07:27:08Z</time>
      </trkpt>
      <trkpt lat="43.25493" lon="0.08393">
        <ele>293</ele>
        <time>2020-05-22T07:27:10Z</time>
      </trkpt>
      <trkpt lat="43.25509" lon="0.08389">
        <ele>293</ele>
        <time>2020-05-22T07:27:22Z</time>
      </trkpt>
      <trkpt lat="43.25515" lon="0.08386">
        <ele>293</ele>
        <time>2020-05-22T07:27:26Z</time>
      </trkpt>
      <trkpt lat="43.25519" lon="0.08382">
        <ele>293</ele>
        <time>2020-05-22T07:27:30Z</time>
      </trkpt>
      <trkpt lat="43.25565" lon="0.0838">
        <ele>293</ele>
        <time>2020-05-22T07:28:04Z</time>
      </trkpt>
      <trkpt lat="43.25584" lon="0.0838">
        <ele>293</ele>
        <time>2020-05-22T07:28:17Z</time>
      </trkpt>
      <trkpt lat="43.256" lon="0.08374">
        <ele>293</ele>
        <time>2020-05-22T07:28:29Z</time>
      </trkpt>
      <trkpt lat="43.25617" lon="0.08379">
        <ele>292</ele>
        <time>2020-05-22T07:28:41Z</time>
      </trkpt>
      <trkpt lat="43.25644" lon="0.08366">
        <ele>292</ele>
        <time>2020-05-22T07:29:03Z</time>
      </trkpt>
      <trkpt lat="43.25654" lon="0.08365">
        <ele>291</ele>
        <time>2020-05-22T07:29:10Z</time>
      </trkpt>
      <trkpt lat="43.25665" lon="0.08371">
        <ele>291</ele>
        <time>2020-05-22T07:29:16Z</time>
      </trkpt>
      <trkpt lat="43.25674" lon="0.08371">
        <ele>291</ele>
        <time>2020-05-22T07:29:22Z</time>
      </trkpt>
      <trkpt lat="43.25679" lon="0.08369">
        <ele>291</ele>
        <time>2020-05-22T07:29:26Z</time>
      </trkpt>
      <trkpt lat="43.25683" lon="0.08365">
        <ele>291</ele>
        <time>2020-05-22T07:29:30Z</time>
      </trkpt>
      <trkpt lat="43.25698" lon="0.08366">
        <ele>291</ele>
        <time>2020-05-22T07:29:41Z</time>
      </trkpt>
      <trkpt lat="43.25711" lon="0.08359">
        <ele>291</ele>
        <time>2020-05-22T07:29:51Z</time>
      </trkpt>
      <trkpt lat="43.25725" lon="0.08356">
        <ele>291</ele>
        <time>2020-05-22T07:30:02Z</time>
      </trkpt>
      <trkpt lat="43.25734" lon="0.08358">
        <ele>292</ele>
        <time>2020-05-22T07:30:10Z</time>
      </trkpt>
      <trkpt lat="43.25745" lon="0.08354">
        <ele>292</ele>
        <time>2020-05-22T07:30:16Z</time>
      </trkpt>
      <trkpt lat="43.25773" lon="0.08359">
        <ele>292</ele>
        <time>2020-05-22T07:30:35Z</time>
      </trkpt>
      <trkpt lat="43.25778" lon="0.08356">
        <ele>291</ele>
        <time>2020-05-22T07:30:39Z</time>
      </trkpt>
      <trkpt lat="43.25797" lon="0.08354">
        <ele>291</ele>
        <time>2020-05-22T07:30:54Z</time>
      </trkpt>
      <trkpt lat="43.25801" lon="0.08355">
        <ele>291</ele>
        <time>2020-05-22T07:30:57Z</time>
      </trkpt>
      <trkpt lat="43.25806" lon="0.08357">
        <ele>291</ele>
        <time>2020-05-22T07:31:00Z</time>
      </trkpt>
      <trkpt lat="43.25811" lon="0.08357">
        <ele>291</ele>
        <time>2020-05-22T07:31:03Z</time>
      </trkpt>
      <trkpt lat="43.25822" lon="0.08354">
        <ele>291</ele>
        <time>2020-05-22T07:31:15Z</time>
      </trkpt>
      <trkpt lat="43.25827" lon="0.0835">
        <ele>291</ele>
        <time>2020-05-22T07:31:18Z</time>
      </trkpt>
      <trkpt lat="43.25837" lon="0.08348">
        <ele>291</ele>
        <time>2020-05-22T07:31:25Z</time>
      </trkpt>
      <trkpt lat="43.25842" lon="0.08349">
        <ele>291</ele>
        <time>2020-05-22T07:31:28Z</time>
      </trkpt>
      <trkpt lat="43.25846" lon="0.08351">
        <ele>291</ele>
        <time>2020-05-22T07:31:31Z</time>
      </trkpt>
      <trkpt lat="43.25892" lon="0.08356">
        <ele>291</ele>
        <time>2020-05-22T07:32:04Z</time>
      </trkpt>
      <trkpt lat="43.25898" lon="0.08354">
        <ele>291</ele>
        <time>2020-05-22T07:32:08Z</time>
      </trkpt>
      <trkpt lat="43.25919" lon="0.08357">
        <ele>291</ele>
        <time>2020-05-22T07:32:24Z</time>
      </trkpt>
      <trkpt lat="43.25925" lon="0.08355">
        <ele>291</ele>
        <time>2020-05-22T07:32:29Z</time>
      </trkpt>
      <trkpt lat="43.25929" lon="0.08358">
        <ele>291</ele>
        <time>2020-05-22T07:32:32Z</time>
      </trkpt>
      <trkpt lat="43.25958" lon="0.08362">
        <ele>291</ele>
        <time>2020-05-22T07:32:55Z</time>
      </trkpt>
      <trkpt lat="43.25978" lon="0.08369">
        <ele>291</ele>
        <time>2020-05-22T07:33:08Z</time>
      </trkpt>
      <trkpt lat="43.26013" lon="0.08362">
        <ele>291</ele>
        <time>2020-05-22T07:33:37Z</time>
      </trkpt>
      <trkpt lat="43.26018" lon="0.0836">
        <ele>291</ele>
        <time>2020-05-22T07:33:40Z</time>
      </trkpt>
      <trkpt lat="43.26022" lon="0.08362">
        <ele>291</ele>
        <time>2020-05-22T07:33:42Z</time>
      </trkpt>
      <trkpt lat="43.26027" lon="0.08361">
        <ele>291</ele>
        <time>2020-05-22T07:33:45Z</time>
      </trkpt>
      <trkpt lat="43.26037" lon="0.08363">
        <ele>291</ele>
        <time>2020-05-22T07:33:51Z</time>
      </trkpt>
      <trkpt lat="43.26042" lon="0.08362">
        <ele>291</ele>
        <time>2020-05-22T07:33:54Z</time>
      </trkpt>
      <trkpt lat="43.26047" lon="0.08363">
        <ele>291</ele>
        <time>2020-05-22T07:33:59Z</time>
      </trkpt>
      <trkpt lat="43.26067" lon="0.08362">
        <ele>291</ele>
        <time>2020-05-22T07:34:14Z</time>
      </trkpt>
      <trkpt lat="43.26087" lon="0.08352">
        <ele>290</ele>
        <time>2020-05-22T07:34:31Z</time>
      </trkpt>
      <trkpt lat="43.26108" lon="0.08352">
        <ele>290</ele>
        <time>2020-05-22T07:34:44Z</time>
      </trkpt>
      <trkpt lat="43.26113" lon="0.0835">
        <ele>290</ele>
        <time>2020-05-22T07:34:47Z</time>
      </trkpt>
      <trkpt lat="43.26123" lon="0.08351">
        <ele>290</ele>
        <time>2020-05-22T07:34:55Z</time>
      </trkpt>
      <trkpt lat="43.26133" lon="0.08353">
        <ele>290</ele>
        <time>2020-05-22T07:35:02Z</time>
      </trkpt>
      <trkpt lat="43.26163" lon="0.08345">
        <ele>290</ele>
        <time>2020-05-22T07:35:25Z</time>
      </trkpt>
      <trkpt lat="43.26169" lon="0.08345">
        <ele>290</ele>
        <time>2020-05-22T07:35:30Z</time>
      </trkpt>
      <trkpt lat="43.26214" lon="0.08333">
        <ele>290</ele>
        <time>2020-05-22T07:36:03Z</time>
      </trkpt>
      <trkpt lat="43.2623" lon="0.08329">
        <ele>289</ele>
        <time>2020-05-22T07:36:15Z</time>
      </trkpt>
      <trkpt lat="43.26236" lon="0.0833">
        <ele>289</ele>
        <time>2020-05-22T07:36:20Z</time>
      </trkpt>
      <trkpt lat="43.26246" lon="0.08328">
        <ele>289</ele>
        <time>2020-05-22T07:36:28Z</time>
      </trkpt>
      <trkpt lat="43.26252" lon="0.08326">
        <ele>289</ele>
        <time>2020-05-22T07:36:32Z</time>
      </trkpt>
      <trkpt lat="43.26257" lon="0.08325">
        <ele>289</ele>
        <time>2020-05-22T07:36:36Z</time>
      </trkpt>
      <trkpt lat="43.26263" lon="0.08319">
        <ele>288</ele>
        <time>2020-05-22T07:36:53Z</time>
      </trkpt>
      <trkpt lat="43.26267" lon="0.0833">
        <ele>289</ele>
        <time>2020-05-22T07:37:25Z</time>
      </trkpt>
      <trkpt lat="43.26272" lon="0.08344">
        <ele>288</ele>
        <time>2020-05-22T07:37:49Z</time>
      </trkpt>
      <trkpt lat="43.26283" lon="0.08327">
        <ele>288</ele>
        <time>2020-05-22T07:38:18Z</time>
      </trkpt>
      <trkpt lat="43.26287" lon="0.08323">
        <ele>288</ele>
        <time>2020-05-22T07:38:22Z</time>
      </trkpt>
      <trkpt lat="43.26292" lon="0.08319">
        <ele>288</ele>
        <time>2020-05-22T07:38:25Z</time>
      </trkpt>
      <trkpt lat="43.26298" lon="0.08321">
        <ele>287</ele>
        <time>2020-05-22T07:38:29Z</time>
      </trkpt>
      <trkpt lat="43.26314" lon="0.08327">
        <ele>287</ele>
        <time>2020-05-22T07:38:38Z</time>
      </trkpt>
      <trkpt lat="43.26318" lon="0.08324">
        <ele>287</ele>
        <time>2020-05-22T07:38:43Z</time>
      </trkpt>
      <trkpt lat="43.26324" lon="0.08326">
        <ele>287</ele>
        <time>2020-05-22T07:38:48Z</time>
      </trkpt>
      <trkpt lat="43.26331" lon="0.08325">
        <ele>287</ele>
        <time>2020-05-22T07:38:54Z</time>
      </trkpt>
      <trkpt lat="43.26349" lon="0.08327">
        <ele>287</ele>
        <time>2020-05-22T07:39:07Z</time>
      </trkpt>
      <trkpt lat="43.26354" lon="0.08326">
        <ele>288</ele>
        <time>2020-05-22T07:39:11Z</time>
      </trkpt>
      <trkpt lat="43.26365" lon="0.08326">
        <ele>288</ele>
        <time>2020-05-22T07:39:19Z</time>
      </trkpt>
      <trkpt lat="43.26371" lon="0.08324">
        <ele>288</ele>
        <time>2020-05-22T07:39:23Z</time>
      </trkpt>
      <trkpt lat="43.26397" lon="0.0831">
        <ele>287</ele>
        <time>2020-05-22T07:39:44Z</time>
      </trkpt>
      <trkpt lat="43.26402" lon="0.0831">
        <ele>287</ele>
        <time>2020-05-22T07:39:47Z</time>
      </trkpt>
      <trkpt lat="43.26412" lon="0.08311">
        <ele>287</ele>
        <time>2020-05-22T07:39:53Z</time>
      </trkpt>
      <trkpt lat="43.26416" lon="0.0831">
        <ele>287</ele>
        <time>2020-05-22T07:39:57Z</time>
      </trkpt>
      <trkpt lat="43.26427" lon="0.08305">
        <ele>287</ele>
        <time>2020-05-22T07:40:06Z</time>
      </trkpt>
      <trkpt lat="43.26438" lon="0.08301">
        <ele>287</ele>
        <time>2020-05-22T07:40:13Z</time>
      </trkpt>
      <trkpt lat="43.26444" lon="0.08303">
        <ele>287</ele>
        <time>2020-05-22T07:40:17Z</time>
      </trkpt>
      <trkpt lat="43.26466" lon="0.083">
        <ele>287</ele>
        <time>2020-05-22T07:40:31Z</time>
      </trkpt>
      <trkpt lat="43.26478" lon="0.08303">
        <ele>286</ele>
        <time>2020-05-22T07:40:38Z</time>
      </trkpt>
      <trkpt lat="43.26482" lon="0.08307">
        <ele>286</ele>
        <time>2020-05-22T07:40:41Z</time>
      </trkpt>
      <trkpt lat="43.265" lon="0.08339">
        <ele>286</ele>
        <time>2020-05-22T07:41:01Z</time>
      </trkpt>
      <trkpt lat="43.26505" lon="0.08343">
        <ele>286</ele>
        <time>2020-05-22T07:41:07Z</time>
      </trkpt>
      <trkpt lat="43.26511" lon="0.08345">
        <ele>286</ele>
        <time>2020-05-22T07:41:12Z</time>
      </trkpt>
      <trkpt lat="43.26516" lon="0.08349">
        <ele>285</ele>
        <time>2020-05-22T07:41:17Z</time>
      </trkpt>
      <trkpt lat="43.26527" lon="0.08361">
        <ele>286</ele>
        <time>2020-05-22T07:41:26Z</time>
      </trkpt>
      <trkpt lat="43.26568" lon="0.0839">
        <ele>285</ele>
        <time>2020-05-22T07:41:54Z</time>
      </trkpt>
      <trkpt lat="43.26572" lon="0.08395">
        <ele>285</ele>
        <time>2020-05-22T07:41:59Z</time>
      </trkpt>
      <trkpt lat="43.26577" lon="0.08396">
        <ele>285</ele>
        <time>2020-05-22T07:42:03Z</time>
      </trkpt>
      <trkpt lat="43.26599" lon="0.08409">
        <ele>285</ele>
        <time>2020-05-22T07:42:19Z</time>
      </trkpt>
      <trkpt lat="43.2661" lon="0.08413">
        <ele>284</ele>
        <time>2020-05-22T07:42:29Z</time>
      </trkpt>
      <trkpt lat="43.26622" lon="0.0842">
        <ele>285</ele>
        <time>2020-05-22T07:42:37Z</time>
      </trkpt>
      <trkpt lat="43.26643" lon="0.0843">
        <ele>284</ele>
        <time>2020-05-22T07:42:52Z</time>
      </trkpt>
      <trkpt lat="43.26686" lon="0.0844">
        <ele>283</ele>
        <time>2020-05-22T07:43:23Z</time>
      </trkpt>
      <trkpt lat="43.2669" lon="0.08442">
        <ele>283</ele>
        <time>2020-05-22T07:43:27Z</time>
      </trkpt>
      <trkpt lat="43.26723" lon="0.08444">
        <ele>282</ele>
        <time>2020-05-22T07:43:50Z</time>
      </trkpt>
      <trkpt lat="43.26727" lon="0.08446">
        <ele>283</ele>
        <time>2020-05-22T07:43:53Z</time>
      </trkpt>
      <trkpt lat="43.26743" lon="0.08447">
        <ele>283</ele>
        <time>2020-05-22T07:44:05Z</time>
      </trkpt>
      <trkpt lat="43.26754" lon="0.08445">
        <ele>283</ele>
        <time>2020-05-22T07:44:13Z</time>
      </trkpt>
      <trkpt lat="43.26759" lon="0.08446">
        <ele>283</ele>
        <time>2020-05-22T07:44:17Z</time>
      </trkpt>
      <trkpt lat="43.2677" lon="0.08443">
        <ele>283</ele>
        <time>2020-05-22T07:44:26Z</time>
      </trkpt>
      <trkpt lat="43.2678" lon="0.08442">
        <ele>283</ele>
        <time>2020-05-22T07:44:35Z</time>
      </trkpt>
      <trkpt lat="43.26825" lon="0.08429">
        <ele>282</ele>
        <time>2020-05-22T07:45:08Z</time>
      </trkpt>
      <trkpt lat="43.2683" lon="0.08428">
        <ele>282</ele>
        <time>2020-05-22T07:45:11Z</time>
      </trkpt>
      <trkpt lat="43.26834" lon="0.08423">
        <ele>282</ele>
        <time>2020-05-22T07:45:15Z</time>
      </trkpt>
      <trkpt lat="43.26852" lon="0.08419">
        <ele>282</ele>
        <time>2020-05-22T07:45:28Z</time>
      </trkpt>
      <trkpt lat="43.26856" lon="0.08415">
        <ele>282</ele>
        <time>2020-05-22T07:45:32Z</time>
      </trkpt>
      <trkpt lat="43.26895" lon="0.08399">
        <ele>282</ele>
        <time>2020-05-22T07:46:02Z</time>
      </trkpt>
      <trkpt lat="43.26899" lon="0.08396">
        <ele>282</ele>
        <time>2020-05-22T07:46:06Z</time>
      </trkpt>
      <trkpt lat="43.26924" lon="0.08385">
        <ele>281</ele>
        <time>2020-05-22T07:46:24Z</time>
      </trkpt>
      <trkpt lat="43.26928" lon="0.08381">
        <ele>281</ele>
        <time>2020-05-22T07:46:28Z</time>
      </trkpt>
      <trkpt lat="43.26962" lon="0.08373">
        <ele>281</ele>
        <time>2020-05-22T07:46:52Z</time>
      </trkpt>
      <trkpt lat="43.26967" lon="0.08373">
        <ele>281</ele>
        <time>2020-05-22T07:46:55Z</time>
      </trkpt>
      <trkpt lat="43.26981" lon="0.08369">
        <ele>281</ele>
        <time>2020-05-22T07:47:04Z</time>
      </trkpt>
      <trkpt lat="43.26986" lon="0.08369">
        <ele>281</ele>
        <time>2020-05-22T07:47:07Z</time>
      </trkpt>
      <trkpt lat="43.26994" lon="0.08372">
        <ele>281</ele>
        <time>2020-05-22T07:47:14Z</time>
      </trkpt>
      <trkpt lat="43.27005" lon="0.08373">
        <ele>281</ele>
        <time>2020-05-22T07:47:21Z</time>
      </trkpt>
      <trkpt lat="43.27027" lon="0.08384">
        <ele>281</ele>
        <time>2020-05-22T07:47:37Z</time>
      </trkpt>
      <trkpt lat="43.27034" lon="0.08391">
        <ele>281</ele>
        <time>2020-05-22T07:47:44Z</time>
      </trkpt>
      <trkpt lat="43.27051" lon="0.08397">
        <ele>281</ele>
        <time>2020-05-22T07:47:59Z</time>
      </trkpt>
      <trkpt lat="43.27054" lon="0.08395">
        <ele>281</ele>
        <time>2020-05-22T07:48:02Z</time>
      </trkpt>
      <trkpt lat="43.27058" lon="0.08393">
        <ele>282</ele>
        <time>2020-05-22T07:48:06Z</time>
      </trkpt>
      <trkpt lat="43.27071" lon="0.0839">
        <ele>282</ele>
        <time>2020-05-22T07:48:15Z</time>
      </trkpt>
      <trkpt lat="43.27076" lon="0.0839">
        <ele>282</ele>
        <time>2020-05-22T07:48:19Z</time>
      </trkpt>
      <trkpt lat="43.2709" lon="0.08384">
        <ele>282</ele>
        <time>2020-05-22T07:48:30Z</time>
      </trkpt>
      <trkpt lat="43.27106" lon="0.08373">
        <ele>282</ele>
        <time>2020-05-22T07:48:42Z</time>
      </trkpt>
      <trkpt lat="43.27115" lon="0.08372">
        <ele>281</ele>
        <time>2020-05-22T07:48:49Z</time>
      </trkpt>
      <trkpt lat="43.27148" lon="0.08355">
        <ele>281</ele>
        <time>2020-05-22T07:49:15Z</time>
      </trkpt>
      <trkpt lat="43.27175" lon="0.08352">
        <ele>281</ele>
        <time>2020-05-22T07:49:34Z</time>
      </trkpt>
      <trkpt lat="43.27191" lon="0.08356">
        <ele>281</ele>
        <time>2020-05-22T07:49:47Z</time>
      </trkpt>
      <trkpt lat="43.2721" lon="0.08368">
        <ele>280</ele>
        <time>2020-05-22T07:50:01Z</time>
      </trkpt>
      <trkpt lat="43.27219" lon="0.08371">
        <ele>280</ele>
        <time>2020-05-22T07:50:08Z</time>
      </trkpt>
      <trkpt lat="43.27236" lon="0.08379">
        <ele>280</ele>
        <time>2020-05-22T07:50:22Z</time>
      </trkpt>
      <trkpt lat="43.27251" lon="0.08384">
        <ele>279</ele>
        <time>2020-05-22T07:50:33Z</time>
      </trkpt>
      <trkpt lat="43.27261" lon="0.08389">
        <ele>279</ele>
        <time>2020-05-22T07:50:41Z</time>
      </trkpt>
      <trkpt lat="43.27292" lon="0.08392">
        <ele>279</ele>
        <time>2020-05-22T07:51:04Z</time>
      </trkpt>
      <trkpt lat="43.27296" lon="0.0839">
        <ele>279</ele>
        <time>2020-05-22T07:51:07Z</time>
      </trkpt>
      <trkpt lat="43.27338" lon="0.08389">
        <ele>279</ele>
        <time>2020-05-22T07:51:39Z</time>
      </trkpt>
      <trkpt lat="43.27342" lon="0.08389">
        <ele>279</ele>
        <time>2020-05-22T07:51:42Z</time>
      </trkpt>
      <trkpt lat="43.27357" lon="0.08386">
        <ele>279</ele>
        <time>2020-05-22T07:51:53Z</time>
      </trkpt>
      <trkpt lat="43.27367" lon="0.08386">
        <ele>278</ele>
        <time>2020-05-22T07:52:00Z</time>
      </trkpt>
      <trkpt lat="43.27376" lon="0.08381">
        <ele>278</ele>
        <time>2020-05-22T07:52:07Z</time>
      </trkpt>
      <trkpt lat="43.27381" lon="0.0838">
        <ele>278</ele>
        <time>2020-05-22T07:52:10Z</time>
      </trkpt>
      <trkpt lat="43.27386" lon="0.08381">
        <ele>278</ele>
        <time>2020-05-22T07:52:13Z</time>
      </trkpt>
      <trkpt lat="43.2739" lon="0.08381">
        <ele>278</ele>
        <time>2020-05-22T07:52:16Z</time>
      </trkpt>
      <trkpt lat="43.27395" lon="0.08382">
        <ele>278</ele>
        <time>2020-05-22T07:52:20Z</time>
      </trkpt>
      <trkpt lat="43.27428" lon="0.08378">
        <ele>278</ele>
        <time>2020-05-22T07:52:44Z</time>
      </trkpt>
      <trkpt lat="43.27466" lon="0.08381">
        <ele>278</ele>
        <time>2020-05-22T07:53:11Z</time>
      </trkpt>
      <trkpt lat="43.27474" lon="0.08379">
        <ele>278</ele>
        <time>2020-05-22T07:53:17Z</time>
      </trkpt>
      <trkpt lat="43.27482" lon="0.0838">
        <ele>278</ele>
        <time>2020-05-22T07:53:23Z</time>
      </trkpt>
      <trkpt lat="43.27486" lon="0.08383">
        <ele>278</ele>
        <time>2020-05-22T07:53:26Z</time>
      </trkpt>
      <trkpt lat="43.2753" lon="0.08397">
        <ele>278</ele>
        <time>2020-05-22T07:53:58Z</time>
      </trkpt>
      <trkpt lat="43.27565" lon="0.08404">
        <ele>278</ele>
        <time>2020-05-22T07:54:24Z</time>
      </trkpt>
      <trkpt lat="43.27578" lon="0.08409">
        <ele>279</ele>
        <time>2020-05-22T07:54:35Z</time>
      </trkpt>
      <trkpt lat="43.27594" lon="0.08412">
        <ele>278</ele>
        <time>2020-05-22T07:54:48Z</time>
      </trkpt>
      <trkpt lat="43.27599" lon="0.08411">
        <ele>278</ele>
        <time>2020-05-22T07:54:52Z</time>
      </trkpt>
      <trkpt lat="43.27615" lon="0.08413">
        <ele>278</ele>
        <time>2020-05-22T07:55:04Z</time>
      </trkpt>
      <trkpt lat="43.27625" lon="0.0841">
        <ele>278</ele>
        <time>2020-05-22T07:55:12Z</time>
      </trkpt>
      <trkpt lat="43.27631" lon="0.08412">
        <ele>277</ele>
        <time>2020-05-22T07:55:16Z</time>
      </trkpt>
      <trkpt lat="43.27635" lon="0.08411">
        <ele>277</ele>
        <time>2020-05-22T07:55:20Z</time>
      </trkpt>
      <trkpt lat="43.27639" lon="0.08409">
        <ele>277</ele>
        <time>2020-05-22T07:55:23Z</time>
      </trkpt>
      <trkpt lat="43.27643" lon="0.08407">
        <ele>277</ele>
        <time>2020-05-22T07:55:27Z</time>
      </trkpt>
      <trkpt lat="43.27651" lon="0.08409">
        <ele>277</ele>
        <time>2020-05-22T07:55:34Z</time>
      </trkpt>
      <trkpt lat="43.27655" lon="0.0841">
        <ele>277</ele>
        <time>2020-05-22T07:55:37Z</time>
      </trkpt>
      <trkpt lat="43.2766" lon="0.0841">
        <ele>277</ele>
        <time>2020-05-22T07:55:41Z</time>
      </trkpt>
      <trkpt lat="43.27677" lon="0.08407">
        <ele>275</ele>
        <time>2020-05-22T07:55:59Z</time>
      </trkpt>
      <trkpt lat="43.27686" lon="0.084">
        <ele>274</ele>
        <time>2020-05-22T07:56:12Z</time>
      </trkpt>
      <trkpt lat="43.2769" lon="0.08408">
        <ele>274</ele>
        <time>2020-05-22T07:56:22Z</time>
      </trkpt>
      <trkpt lat="43.27694" lon="0.08411">
        <ele>275</ele>
        <time>2020-05-22T07:56:41Z</time>
      </trkpt>
      <trkpt lat="43.27696" lon="0.08416">
        <ele>275</ele>
        <time>2020-05-22T07:56:46Z</time>
      </trkpt>
      <trkpt lat="43.27702" lon="0.08417">
        <ele>275</ele>
        <time>2020-05-22T07:56:52Z</time>
      </trkpt>
      <trkpt lat="43.27708" lon="0.0842">
        <ele>275</ele>
        <time>2020-05-22T07:57:00Z</time>
      </trkpt>
      <trkpt lat="43.27719" lon="0.08422">
        <ele>275</ele>
        <time>2020-05-22T07:57:07Z</time>
      </trkpt>
      <trkpt lat="43.27734" lon="0.08425">
        <ele>275</ele>
        <time>2020-05-22T07:57:18Z</time>
      </trkpt>
      <trkpt lat="43.27739" lon="0.08428">
        <ele>275</ele>
        <time>2020-05-22T07:57:21Z</time>
      </trkpt>
      <trkpt lat="43.27776" lon="0.0843">
        <ele>276</ele>
        <time>2020-05-22T07:57:47Z</time>
      </trkpt>
      <trkpt lat="43.27781" lon="0.08429">
        <ele>276</ele>
        <time>2020-05-22T07:57:51Z</time>
      </trkpt>
      <trkpt lat="43.27785" lon="0.08429">
        <ele>276</ele>
        <time>2020-05-22T07:57:54Z</time>
      </trkpt>
      <trkpt lat="43.27794" lon="0.08431">
        <ele>276</ele>
        <time>2020-05-22T07:58:01Z</time>
      </trkpt>
      <trkpt lat="43.27803" lon="0.08431">
        <ele>276</ele>
        <time>2020-05-22T07:58:08Z</time>
      </trkpt>
      <trkpt lat="43.27807" lon="0.08432">
        <ele>276</ele>
        <time>2020-05-22T07:58:12Z</time>
      </trkpt>
      <trkpt lat="43.27813" lon="0.08433">
        <ele>277</ele>
        <time>2020-05-22T07:58:16Z</time>
      </trkpt>
      <trkpt lat="43.27821" lon="0.08438">
        <ele>277</ele>
        <time>2020-05-22T07:58:22Z</time>
      </trkpt>
      <trkpt lat="43.27834" lon="0.08443">
        <ele>277</ele>
        <time>2020-05-22T07:58:32Z</time>
      </trkpt>
      <trkpt lat="43.27856" lon="0.08443">
        <ele>277</ele>
        <time>2020-05-22T07:58:50Z</time>
      </trkpt>
      <trkpt lat="43.27865" lon="0.08449">
        <ele>277</ele>
        <time>2020-05-22T07:58:57Z</time>
      </trkpt>
      <trkpt lat="43.27875" lon="0.0845">
        <ele>277</ele>
        <time>2020-05-22T07:59:05Z</time>
      </trkpt>
      <trkpt lat="43.27879" lon="0.08448">
        <ele>277</ele>
        <time>2020-05-22T07:59:10Z</time>
      </trkpt>
      <trkpt lat="43.27907" lon="0.08449">
        <ele>276</ele>
        <time>2020-05-22T07:59:32Z</time>
      </trkpt>
      <trkpt lat="43.27916" lon="0.08449">
        <ele>276</ele>
        <time>2020-05-22T07:59:38Z</time>
      </trkpt>
      <trkpt lat="43.27924" lon="0.08451">
        <ele>276</ele>
        <time>2020-05-22T07:59:44Z</time>
      </trkpt>
      <trkpt lat="43.27932" lon="0.08451">
        <ele>276</ele>
        <time>2020-05-22T07:59:50Z</time>
      </trkpt>
      <trkpt lat="43.27936" lon="0.08451">
        <ele>276</ele>
        <time>2020-05-22T07:59:53Z</time>
      </trkpt>
      <trkpt lat="43.27939" lon="0.08454">
        <ele>276</ele>
        <time>2020-05-22T07:59:56Z</time>
      </trkpt>
      <trkpt lat="43.27944" lon="0.08455">
        <ele>276</ele>
        <time>2020-05-22T08:00:00Z</time>
      </trkpt>
      <trkpt lat="43.27957" lon="0.08464">
        <ele>276</ele>
        <time>2020-05-22T08:00:13Z</time>
      </trkpt>
      <trkpt lat="43.27993" lon="0.08475">
        <ele>274</ele>
        <time>2020-05-22T08:00:38Z</time>
      </trkpt>
      <trkpt lat="43.27996" lon="0.0848">
        <ele>274</ele>
        <time>2020-05-22T08:00:42Z</time>
      </trkpt>
      <trkpt lat="43.28" lon="0.08484">
        <ele>274</ele>
        <time>2020-05-22T08:00:47Z</time>
      </trkpt>
      <trkpt lat="43.2801" lon="0.08488">
        <ele>274</ele>
        <time>2020-05-22T08:00:54Z</time>
      </trkpt>
      <trkpt lat="43.28015" lon="0.0849">
        <ele>274</ele>
        <time>2020-05-22T08:00:57Z</time>
      </trkpt>
      <trkpt lat="43.28032" lon="0.085">
        <ele>273</ele>
        <time>2020-05-22T08:01:10Z</time>
      </trkpt>
      <trkpt lat="43.28067" lon="0.08516">
        <ele>275</ele>
        <time>2020-05-22T08:01:39Z</time>
      </trkpt>
      <trkpt lat="43.28071" lon="0.08517">
        <ele>275</ele>
        <time>2020-05-22T08:01:43Z</time>
      </trkpt>
      <trkpt lat="43.28107" lon="0.08529">
        <ele>275</ele>
        <time>2020-05-22T08:02:13Z</time>
      </trkpt>
      <trkpt lat="43.28112" lon="0.08531">
        <ele>275</ele>
        <time>2020-05-22T08:02:17Z</time>
      </trkpt>
      <trkpt lat="43.28123" lon="0.08535">
        <ele>275</ele>
        <time>2020-05-22T08:02:25Z</time>
      </trkpt>
      <trkpt lat="43.28127" lon="0.08535">
        <ele>274</ele>
        <time>2020-05-22T08:02:28Z</time>
      </trkpt>
      <trkpt lat="43.28135" lon="0.08538">
        <ele>274</ele>
        <time>2020-05-22T08:02:34Z</time>
      </trkpt>
      <trkpt lat="43.28143" lon="0.08541">
        <ele>274</ele>
        <time>2020-05-22T08:02:41Z</time>
      </trkpt>
      <trkpt lat="43.28151" lon="0.08543">
        <ele>274</ele>
        <time>2020-05-22T08:02:47Z</time>
      </trkpt>
      <trkpt lat="43.28155" lon="0.08544">
        <ele>274</ele>
        <time>2020-05-22T08:02:51Z</time>
      </trkpt>
      <trkpt lat="43.28183" lon="0.08545">
        <ele>274</ele>
        <time>2020-05-22T08:03:11Z</time>
      </trkpt>
      <trkpt lat="43.28192" lon="0.08545">
        <ele>274</ele>
        <time>2020-05-22T08:03:18Z</time>
      </trkpt>
      <trkpt lat="43.28195" lon="0.08546">
        <ele>274</ele>
        <time>2020-05-22T08:03:21Z</time>
      </trkpt>
      <trkpt lat="43.28236" lon="0.08545">
        <ele>274</ele>
        <time>2020-05-22T08:03:53Z</time>
      </trkpt>
      <trkpt lat="43.28278" lon="0.08546">
        <ele>274</ele>
        <time>2020-05-22T08:04:22Z</time>
      </trkpt>
      <trkpt lat="43.28286" lon="0.08549">
        <ele>274</ele>
        <time>2020-05-22T08:04:28Z</time>
      </trkpt>
      <trkpt lat="43.2829" lon="0.08552">
        <ele>273</ele>
        <time>2020-05-22T08:04:32Z</time>
      </trkpt>
      <trkpt lat="43.28293" lon="0.08556">
        <ele>273</ele>
        <time>2020-05-22T08:04:35Z</time>
      </trkpt>
      <trkpt lat="43.28298" lon="0.08566">
        <ele>273</ele>
        <time>2020-05-22T08:04:41Z</time>
      </trkpt>
      <trkpt lat="43.28298" lon="0.08578">
        <ele>273</ele>
        <time>2020-05-22T08:04:47Z</time>
      </trkpt>
      <trkpt lat="43.28301" lon="0.08582">
        <ele>273</ele>
        <time>2020-05-22T08:04:50Z</time>
      </trkpt>
      <trkpt lat="43.28311" lon="0.0861">
        <ele>273</ele>
        <time>2020-05-22T08:05:08Z</time>
      </trkpt>
      <trkpt lat="43.28314" lon="0.08614">
        <ele>273</ele>
        <time>2020-05-22T08:05:11Z</time>
      </trkpt>
      <trkpt lat="43.28318" lon="0.08626">
        <ele>273</ele>
        <time>2020-05-22T08:05:19Z</time>
      </trkpt>
      <trkpt lat="43.2834" lon="0.08653">
        <ele>272</ele>
        <time>2020-05-22T08:05:42Z</time>
      </trkpt>
      <trkpt lat="43.28344" lon="0.08656">
        <ele>272</ele>
        <time>2020-05-22T08:05:46Z</time>
      </trkpt>
      <trkpt lat="43.28355" lon="0.08667">
        <ele>271</ele>
        <time>2020-05-22T08:05:57Z</time>
      </trkpt>
      <trkpt lat="43.2839" lon="0.08692">
        <ele>271</ele>
        <time>2020-05-22T08:06:28Z</time>
      </trkpt>
      <trkpt lat="43.28395" lon="0.08693">
        <ele>271</ele>
        <time>2020-05-22T08:06:31Z</time>
      </trkpt>
      <trkpt lat="43.28398" lon="0.08697">
        <ele>272</ele>
        <time>2020-05-22T08:06:35Z</time>
      </trkpt>
      <trkpt lat="43.28402" lon="0.08699">
        <ele>272</ele>
        <time>2020-05-22T08:06:39Z</time>
      </trkpt>
      <trkpt lat="43.28412" lon="0.08701">
        <ele>271</ele>
        <time>2020-05-22T08:06:49Z</time>
      </trkpt>
      <trkpt lat="43.2842" lon="0.08706">
        <ele>271</ele>
        <time>2020-05-22T08:06:57Z</time>
      </trkpt>
      <trkpt lat="43.28428" lon="0.08707">
        <ele>271</ele>
        <time>2020-05-22T08:07:03Z</time>
      </trkpt>
      <trkpt lat="43.28432" lon="0.08708">
        <ele>271</ele>
        <time>2020-05-22T08:07:06Z</time>
      </trkpt>
      <trkpt lat="43.28447" lon="0.08707">
        <ele>271</ele>
        <time>2020-05-22T08:07:17Z</time>
      </trkpt>
      <trkpt lat="43.28464" lon="0.08709">
        <ele>271</ele>
        <time>2020-05-22T08:07:32Z</time>
      </trkpt>
      <trkpt lat="43.28473" lon="0.08708">
        <ele>271</ele>
        <time>2020-05-22T08:07:40Z</time>
      </trkpt>
      <trkpt lat="43.2851" lon="0.08724">
        <ele>271</ele>
        <time>2020-05-22T08:08:12Z</time>
      </trkpt>
      <trkpt lat="43.28542" lon="0.08728">
        <ele>271</ele>
        <time>2020-05-22T08:08:38Z</time>
      </trkpt>
      <trkpt lat="43.28551" lon="0.08727">
        <ele>270</ele>
        <time>2020-05-22T08:08:46Z</time>
      </trkpt>
      <trkpt lat="43.28594" lon="0.08721">
        <ele>271</ele>
        <time>2020-05-22T08:09:18Z</time>
      </trkpt>
      <trkpt lat="43.28607" lon="0.08716">
        <ele>271</ele>
        <time>2020-05-22T08:09:28Z</time>
      </trkpt>
      <trkpt lat="43.2862" lon="0.0871">
        <ele>271</ele>
        <time>2020-05-22T08:09:38Z</time>
      </trkpt>
      <trkpt lat="43.28629" lon="0.08706">
        <ele>272</ele>
        <time>2020-05-22T08:09:46Z</time>
      </trkpt>
      <trkpt lat="43.28649" lon="0.08703">
        <ele>271</ele>
        <time>2020-05-22T08:10:01Z</time>
      </trkpt>
      <trkpt lat="43.28657" lon="0.08695">
        <ele>272</ele>
        <time>2020-05-22T08:10:09Z</time>
      </trkpt>
      <trkpt lat="43.28661" lon="0.08692">
        <ele>271</ele>
        <time>2020-05-22T08:10:13Z</time>
      </trkpt>
      <trkpt lat="43.28664" lon="0.08688">
        <ele>271</ele>
        <time>2020-05-22T08:10:17Z</time>
      </trkpt>
      <trkpt lat="43.28668" lon="0.08685">
        <ele>271</ele>
        <time>2020-05-22T08:10:20Z</time>
      </trkpt>
      <trkpt lat="43.28678" lon="0.08682">
        <ele>271</ele>
        <time>2020-05-22T08:10:26Z</time>
      </trkpt>
      <trkpt lat="43.28682" lon="0.08678">
        <ele>271</ele>
        <time>2020-05-22T08:10:29Z</time>
      </trkpt>
      <trkpt lat="43.28714" lon="0.08667">
        <ele>271</ele>
        <time>2020-05-22T08:10:55Z</time>
      </trkpt>
      <trkpt lat="43.28752" lon="0.08638">
        <ele>271</ele>
        <time>2020-05-22T08:11:25Z</time>
      </trkpt>
      <trkpt lat="43.28756" lon="0.08635">
        <ele>271</ele>
        <time>2020-05-22T08:11:28Z</time>
      </trkpt>
      <trkpt lat="43.28759" lon="0.08631">
        <ele>271</ele>
        <time>2020-05-22T08:11:31Z</time>
      </trkpt>
      <trkpt lat="43.28762" lon="0.08628">
        <ele>271</ele>
        <time>2020-05-22T08:11:34Z</time>
      </trkpt>
      <trkpt lat="43.28781" lon="0.086">
        <ele>270</ele>
        <time>2020-05-22T08:11:55Z</time>
      </trkpt>
      <trkpt lat="43.28783" lon="0.08596">
        <ele>271</ele>
        <time>2020-05-22T08:11:58Z</time>
      </trkpt>
      <trkpt lat="43.28788" lon="0.08574">
        <ele>270</ele>
        <time>2020-05-22T08:12:12Z</time>
      </trkpt>
      <trkpt lat="43.2879" lon="0.08569">
        <ele>269</ele>
        <time>2020-05-22T08:12:16Z</time>
      </trkpt>
      <trkpt lat="43.28793" lon="0.08563">
        <ele>269</ele>
        <time>2020-05-22T08:12:19Z</time>
      </trkpt>
      <trkpt lat="43.288" lon="0.08546">
        <ele>269</ele>
        <time>2020-05-22T08:12:30Z</time>
      </trkpt>
      <trkpt lat="43.28803" lon="0.0854">
        <ele>269</ele>
        <time>2020-05-22T08:12:34Z</time>
      </trkpt>
      <trkpt lat="43.28805" lon="0.0853">
        <ele>269</ele>
        <time>2020-05-22T08:12:40Z</time>
      </trkpt>
      <trkpt lat="43.28808" lon="0.08525">
        <ele>269</ele>
        <time>2020-05-22T08:12:44Z</time>
      </trkpt>
      <trkpt lat="43.28809" lon="0.08519">
        <ele>269</ele>
        <time>2020-05-22T08:12:48Z</time>
      </trkpt>
      <trkpt lat="43.28817" lon="0.08461">
        <ele>269</ele>
        <time>2020-05-22T08:13:20Z</time>
      </trkpt>
      <trkpt lat="43.2882" lon="0.08446">
        <ele>269</ele>
        <time>2020-05-22T08:13:28Z</time>
      </trkpt>
      <trkpt lat="43.2882" lon="0.0844">
        <ele>269</ele>
        <time>2020-05-22T08:13:32Z</time>
      </trkpt>
      <trkpt lat="43.28823" lon="0.08428">
        <ele>269</ele>
        <time>2020-05-22T08:13:39Z</time>
      </trkpt>
      <trkpt lat="43.28823" lon="0.08421">
        <ele>269</ele>
        <time>2020-05-22T08:13:42Z</time>
      </trkpt>
      <trkpt lat="43.28825" lon="0.08409">
        <ele>269</ele>
        <time>2020-05-22T08:13:48Z</time>
      </trkpt>
      <trkpt lat="43.28826" lon="0.08395">
        <ele>269</ele>
        <time>2020-05-22T08:13:56Z</time>
      </trkpt>
      <trkpt lat="43.28831" lon="0.08384">
        <ele>269</ele>
        <time>2020-05-22T08:14:04Z</time>
      </trkpt>
      <trkpt lat="43.28849" lon="0.08375">
        <ele>269</ele>
        <time>2020-05-22T08:14:17Z</time>
      </trkpt>
      <trkpt lat="43.28866" lon="0.08372">
        <ele>270</ele>
        <time>2020-05-22T08:14:29Z</time>
      </trkpt>
      <trkpt lat="43.28874" lon="0.08371">
        <ele>270</ele>
        <time>2020-05-22T08:14:37Z</time>
      </trkpt>
      <trkpt lat="43.28879" lon="0.08369">
        <ele>270</ele>
        <time>2020-05-22T08:14:42Z</time>
      </trkpt>
      <trkpt lat="43.28883" lon="0.08369">
        <ele>270</ele>
        <time>2020-05-22T08:14:56Z</time>
      </trkpt>
      <trkpt lat="43.28892" lon="0.08372">
        <ele>271</ele>
        <time>2020-05-22T08:16:25Z</time>
      </trkpt>
      <trkpt lat="43.289" lon="0.08373">
        <ele>270</ele>
        <time>2020-05-22T08:16:45Z</time>
      </trkpt>
      <trkpt lat="43.28905" lon="0.0837">
        <ele>270</ele>
        <time>2020-05-22T08:16:49Z</time>
      </trkpt>
      <trkpt lat="43.28912" lon="0.08367">
        <ele>270</ele>
        <time>2020-05-22T08:16:56Z</time>
      </trkpt>
      <trkpt lat="43.28917" lon="0.08365">
        <ele>270</ele>
        <time>2020-05-22T08:17:01Z</time>
      </trkpt>
      <trkpt lat="43.28928" lon="0.08364">
        <ele>270</ele>
        <time>2020-05-22T08:17:09Z</time>
      </trkpt>
      <trkpt lat="43.28954" lon="0.08361">
        <ele>270</ele>
        <time>2020-05-22T08:17:28Z</time>
      </trkpt>
      <trkpt lat="43.28958" lon="0.08362">
        <ele>270</ele>
        <time>2020-05-22T08:17:31Z</time>
      </trkpt>
      <trkpt lat="43.28964" lon="0.0836">
        <ele>270</ele>
        <time>2020-05-22T08:17:36Z</time>
      </trkpt>
      <trkpt lat="43.2897" lon="0.08361">
        <ele>270</ele>
        <time>2020-05-22T08:17:40Z</time>
      </trkpt>
      <trkpt lat="43.28975" lon="0.0836">
        <ele>270</ele>
        <time>2020-05-22T08:17:45Z</time>
      </trkpt>
      <trkpt lat="43.29004" lon="0.08355">
        <ele>270</ele>
        <time>2020-05-22T08:18:06Z</time>
      </trkpt>
      <trkpt lat="43.29009" lon="0.08356">
        <ele>270</ele>
        <time>2020-05-22T08:18:11Z</time>
      </trkpt>
      <trkpt lat="43.29013" lon="0.08352">
        <ele>270</ele>
        <time>2020-05-22T08:18:20Z</time>
      </trkpt>
      <trkpt lat="43.29028" lon="0.08364">
        <ele>270</ele>
        <time>2020-05-22T08:18:41Z</time>
      </trkpt>
      <trkpt lat="43.2903" lon="0.08368">
        <ele>270</ele>
        <time>2020-05-22T08:18:44Z</time>
      </trkpt>
      <trkpt lat="43.29034" lon="0.0838">
        <ele>270</ele>
        <time>2020-05-22T08:18:51Z</time>
      </trkpt>
      <trkpt lat="43.29036" lon="0.08388">
        <ele>270</ele>
        <time>2020-05-22T08:18:55Z</time>
      </trkpt>
      <trkpt lat="43.29037" lon="0.08394">
        <ele>270</ele>
        <time>2020-05-22T08:18:58Z</time>
      </trkpt>
      <trkpt lat="43.29042" lon="0.08407">
        <ele>270</ele>
        <time>2020-05-22T08:19:10Z</time>
      </trkpt>
      <trkpt lat="43.29044" lon="0.084">
        <ele>270</ele>
        <time>2020-05-22T08:19:26Z</time>
      </trkpt>
      <trkpt lat="43.2905" lon="0.08396">
        <ele>270</ele>
        <time>2020-05-22T08:19:33Z</time>
      </trkpt>
      <trkpt lat="43.29063" lon="0.08383">
        <ele>269</ele>
        <time>2020-05-22T08:19:44Z</time>
      </trkpt>
      <trkpt lat="43.29082" lon="0.08374">
        <ele>270</ele>
        <time>2020-05-22T08:19:58Z</time>
      </trkpt>
      <trkpt lat="43.29088" lon="0.08371">
        <ele>270</ele>
        <time>2020-05-22T08:20:03Z</time>
      </trkpt>
      <trkpt lat="43.29093" lon="0.08367">
        <ele>270</ele>
        <time>2020-05-22T08:20:07Z</time>
      </trkpt>
      <trkpt lat="43.29103" lon="0.08365">
        <ele>270</ele>
        <time>2020-05-22T08:20:14Z</time>
      </trkpt>
      <trkpt lat="43.29113" lon="0.08368">
        <ele>270</ele>
        <time>2020-05-22T08:20:22Z</time>
      </trkpt>
      <trkpt lat="43.29135" lon="0.08366">
        <ele>270</ele>
        <time>2020-05-22T08:20:39Z</time>
      </trkpt>
      <trkpt lat="43.29146" lon="0.08361">
        <ele>270</ele>
        <time>2020-05-22T08:20:48Z</time>
      </trkpt>
      <trkpt lat="43.29157" lon="0.08359">
        <ele>270</ele>
        <time>2020-05-22T08:20:56Z</time>
      </trkpt>
      <trkpt lat="43.29167" lon="0.08354">
        <ele>270</ele>
        <time>2020-05-22T08:21:04Z</time>
      </trkpt>
      <trkpt lat="43.29186" lon="0.08348">
        <ele>270</ele>
        <time>2020-05-22T08:21:19Z</time>
      </trkpt>
      <trkpt lat="43.29197" lon="0.08342">
        <ele>269</ele>
        <time>2020-05-22T08:21:27Z</time>
      </trkpt>
      <trkpt lat="43.29213" lon="0.08336">
        <ele>270</ele>
        <time>2020-05-22T08:21:39Z</time>
      </trkpt>
      <trkpt lat="43.29218" lon="0.08337">
        <ele>269</ele>
        <time>2020-05-22T08:21:43Z</time>
      </trkpt>
      <trkpt lat="43.29238" lon="0.08328">
        <ele>269</ele>
        <time>2020-05-22T08:21:58Z</time>
      </trkpt>
      <trkpt lat="43.29253" lon="0.08325">
        <ele>269</ele>
        <time>2020-05-22T08:22:08Z</time>
      </trkpt>
      <trkpt lat="43.29263" lon="0.08324">
        <ele>269</ele>
        <time>2020-05-22T08:22:15Z</time>
      </trkpt>
      <trkpt lat="43.29272" lon="0.08327">
        <ele>268</ele>
        <time>2020-05-22T08:22:22Z</time>
      </trkpt>
      <trkpt lat="43.2929" lon="0.08329">
        <ele>268</ele>
        <time>2020-05-22T08:22:35Z</time>
      </trkpt>
      <trkpt lat="43.29298" lon="0.08333">
        <ele>268</ele>
        <time>2020-05-22T08:22:41Z</time>
      </trkpt>
      <trkpt lat="43.29304" lon="0.08338">
        <ele>268</ele>
        <time>2020-05-22T08:22:46Z</time>
      </trkpt>
      <trkpt lat="43.29314" lon="0.0834">
        <ele>268</ele>
        <time>2020-05-22T08:22:54Z</time>
      </trkpt>
      <trkpt lat="43.29324" lon="0.08342">
        <ele>267</ele>
        <time>2020-05-22T08:23:01Z</time>
      </trkpt>
      <trkpt lat="43.29336" lon="0.08351">
        <ele>268</ele>
        <time>2020-05-22T08:23:10Z</time>
      </trkpt>
      <trkpt lat="43.29341" lon="0.08352">
        <ele>268</ele>
        <time>2020-05-22T08:23:14Z</time>
      </trkpt>
      <trkpt lat="43.2935" lon="0.08354">
        <ele>268</ele>
        <time>2020-05-22T08:23:22Z</time>
      </trkpt>
      <trkpt lat="43.29359" lon="0.08358">
        <ele>268</ele>
        <time>2020-05-22T08:23:29Z</time>
      </trkpt>
      <trkpt lat="43.29362" lon="0.08363">
        <ele>268</ele>
        <time>2020-05-22T08:23:34Z</time>
      </trkpt>
      <trkpt lat="43.29368" lon="0.08365">
        <ele>269</ele>
        <time>2020-05-22T08:23:46Z</time>
      </trkpt>
      <trkpt lat="43.29394" lon="0.08362">
        <ele>268</ele>
        <time>2020-05-22T08:24:05Z</time>
      </trkpt>
      <trkpt lat="43.29399" lon="0.08363">
        <ele>268</ele>
        <time>2020-05-22T08:24:08Z</time>
      </trkpt>
      <trkpt lat="43.29403" lon="0.08363">
        <ele>268</ele>
        <time>2020-05-22T08:24:11Z</time>
      </trkpt>
      <trkpt lat="43.29406" lon="0.08365">
        <ele>269</ele>
        <time>2020-05-22T08:24:14Z</time>
      </trkpt>
      <trkpt lat="43.29412" lon="0.08365">
        <ele>269</ele>
        <time>2020-05-22T08:24:18Z</time>
      </trkpt>
      <trkpt lat="43.29416" lon="0.08364">
        <ele>268</ele>
        <time>2020-05-22T08:24:21Z</time>
      </trkpt>
      <trkpt lat="43.29441" lon="0.08371">
        <ele>268</ele>
        <time>2020-05-22T08:24:38Z</time>
      </trkpt>
      <trkpt lat="43.29456" lon="0.08388">
        <ele>267</ele>
        <time>2020-05-22T08:24:52Z</time>
      </trkpt>
      <trkpt lat="43.29463" lon="0.08398">
        <ele>267</ele>
        <time>2020-05-22T08:25:00Z</time>
      </trkpt>
      <trkpt lat="43.29473" lon="0.08405">
        <ele>267</ele>
        <time>2020-05-22T08:25:09Z</time>
      </trkpt>
      <trkpt lat="43.29482" lon="0.08403">
        <ele>267</ele>
        <time>2020-05-22T08:25:18Z</time>
      </trkpt>
      <trkpt lat="43.29527" lon="0.08403">
        <ele>267</ele>
        <time>2020-05-22T08:25:51Z</time>
      </trkpt>
      <trkpt lat="43.29556" lon="0.08403">
        <ele>267</ele>
        <time>2020-05-22T08:26:15Z</time>
      </trkpt>
      <trkpt lat="43.29565" lon="0.084">
        <ele>266</ele>
        <time>2020-05-22T08:26:24Z</time>
      </trkpt>
      <trkpt lat="43.29583" lon="0.08401">
        <ele>267</ele>
        <time>2020-05-22T08:26:37Z</time>
      </trkpt>
      <trkpt lat="43.29608" lon="0.0841">
        <ele>267</ele>
        <time>2020-05-22T08:26:56Z</time>
      </trkpt>
      <trkpt lat="43.29622" lon="0.08427">
        <ele>267</ele>
        <time>2020-05-22T08:27:06Z</time>
      </trkpt>
      <trkpt lat="43.29632" lon="0.08453">
        <ele>267</ele>
        <time>2020-05-22T08:27:21Z</time>
      </trkpt>
      <trkpt lat="43.29637" lon="0.08496">
        <ele>267</ele>
        <time>2020-05-22T08:27:47Z</time>
      </trkpt>
      <trkpt lat="43.2964" lon="0.08502">
        <ele>267</ele>
        <time>2020-05-22T08:27:51Z</time>
      </trkpt>
      <trkpt lat="43.29641" lon="0.08537">
        <ele>267</ele>
        <time>2020-05-22T08:28:10Z</time>
      </trkpt>
      <trkpt lat="43.29641" lon="0.08574">
        <ele>267</ele>
        <time>2020-05-22T08:28:31Z</time>
      </trkpt>
      <trkpt lat="43.29643" lon="0.086">
        <ele>266</ele>
        <time>2020-05-22T08:28:45Z</time>
      </trkpt>
      <trkpt lat="43.29643" lon="0.08614">
        <ele>267</ele>
        <time>2020-05-22T08:28:53Z</time>
      </trkpt>
      <trkpt lat="43.29644" lon="0.08622">
        <ele>267</ele>
        <time>2020-05-22T08:28:57Z</time>
      </trkpt>
      <trkpt lat="43.29644" lon="0.08628">
        <ele>267</ele>
        <time>2020-05-22T08:29:01Z</time>
      </trkpt>
      <trkpt lat="43.29645" lon="0.08634">
        <ele>267</ele>
        <time>2020-05-22T08:29:05Z</time>
      </trkpt>
      <trkpt lat="43.29645" lon="0.08645">
        <ele>267</ele>
        <time>2020-05-22T08:29:11Z</time>
      </trkpt>
      <trkpt lat="43.29649" lon="0.0867">
        <ele>267</ele>
        <time>2020-05-22T08:29:27Z</time>
      </trkpt>
      <trkpt lat="43.29652" lon="0.08676">
        <ele>267</ele>
        <time>2020-05-22T08:29:33Z</time>
      </trkpt>
      <trkpt lat="43.29656" lon="0.08679">
        <ele>267</ele>
        <time>2020-05-22T08:29:38Z</time>
      </trkpt>
      <trkpt lat="43.29669" lon="0.0868">
        <ele>267</ele>
        <time>2020-05-22T08:29:50Z</time>
      </trkpt>
      <trkpt lat="43.29674" lon="0.08679">
        <ele>267</ele>
        <time>2020-05-22T08:29:53Z</time>
      </trkpt>
      <trkpt lat="43.29678" lon="0.0868">
        <ele>266</ele>
        <time>2020-05-22T08:29:57Z</time>
      </trkpt>
      <trkpt lat="43.29693" lon="0.08679">
        <ele>266</ele>
        <time>2020-05-22T08:30:08Z</time>
      </trkpt>
      <trkpt lat="43.29697" lon="0.0868">
        <ele>266</ele>
        <time>2020-05-22T08:30:12Z</time>
      </trkpt>
      <trkpt lat="43.29711" lon="0.08677">
        <ele>266</ele>
        <time>2020-05-22T08:30:22Z</time>
      </trkpt>
      <trkpt lat="43.29715" lon="0.08679">
        <ele>266</ele>
        <time>2020-05-22T08:30:26Z</time>
      </trkpt>
      <trkpt lat="43.2973" lon="0.08676">
        <ele>266</ele>
        <time>2020-05-22T08:30:40Z</time>
      </trkpt>
      <trkpt lat="43.29733" lon="0.08671">
        <ele>266</ele>
        <time>2020-05-22T08:30:44Z</time>
      </trkpt>
      <trkpt lat="43.29735" lon="0.08665">
        <ele>266</ele>
        <time>2020-05-22T08:30:48Z</time>
      </trkpt>
      <trkpt lat="43.29739" lon="0.08661">
        <ele>266</ele>
        <time>2020-05-22T08:30:54Z</time>
      </trkpt>
      <trkpt lat="43.29744" lon="0.08657">
        <ele>266</ele>
        <time>2020-05-22T08:30:58Z</time>
      </trkpt>
      <trkpt lat="43.29749" lon="0.08656">
        <ele>266</ele>
        <time>2020-05-22T08:31:03Z</time>
      </trkpt>
      <trkpt lat="43.29755" lon="0.08657">
        <ele>266</ele>
        <time>2020-05-22T08:31:08Z</time>
      </trkpt>
      <trkpt lat="43.29771" lon="0.08648">
        <ele>266</ele>
        <time>2020-05-22T08:31:22Z</time>
      </trkpt>
      <trkpt lat="43.29777" lon="0.0865">
        <ele>266</ele>
        <time>2020-05-22T08:31:26Z</time>
      </trkpt>
      <trkpt lat="43.2981" lon="0.08652">
        <ele>265</ele>
        <time>2020-05-22T08:31:50Z</time>
      </trkpt>
      <trkpt lat="43.29816" lon="0.0865">
        <ele>265</ele>
        <time>2020-05-22T08:31:56Z</time>
      </trkpt>
      <trkpt lat="43.29822" lon="0.08654">
        <ele>265</ele>
        <time>2020-05-22T08:32:00Z</time>
      </trkpt>
      <trkpt lat="43.29835" lon="0.08672">
        <ele>265</ele>
        <time>2020-05-22T08:32:13Z</time>
      </trkpt>
      <trkpt lat="43.29836" lon="0.08681">
        <ele>265</ele>
        <time>2020-05-22T08:32:18Z</time>
      </trkpt>
      <trkpt lat="43.29833" lon="0.08705">
        <ele>265</ele>
        <time>2020-05-22T08:32:30Z</time>
      </trkpt>
      <trkpt lat="43.2983" lon="0.08715">
        <ele>264</ele>
        <time>2020-05-22T08:32:38Z</time>
      </trkpt>
      <trkpt lat="43.2983" lon="0.08724">
        <ele>265</ele>
        <time>2020-05-22T08:32:44Z</time>
      </trkpt>
      <trkpt lat="43.2983" lon="0.0874">
        <ele>265</ele>
        <time>2020-05-22T08:32:51Z</time>
      </trkpt>
      <trkpt lat="43.29834" lon="0.08763">
        <ele>265</ele>
        <time>2020-05-22T08:33:06Z</time>
      </trkpt>
      <trkpt lat="43.29837" lon="0.08802">
        <ele>265</ele>
        <time>2020-05-22T08:33:29Z</time>
      </trkpt>
      <trkpt lat="43.29839" lon="0.08808">
        <ele>265</ele>
        <time>2020-05-22T08:33:33Z</time>
      </trkpt>
      <trkpt lat="43.29845" lon="0.08811">
        <ele>265</ele>
        <time>2020-05-22T08:33:42Z</time>
      </trkpt>
      <trkpt lat="43.29859" lon="0.08814">
        <ele>266</ele>
        <time>2020-05-22T08:33:53Z</time>
      </trkpt>
      <trkpt lat="43.29876" lon="0.08813">
        <ele>265</ele>
        <time>2020-05-22T08:34:07Z</time>
      </trkpt>
      <trkpt lat="43.29881" lon="0.08814">
        <ele>265</ele>
        <time>2020-05-22T08:34:10Z</time>
      </trkpt>
      <trkpt lat="43.29891" lon="0.08822">
        <ele>265</ele>
        <time>2020-05-22T08:34:18Z</time>
      </trkpt>
      <trkpt lat="43.29903" lon="0.08831">
        <ele>264</ele>
        <time>2020-05-22T08:34:28Z</time>
      </trkpt>
      <trkpt lat="43.29906" lon="0.08835">
        <ele>264</ele>
        <time>2020-05-22T08:34:31Z</time>
      </trkpt>
      <trkpt lat="43.29911" lon="0.08839">
        <ele>265</ele>
        <time>2020-05-22T08:34:35Z</time>
      </trkpt>
      <trkpt lat="43.29915" lon="0.08843">
        <ele>265</ele>
        <time>2020-05-22T08:34:40Z</time>
      </trkpt>
      <trkpt lat="43.29919" lon="0.08845">
        <ele>265</ele>
        <time>2020-05-22T08:34:44Z</time>
      </trkpt>
      <trkpt lat="43.29924" lon="0.08849">
        <ele>265</ele>
        <time>2020-05-22T08:34:48Z</time>
      </trkpt>
      <trkpt lat="43.29937" lon="0.08857">
        <ele>264</ele>
        <time>2020-05-22T08:34:59Z</time>
      </trkpt>
      <trkpt lat="43.29948" lon="0.0887">
        <ele>264</ele>
        <time>2020-05-22T08:35:09Z</time>
      </trkpt>
      <trkpt lat="43.29951" lon="0.08874">
        <ele>264</ele>
        <time>2020-05-22T08:35:12Z</time>
      </trkpt>
      <trkpt lat="43.29969" lon="0.08917">
        <ele>264</ele>
        <time>2020-05-22T08:35:40Z</time>
      </trkpt>
      <trkpt lat="43.29982" lon="0.08926">
        <ele>264</ele>
        <time>2020-05-22T08:35:53Z</time>
      </trkpt>
      <trkpt lat="43.29984" lon="0.08931">
        <ele>264</ele>
        <time>2020-05-22T08:35:56Z</time>
      </trkpt>
      <trkpt lat="43.29995" lon="0.08945">
        <ele>264</ele>
        <time>2020-05-22T08:36:07Z</time>
      </trkpt>
      <trkpt lat="43.29999" lon="0.08947">
        <ele>265</ele>
        <time>2020-05-22T08:36:11Z</time>
      </trkpt>
      <trkpt lat="43.30003" lon="0.08949">
        <ele>265</ele>
        <time>2020-05-22T08:36:15Z</time>
      </trkpt>
      <trkpt lat="43.30036" lon="0.08979">
        <ele>264</ele>
        <time>2020-05-22T08:36:47Z</time>
      </trkpt>
      <trkpt lat="43.30053" lon="0.08992">
        <ele>264</ele>
        <time>2020-05-22T08:37:03Z</time>
      </trkpt>
      <trkpt lat="43.30058" lon="0.0899">
        <ele>264</ele>
        <time>2020-05-22T08:37:08Z</time>
      </trkpt>
      <trkpt lat="43.30054" lon="0.08991">
        <ele>264</ele>
        <time>2020-05-22T08:38:11Z</time>
      </trkpt>
      <trkpt lat="43.30053" lon="0.08992">
        <ele>264</ele>
        <time>2020-05-22T08:38:42Z</time>
      </trkpt>
      <trkpt lat="43.30047" lon="0.0899">
        <ele>264</ele>
        <time>2020-05-22T08:39:12Z</time>
      </trkpt>
      <trkpt lat="43.30043" lon="0.09019">
        <ele>263</ele>
        <time>2020-05-22T08:39:41Z</time>
      </trkpt>
      <trkpt lat="43.30042" lon="0.09027">
        <ele>263</ele>
        <time>2020-05-22T08:39:47Z</time>
      </trkpt>
      <trkpt lat="43.30045" lon="0.09008">
        <ele>264</ele>
        <time>2020-05-22T08:40:19Z</time>
      </trkpt>
      <trkpt lat="43.30048" lon="0.09">
        <ele>264</ele>
        <time>2020-05-22T08:40:26Z</time>
      </trkpt>
      <trkpt lat="43.30052" lon="0.08994">
        <ele>264</ele>
        <time>2020-05-22T08:40:35Z</time>
      </trkpt>
      <trkpt lat="43.30057" lon="0.08993">
        <ele>264</ele>
        <time>2020-05-22T08:40:47Z</time>
      </trkpt>
      <trkpt lat="43.3007" lon="0.08998">
        <ele>264</ele>
        <time>2020-05-22T08:40:59Z</time>
      </trkpt>
      <trkpt lat="43.30078" lon="0.08999">
        <ele>263</ele>
        <time>2020-05-22T08:41:06Z</time>
      </trkpt>
      <trkpt lat="43.30085" lon="0.08999">
        <ele>263</ele>
        <time>2020-05-22T08:41:11Z</time>
      </trkpt>
      <trkpt lat="43.30092" lon="0.09001">
        <ele>264</ele>
        <time>2020-05-22T08:41:17Z</time>
      </trkpt>
      <trkpt lat="43.30098" lon="0.09002">
        <ele>263</ele>
        <time>2020-05-22T08:41:20Z</time>
      </trkpt>
      <trkpt lat="43.30104" lon="0.08997">
        <ele>263</ele>
        <time>2020-05-22T08:41:29Z</time>
      </trkpt>
      <trkpt lat="43.30108" lon="0.08991">
        <ele>263</ele>
        <time>2020-05-22T08:41:35Z</time>
      </trkpt>
      <trkpt lat="43.30112" lon="0.08988">
        <ele>262</ele>
        <time>2020-05-22T08:41:39Z</time>
      </trkpt>
      <trkpt lat="43.30119" lon="0.08989">
        <ele>262</ele>
        <time>2020-05-22T08:41:46Z</time>
      </trkpt>
      <trkpt lat="43.30124" lon="0.08993">
        <ele>262</ele>
        <time>2020-05-22T08:41:49Z</time>
      </trkpt>
      <trkpt lat="43.30127" lon="0.08998">
        <ele>262</ele>
        <time>2020-05-22T08:41:51Z</time>
      </trkpt>
      <trkpt lat="43.3013" lon="0.09002">
        <ele>262</ele>
        <time>2020-05-22T08:41:53Z</time>
      </trkpt>
      <trkpt lat="43.30145" lon="0.09028">
        <ele>262</ele>
        <time>2020-05-22T08:42:09Z</time>
      </trkpt>
      <trkpt lat="43.30146" lon="0.09034">
        <ele>262</ele>
        <time>2020-05-22T08:42:13Z</time>
      </trkpt>
      <trkpt lat="43.30156" lon="0.09043">
        <ele>262</ele>
        <time>2020-05-22T08:42:25Z</time>
      </trkpt>
      <trkpt lat="43.30161" lon="0.09045">
        <ele>262</ele>
        <time>2020-05-22T08:42:33Z</time>
      </trkpt>
      <trkpt lat="43.30166" lon="0.09043">
        <ele>263</ele>
        <time>2020-05-22T08:42:38Z</time>
      </trkpt>
      <trkpt lat="43.30179" lon="0.0904">
        <ele>262</ele>
        <time>2020-05-22T08:42:49Z</time>
      </trkpt>
      <trkpt lat="43.30219" lon="0.09053">
        <ele>262</ele>
        <time>2020-05-22T08:43:20Z</time>
      </trkpt>
      <trkpt lat="43.30225" lon="0.09053">
        <ele>262</ele>
        <time>2020-05-22T08:43:24Z</time>
      </trkpt>
      <trkpt lat="43.3023" lon="0.09056">
        <ele>262</ele>
        <time>2020-05-22T08:43:27Z</time>
      </trkpt>
      <trkpt lat="43.30247" lon="0.09059">
        <ele>262</ele>
        <time>2020-05-22T08:43:39Z</time>
      </trkpt>
      <trkpt lat="43.30252" lon="0.09057">
        <ele>262</ele>
        <time>2020-05-22T08:43:43Z</time>
      </trkpt>
      <trkpt lat="43.30257" lon="0.09057">
        <ele>262</ele>
        <time>2020-05-22T08:43:47Z</time>
      </trkpt>
      <trkpt lat="43.30272" lon="0.09065">
        <ele>262</ele>
        <time>2020-05-22T08:43:56Z</time>
      </trkpt>
      <trkpt lat="43.30275" lon="0.0907">
        <ele>262</ele>
        <time>2020-05-22T08:43:59Z</time>
      </trkpt>
      <trkpt lat="43.30292" lon="0.09082">
        <ele>262</ele>
        <time>2020-05-22T08:44:12Z</time>
      </trkpt>
      <trkpt lat="43.30295" lon="0.09085">
        <ele>262</ele>
        <time>2020-05-22T08:44:15Z</time>
      </trkpt>
      <trkpt lat="43.30298" lon="0.09091">
        <ele>262</ele>
        <time>2020-05-22T08:44:19Z</time>
      </trkpt>
      <trkpt lat="43.30298" lon="0.09096">
        <ele>262</ele>
        <time>2020-05-22T08:44:28Z</time>
      </trkpt>
      <trkpt lat="43.30309" lon="0.09096">
        <ele>262</ele>
        <time>2020-05-22T08:44:44Z</time>
      </trkpt>
      <trkpt lat="43.30317" lon="0.091">
        <ele>262</ele>
        <time>2020-05-22T08:44:52Z</time>
      </trkpt>
      <trkpt lat="43.30324" lon="0.09105">
        <ele>262</ele>
        <time>2020-05-22T08:44:58Z</time>
      </trkpt>
      <trkpt lat="43.30333" lon="0.09109">
        <ele>262</ele>
        <time>2020-05-22T08:45:05Z</time>
      </trkpt>
      <trkpt lat="43.30338" lon="0.0911">
        <ele>262</ele>
        <time>2020-05-22T08:45:09Z</time>
      </trkpt>
      <trkpt lat="43.3035" lon="0.09118">
        <ele>262</ele>
        <time>2020-05-22T08:45:18Z</time>
      </trkpt>
      <trkpt lat="43.30353" lon="0.09121">
        <ele>262</ele>
        <time>2020-05-22T08:45:21Z</time>
      </trkpt>
      <trkpt lat="43.30362" lon="0.09122">
        <ele>262</ele>
        <time>2020-05-22T08:45:28Z</time>
      </trkpt>
      <trkpt lat="43.3037" lon="0.09126">
        <ele>262</ele>
        <time>2020-05-22T08:45:34Z</time>
      </trkpt>
      <trkpt lat="43.30374" lon="0.09129">
        <ele>262</ele>
        <time>2020-05-22T08:45:37Z</time>
      </trkpt>
      <trkpt lat="43.30378" lon="0.09132">
        <ele>262</ele>
        <time>2020-05-22T08:45:42Z</time>
      </trkpt>
      <trkpt lat="43.30387" lon="0.09136">
        <ele>264</ele>
        <time>2020-05-22T08:45:51Z</time>
      </trkpt>
      <trkpt lat="43.30391" lon="0.09137">
        <ele>264</ele>
        <time>2020-05-22T08:45:55Z</time>
      </trkpt>
      <trkpt lat="43.30394" lon="0.09141">
        <ele>263</ele>
        <time>2020-05-22T08:45:59Z</time>
      </trkpt>
      <trkpt lat="43.30398" lon="0.09145">
        <ele>263</ele>
        <time>2020-05-22T08:46:02Z</time>
      </trkpt>
      <trkpt lat="43.30398" lon="0.09152">
        <ele>264</ele>
        <time>2020-05-22T08:46:06Z</time>
      </trkpt>
      <trkpt lat="43.30397" lon="0.09158">
        <ele>263</ele>
        <time>2020-05-22T08:46:11Z</time>
      </trkpt>
      <trkpt lat="43.30397" lon="0.09163">
        <ele>263</ele>
        <time>2020-05-22T08:46:14Z</time>
      </trkpt>
      <trkpt lat="43.30386" lon="0.09216">
        <ele>262</ele>
        <time>2020-05-22T08:46:44Z</time>
      </trkpt>
      <trkpt lat="43.30386" lon="0.09221">
        <ele>262</ele>
        <time>2020-05-22T08:46:47Z</time>
      </trkpt>
      <trkpt lat="43.30384" lon="0.09226">
        <ele>262</ele>
        <time>2020-05-22T08:46:50Z</time>
      </trkpt>
      <trkpt lat="43.30383" lon="0.09245">
        <ele>262</ele>
        <time>2020-05-22T08:47:01Z</time>
      </trkpt>
      <trkpt lat="43.30381" lon="0.09251">
        <ele>262</ele>
        <time>2020-05-22T08:47:05Z</time>
      </trkpt>
      <trkpt lat="43.30374" lon="0.09307">
        <ele>262</ele>
        <time>2020-05-22T08:47:37Z</time>
      </trkpt>
      <trkpt lat="43.30373" lon="0.09312">
        <ele>262</ele>
        <time>2020-05-22T08:47:40Z</time>
      </trkpt>
      <trkpt lat="43.30373" lon="0.09326">
        <ele>262</ele>
        <time>2020-05-22T08:47:47Z</time>
      </trkpt>
      <trkpt lat="43.30366" lon="0.09371">
        <ele>262</ele>
        <time>2020-05-22T08:48:13Z</time>
      </trkpt>
      <trkpt lat="43.30366" lon="0.09378">
        <ele>262</ele>
        <time>2020-05-22T08:48:17Z</time>
      </trkpt>
      <trkpt lat="43.30364" lon="0.09386">
        <ele>262</ele>
        <time>2020-05-22T08:48:21Z</time>
      </trkpt>
      <trkpt lat="43.30358" lon="0.09422">
        <ele>262</ele>
        <time>2020-05-22T08:48:42Z</time>
      </trkpt>
      <trkpt lat="43.30358" lon="0.09429">
        <ele>262</ele>
        <time>2020-05-22T08:48:46Z</time>
      </trkpt>
      <trkpt lat="43.30356" lon="0.09435">
        <ele>262</ele>
        <time>2020-05-22T08:48:50Z</time>
      </trkpt>
      <trkpt lat="43.3035" lon="0.09443">
        <ele>262</ele>
        <time>2020-05-22T08:48:55Z</time>
      </trkpt>
      <trkpt lat="43.30348" lon="0.09447">
        <ele>263</ele>
        <time>2020-05-22T08:49:04Z</time>
      </trkpt>
      <trkpt lat="43.30348" lon="0.09457">
        <ele>262</ele>
        <time>2020-05-22T08:49:21Z</time>
      </trkpt>
      <trkpt lat="43.30347" lon="0.09466">
        <ele>262</ele>
        <time>2020-05-22T08:49:29Z</time>
      </trkpt>
      <trkpt lat="43.30346" lon="0.09472">
        <ele>262</ele>
        <time>2020-05-22T08:49:33Z</time>
      </trkpt>
      <trkpt lat="43.30341" lon="0.09517">
        <ele>262</ele>
        <time>2020-05-22T08:50:00Z</time>
      </trkpt>
      <trkpt lat="43.30342" lon="0.09523">
        <ele>262</ele>
        <time>2020-05-22T08:50:04Z</time>
      </trkpt>
      <trkpt lat="43.30333" lon="0.09541">
        <ele>262</ele>
        <time>2020-05-22T08:50:29Z</time>
      </trkpt>
      <trkpt lat="43.30329" lon="0.09543">
        <ele>262</ele>
        <time>2020-05-22T08:50:32Z</time>
      </trkpt>
      <trkpt lat="43.30315" lon="0.09544">
        <ele>262</ele>
        <time>2020-05-22T08:50:42Z</time>
      </trkpt>
      <trkpt lat="43.30272" lon="0.09535">
        <ele>262</ele>
        <time>2020-05-22T08:51:15Z</time>
      </trkpt>
      <trkpt lat="43.30269" lon="0.09533">
        <ele>263</ele>
        <time>2020-05-22T08:51:29Z</time>
      </trkpt>
      <trkpt lat="43.30265" lon="0.09532">
        <ele>262</ele>
        <time>2020-05-22T08:51:34Z</time>
      </trkpt>
      <trkpt lat="43.30262" lon="0.09529">
        <ele>262</ele>
        <time>2020-05-22T08:51:39Z</time>
      </trkpt>
      <trkpt lat="43.30253" lon="0.09527">
        <ele>262</ele>
        <time>2020-05-22T08:51:45Z</time>
      </trkpt>
      <trkpt lat="43.30249" lon="0.09526">
        <ele>262</ele>
        <time>2020-05-22T08:51:48Z</time>
      </trkpt>
      <trkpt lat="43.3021" lon="0.09513">
        <ele>263</ele>
        <time>2020-05-22T08:52:19Z</time>
      </trkpt>
      <trkpt lat="43.30166" lon="0.09503">
        <ele>264</ele>
        <time>2020-05-22T08:52:52Z</time>
      </trkpt>
      <trkpt lat="43.30124" lon="0.09496">
        <ele>264</ele>
        <time>2020-05-22T08:53:25Z</time>
      </trkpt>
      <trkpt lat="43.3012" lon="0.09495">
        <ele>264</ele>
        <time>2020-05-22T08:53:28Z</time>
      </trkpt>
      <trkpt lat="43.30107" lon="0.09494">
        <ele>264</ele>
        <time>2020-05-22T08:53:38Z</time>
      </trkpt>
      <trkpt lat="43.30092" lon="0.09488">
        <ele>264</ele>
        <time>2020-05-22T08:53:50Z</time>
      </trkpt>
      <trkpt lat="43.30089" lon="0.09485">
        <ele>264</ele>
        <time>2020-05-22T08:53:53Z</time>
      </trkpt>
      <trkpt lat="43.30077" lon="0.09482">
        <ele>264</ele>
        <time>2020-05-22T08:54:01Z</time>
      </trkpt>
      <trkpt lat="43.30058" lon="0.09475">
        <ele>264</ele>
        <time>2020-05-22T08:54:17Z</time>
      </trkpt>
      <trkpt lat="43.30054" lon="0.09472">
        <ele>264</ele>
        <time>2020-05-22T08:54:21Z</time>
      </trkpt>
      <trkpt lat="43.30055" lon="0.09467">
        <ele>265</ele>
        <time>2020-05-22T08:54:35Z</time>
      </trkpt>
      <trkpt lat="43.30049" lon="0.09468">
        <ele>265</ele>
        <time>2020-05-22T08:54:45Z</time>
      </trkpt>
      <trkpt lat="43.30042" lon="0.09468">
        <ele>264</ele>
        <time>2020-05-22T08:54:52Z</time>
      </trkpt>
      <trkpt lat="43.30031" lon="0.09463">
        <ele>264</ele>
        <time>2020-05-22T08:55:02Z</time>
      </trkpt>
      <trkpt lat="43.30027" lon="0.09461">
        <ele>264</ele>
        <time>2020-05-22T08:55:06Z</time>
      </trkpt>
      <trkpt lat="43.30023" lon="0.09459">
        <ele>264</ele>
        <time>2020-05-22T08:55:09Z</time>
      </trkpt>
      <trkpt lat="43.30015" lon="0.09456">
        <ele>264</ele>
        <time>2020-05-22T08:55:16Z</time>
      </trkpt>
      <trkpt lat="43.3" lon="0.09449">
        <ele>264</ele>
        <time>2020-05-22T08:55:27Z</time>
      </trkpt>
      <trkpt lat="43.29992" lon="0.09446">
        <ele>264</ele>
        <time>2020-05-22T08:55:34Z</time>
      </trkpt>
      <trkpt lat="43.29963" lon="0.09437">
        <ele>265</ele>
        <time>2020-05-22T08:55:58Z</time>
      </trkpt>
      <trkpt lat="43.29954" lon="0.09435">
        <ele>265</ele>
        <time>2020-05-22T08:56:05Z</time>
      </trkpt>
      <trkpt lat="43.29951" lon="0.09434">
        <ele>265</ele>
        <time>2020-05-22T08:56:09Z</time>
      </trkpt>
      <trkpt lat="43.29943" lon="0.09434">
        <ele>265</ele>
        <time>2020-05-22T08:56:15Z</time>
      </trkpt>
      <trkpt lat="43.29926" lon="0.09432">
        <ele>265</ele>
        <time>2020-05-22T08:56:28Z</time>
      </trkpt>
      <trkpt lat="43.29921" lon="0.09434">
        <ele>265</ele>
        <time>2020-05-22T08:56:31Z</time>
      </trkpt>
      <trkpt lat="43.29912" lon="0.09433">
        <ele>266</ele>
        <time>2020-05-22T08:56:39Z</time>
      </trkpt>
      <trkpt lat="43.29909" lon="0.09431">
        <ele>266</ele>
        <time>2020-05-22T08:56:47Z</time>
      </trkpt>
      <trkpt lat="43.29908" lon="0.09425">
        <ele>266</ele>
        <time>2020-05-22T08:56:51Z</time>
      </trkpt>
      <trkpt lat="43.29908" lon="0.0942">
        <ele>266</ele>
        <time>2020-05-22T08:56:54Z</time>
      </trkpt>
      <trkpt lat="43.29909" lon="0.09403">
        <ele>266</ele>
        <time>2020-05-22T08:57:05Z</time>
      </trkpt>
      <trkpt lat="43.29908" lon="0.09398">
        <ele>266</ele>
        <time>2020-05-22T08:57:09Z</time>
      </trkpt>
      <trkpt lat="43.29908" lon="0.09392">
        <ele>266</ele>
        <time>2020-05-22T08:57:13Z</time>
      </trkpt>
      <trkpt lat="43.29912" lon="0.09385">
        <ele>265</ele>
        <time>2020-05-22T08:57:23Z</time>
      </trkpt>
      <trkpt lat="43.29907" lon="0.09378">
        <ele>266</ele>
        <time>2020-05-22T08:57:34Z</time>
      </trkpt>
      <trkpt lat="43.29905" lon="0.09356">
        <ele>266</ele>
        <time>2020-05-22T08:57:48Z</time>
      </trkpt>
      <trkpt lat="43.29905" lon="0.09343">
        <ele>265</ele>
        <time>2020-05-22T08:57:56Z</time>
      </trkpt>
      <trkpt lat="43.29904" lon="0.0934">
        <ele>265</ele>
        <time>2020-05-22T08:57:59Z</time>
      </trkpt>
      <trkpt lat="43.29904" lon="0.09326">
        <ele>265</ele>
        <time>2020-05-22T08:58:09Z</time>
      </trkpt>
      <trkpt lat="43.29903" lon="0.09315">
        <ele>265</ele>
        <time>2020-05-22T08:58:15Z</time>
      </trkpt>
      <trkpt lat="43.29903" lon="0.0931">
        <ele>266</ele>
        <time>2020-05-22T08:58:18Z</time>
      </trkpt>
      <trkpt lat="43.29903" lon="0.09305">
        <ele>265</ele>
        <time>2020-05-22T08:58:22Z</time>
      </trkpt>
      <trkpt lat="43.29902" lon="0.093">
        <ele>265</ele>
        <time>2020-05-22T08:58:26Z</time>
      </trkpt>
      <trkpt lat="43.29902" lon="0.09293">
        <ele>265</ele>
        <time>2020-05-22T08:58:30Z</time>
      </trkpt>
      <trkpt lat="43.29901" lon="0.09283">
        <ele>265</ele>
        <time>2020-05-22T08:58:36Z</time>
      </trkpt>
      <trkpt lat="43.29901" lon="0.0926">
        <ele>265</ele>
        <time>2020-05-22T08:58:50Z</time>
      </trkpt>
      <trkpt lat="43.29899" lon="0.0923">
        <ele>265</ele>
        <time>2020-05-22T08:59:10Z</time>
      </trkpt>
      <trkpt lat="43.29902" lon="0.09226">
        <ele>264</ele>
        <time>2020-05-22T08:59:20Z</time>
      </trkpt>
      <trkpt lat="43.29905" lon="0.09233">
        <ele>264</ele>
        <time>2020-05-22T09:01:46Z</time>
      </trkpt>
      <trkpt lat="43.29902" lon="0.0923">
        <ele>265</ele>
        <time>2020-05-22T09:02:07Z</time>
      </trkpt>
      <trkpt lat="43.29904" lon="0.09238">
        <ele>265</ele>
        <time>2020-05-22T09:02:46Z</time>
      </trkpt>
      <trkpt lat="43.29902" lon="0.09244">
        <ele>265</ele>
        <time>2020-05-22T09:02:49Z</time>
      </trkpt>
      <trkpt lat="43.29902" lon="0.09249">
        <ele>265</ele>
        <time>2020-05-22T09:02:52Z</time>
      </trkpt>
      <trkpt lat="43.29902" lon="0.09255">
        <ele>265</ele>
        <time>2020-05-22T09:02:55Z</time>
      </trkpt>
      <trkpt lat="43.29903" lon="0.0926">
        <ele>265</ele>
        <time>2020-05-22T09:02:59Z</time>
      </trkpt>
      <trkpt lat="43.29902" lon="0.09267">
        <ele>265</ele>
        <time>2020-05-22T09:03:05Z</time>
      </trkpt>
      <trkpt lat="43.29903" lon="0.09279">
        <ele>265</ele>
        <time>2020-05-22T09:03:12Z</time>
      </trkpt>
      <trkpt lat="43.29902" lon="0.09297">
        <ele>265</ele>
        <time>2020-05-22T09:03:23Z</time>
      </trkpt>
      <trkpt lat="43.29904" lon="0.09311">
        <ele>265</ele>
        <time>2020-05-22T09:03:32Z</time>
      </trkpt>
      <trkpt lat="43.29904" lon="0.09318">
        <ele>265</ele>
        <time>2020-05-22T09:03:35Z</time>
      </trkpt>
      <trkpt lat="43.29905" lon="0.09334">
        <ele>265</ele>
        <time>2020-05-22T09:03:44Z</time>
      </trkpt>
      <trkpt lat="43.29906" lon="0.09345">
        <ele>265</ele>
        <time>2020-05-22T09:03:50Z</time>
      </trkpt>
      <trkpt lat="43.29908" lon="0.09356">
        <ele>265</ele>
        <time>2020-05-22T09:03:56Z</time>
      </trkpt>
      <trkpt lat="43.29908" lon="0.09362">
        <ele>265</ele>
        <time>2020-05-22T09:04:00Z</time>
      </trkpt>
      <trkpt lat="43.2991" lon="0.09373">
        <ele>265</ele>
        <time>2020-05-22T09:04:06Z</time>
      </trkpt>
      <trkpt lat="43.29911" lon="0.09378">
        <ele>265</ele>
        <time>2020-05-22T09:04:09Z</time>
      </trkpt>
      <trkpt lat="43.29912" lon="0.0939">
        <ele>265</ele>
        <time>2020-05-22T09:04:16Z</time>
      </trkpt>
      <trkpt lat="43.29911" lon="0.09402">
        <ele>265</ele>
        <time>2020-05-22T09:04:23Z</time>
      </trkpt>
      <trkpt lat="43.29911" lon="0.09419">
        <ele>265</ele>
        <time>2020-05-22T09:04:32Z</time>
      </trkpt>
      <trkpt lat="43.29909" lon="0.09425">
        <ele>265</ele>
        <time>2020-05-22T09:04:35Z</time>
      </trkpt>
      <trkpt lat="43.29906" lon="0.09428">
        <ele>266</ele>
        <time>2020-05-22T09:04:38Z</time>
      </trkpt>
      <trkpt lat="43.29902" lon="0.09431">
        <ele>266</ele>
        <time>2020-05-22T09:04:41Z</time>
      </trkpt>
      <trkpt lat="43.29898" lon="0.09433">
        <ele>266</ele>
        <time>2020-05-22T09:04:44Z</time>
      </trkpt>
      <trkpt lat="43.29885" lon="0.09433">
        <ele>266</ele>
        <time>2020-05-22T09:04:53Z</time>
      </trkpt>
      <trkpt lat="43.29877" lon="0.09436">
        <ele>266</ele>
        <time>2020-05-22T09:05:01Z</time>
      </trkpt>
      <trkpt lat="43.29873" lon="0.09437">
        <ele>266</ele>
        <time>2020-05-22T09:05:09Z</time>
      </trkpt>
      <trkpt lat="43.29874" lon="0.09443">
        <ele>266</ele>
        <time>2020-05-22T09:05:15Z</time>
      </trkpt>
      <trkpt lat="43.29874" lon="0.095">
        <ele>265</ele>
        <time>2020-05-22T09:05:47Z</time>
      </trkpt>
      <trkpt lat="43.29874" lon="0.09506">
        <ele>265</ele>
        <time>2020-05-22T09:05:50Z</time>
      </trkpt>
      <trkpt lat="43.29871" lon="0.0953">
        <ele>265</ele>
        <time>2020-05-22T09:06:03Z</time>
      </trkpt>
      <trkpt lat="43.29872" lon="0.09554">
        <ele>265</ele>
        <time>2020-05-22T09:06:16Z</time>
      </trkpt>
      <trkpt lat="43.29871" lon="0.09559">
        <ele>265</ele>
        <time>2020-05-22T09:06:19Z</time>
      </trkpt>
      <trkpt lat="43.29871" lon="0.09571">
        <ele>265</ele>
        <time>2020-05-22T09:06:25Z</time>
      </trkpt>
      <trkpt lat="43.29869" lon="0.09588">
        <ele>265</ele>
        <time>2020-05-22T09:06:34Z</time>
      </trkpt>
      <trkpt lat="43.29869" lon="0.09616">
        <ele>265</ele>
        <time>2020-05-22T09:06:49Z</time>
      </trkpt>
      <trkpt lat="43.29865" lon="0.09618">
        <ele>266</ele>
        <time>2020-05-22T09:06:58Z</time>
      </trkpt>
      <trkpt lat="43.29866" lon="0.09624">
        <ele>266</ele>
        <time>2020-05-22T09:07:04Z</time>
      </trkpt>
      <trkpt lat="43.29867" lon="0.09629">
        <ele>266</ele>
        <time>2020-05-22T09:07:07Z</time>
      </trkpt>
      <trkpt lat="43.29864" lon="0.0965">
        <ele>266</ele>
        <time>2020-05-22T09:07:21Z</time>
      </trkpt>
      <trkpt lat="43.29862" lon="0.09661">
        <ele>266</ele>
        <time>2020-05-22T09:07:28Z</time>
      </trkpt>
      <trkpt lat="43.29863" lon="0.09673">
        <ele>266</ele>
        <time>2020-05-22T09:07:36Z</time>
      </trkpt>
      <trkpt lat="43.29862" lon="0.09679">
        <ele>266</ele>
        <time>2020-05-22T09:07:40Z</time>
      </trkpt>
      <trkpt lat="43.2986" lon="0.09708">
        <ele>266</ele>
        <time>2020-05-22T09:07:59Z</time>
      </trkpt>
      <trkpt lat="43.29859" lon="0.09719">
        <ele>266</ele>
        <time>2020-05-22T09:08:05Z</time>
      </trkpt>
      <trkpt lat="43.29853" lon="0.09779">
        <ele>266</ele>
        <time>2020-05-22T09:08:37Z</time>
      </trkpt>
      <trkpt lat="43.29851" lon="0.09797">
        <ele>266</ele>
        <time>2020-05-22T09:08:47Z</time>
      </trkpt>
      <trkpt lat="43.29849" lon="0.09814">
        <ele>265</ele>
        <time>2020-05-22T09:08:56Z</time>
      </trkpt>
      <trkpt lat="43.29846" lon="0.09861">
        <ele>265</ele>
        <time>2020-05-22T09:09:23Z</time>
      </trkpt>
      <trkpt lat="43.29845" lon="0.09867">
        <ele>265</ele>
        <time>2020-05-22T09:09:26Z</time>
      </trkpt>
      <trkpt lat="43.29844" lon="0.09879">
        <ele>265</ele>
        <time>2020-05-22T09:09:32Z</time>
      </trkpt>
      <trkpt lat="43.29841" lon="0.09899">
        <ele>266</ele>
        <time>2020-05-22T09:09:42Z</time>
      </trkpt>
      <trkpt lat="43.29839" lon="0.09912">
        <ele>266</ele>
        <time>2020-05-22T09:09:50Z</time>
      </trkpt>
      <trkpt lat="43.29834" lon="0.09971">
        <ele>265</ele>
        <time>2020-05-22T09:10:23Z</time>
      </trkpt>
      <trkpt lat="43.29832" lon="0.09977">
        <ele>265</ele>
        <time>2020-05-22T09:10:26Z</time>
      </trkpt>
      <trkpt lat="43.2983" lon="0.10016">
        <ele>265</ele>
        <time>2020-05-22T09:10:47Z</time>
      </trkpt>
      <trkpt lat="43.29828" lon="0.10023">
        <ele>265</ele>
        <time>2020-05-22T09:10:51Z</time>
      </trkpt>
      <trkpt lat="43.29825" lon="0.10065">
        <ele>265</ele>
        <time>2020-05-22T09:11:15Z</time>
      </trkpt>
      <trkpt lat="43.29823" lon="0.10071">
        <ele>265</ele>
        <time>2020-05-22T09:11:18Z</time>
      </trkpt>
      <trkpt lat="43.29819" lon="0.10112">
        <ele>266</ele>
        <time>2020-05-22T09:11:40Z</time>
      </trkpt>
      <trkpt lat="43.2982" lon="0.10117">
        <ele>266</ele>
        <time>2020-05-22T09:11:43Z</time>
      </trkpt>
      <trkpt lat="43.29813" lon="0.10175">
        <ele>266</ele>
        <time>2020-05-22T09:12:15Z</time>
      </trkpt>
      <trkpt lat="43.29807" lon="0.10234">
        <ele>266</ele>
        <time>2020-05-22T09:12:47Z</time>
      </trkpt>
      <trkpt lat="43.29806" lon="0.10247">
        <ele>266</ele>
        <time>2020-05-22T09:12:55Z</time>
      </trkpt>
      <trkpt lat="43.29804" lon="0.10254">
        <ele>266</ele>
        <time>2020-05-22T09:13:03Z</time>
      </trkpt>
      <trkpt lat="43.29804" lon="0.1028">
        <ele>266</ele>
        <time>2020-05-22T09:13:18Z</time>
      </trkpt>
      <trkpt lat="43.29802" lon="0.10292">
        <ele>266</ele>
        <time>2020-05-22T09:13:24Z</time>
      </trkpt>
      <trkpt lat="43.29798" lon="0.1035">
        <ele>266</ele>
        <time>2020-05-22T09:13:57Z</time>
      </trkpt>
      <trkpt lat="43.29795" lon="0.10374">
        <ele>266</ele>
        <time>2020-05-22T09:14:11Z</time>
      </trkpt>
      <trkpt lat="43.29795" lon="0.1038">
        <ele>266</ele>
        <time>2020-05-22T09:14:14Z</time>
      </trkpt>
      <trkpt lat="43.29792" lon="0.10411">
        <ele>266</ele>
        <time>2020-05-22T09:14:32Z</time>
      </trkpt>
      <trkpt lat="43.2979" lon="0.10418">
        <ele>266</ele>
        <time>2020-05-22T09:14:36Z</time>
      </trkpt>
      <trkpt lat="43.29786" lon="0.10452">
        <ele>266</ele>
        <time>2020-05-22T09:14:54Z</time>
      </trkpt>
      <trkpt lat="43.29785" lon="0.10458">
        <ele>266</ele>
        <time>2020-05-22T09:14:57Z</time>
      </trkpt>
      <trkpt lat="43.29784" lon="0.10465">
        <ele>267</ele>
        <time>2020-05-22T09:15:01Z</time>
      </trkpt>
      <trkpt lat="43.29782" lon="0.1047">
        <ele>267</ele>
        <time>2020-05-22T09:15:06Z</time>
      </trkpt>
      <trkpt lat="43.29781" lon="0.10478">
        <ele>267</ele>
        <time>2020-05-22T09:15:13Z</time>
      </trkpt>
      <trkpt lat="43.29778" lon="0.10485">
        <ele>267</ele>
        <time>2020-05-22T09:15:18Z</time>
      </trkpt>
      <trkpt lat="43.29772" lon="0.10494">
        <ele>267</ele>
        <time>2020-05-22T09:15:50Z</time>
      </trkpt>
      <trkpt lat="43.29767" lon="0.105">
        <ele>267</ele>
        <time>2020-05-22T09:15:55Z</time>
      </trkpt>
      <trkpt lat="43.29747" lon="0.10543">
        <ele>266</ele>
        <time>2020-05-22T09:16:26Z</time>
      </trkpt>
      <trkpt lat="43.29727" lon="0.10588">
        <ele>266</ele>
        <time>2020-05-22T09:16:57Z</time>
      </trkpt>
      <trkpt lat="43.29723" lon="0.10594">
        <ele>266</ele>
        <time>2020-05-22T09:17:01Z</time>
      </trkpt>
      <trkpt lat="43.29721" lon="0.10601">
        <ele>266</ele>
        <time>2020-05-22T09:17:05Z</time>
      </trkpt>
      <trkpt lat="43.29706" lon="0.10632">
        <ele>266</ele>
        <time>2020-05-22T09:17:25Z</time>
      </trkpt>
      <trkpt lat="43.29702" lon="0.10643">
        <ele>266</ele>
        <time>2020-05-22T09:17:32Z</time>
      </trkpt>
      <trkpt lat="43.29699" lon="0.1066">
        <ele>266</ele>
        <time>2020-05-22T09:17:41Z</time>
      </trkpt>
      <trkpt lat="43.29697" lon="0.10665">
        <ele>266</ele>
        <time>2020-05-22T09:17:44Z</time>
      </trkpt>
      <trkpt lat="43.29696" lon="0.10671">
        <ele>266</ele>
        <time>2020-05-22T09:17:48Z</time>
      </trkpt>
      <trkpt lat="43.29692" lon="0.1068">
        <ele>266</ele>
        <time>2020-05-22T09:17:55Z</time>
      </trkpt>
      <trkpt lat="43.29695" lon="0.10683">
        <ele>266</ele>
        <time>2020-05-22T09:18:08Z</time>
      </trkpt>
      <trkpt lat="43.29688" lon="0.10683">
        <ele>266</ele>
        <time>2020-05-22T09:18:18Z</time>
      </trkpt>
      <trkpt lat="43.29682" lon="0.10684">
        <ele>266</ele>
        <time>2020-05-22T09:18:24Z</time>
      </trkpt>
      <trkpt lat="43.29677" lon="0.10683">
        <ele>266</ele>
        <time>2020-05-22T09:18:28Z</time>
      </trkpt>
      <trkpt lat="43.29668" lon="0.10679">
        <ele>266</ele>
        <time>2020-05-22T09:18:36Z</time>
      </trkpt>
      <trkpt lat="43.29626" lon="0.10668">
        <ele>266</ele>
        <time>2020-05-22T09:19:07Z</time>
      </trkpt>
      <trkpt lat="43.29622" lon="0.10666">
        <ele>266</ele>
        <time>2020-05-22T09:19:11Z</time>
      </trkpt>
      <trkpt lat="43.2958" lon="0.10657">
        <ele>266</ele>
        <time>2020-05-22T09:19:42Z</time>
      </trkpt>
      <trkpt lat="43.2956" lon="0.10651">
        <ele>267</ele>
        <time>2020-05-22T09:19:58Z</time>
      </trkpt>
      <trkpt lat="43.29552" lon="0.1065">
        <ele>266</ele>
        <time>2020-05-22T09:20:04Z</time>
      </trkpt>
      <trkpt lat="43.29548" lon="0.10649">
        <ele>266</ele>
        <time>2020-05-22T09:20:07Z</time>
      </trkpt>
      <trkpt lat="43.29544" lon="0.10648">
        <ele>266</ele>
        <time>2020-05-22T09:20:10Z</time>
      </trkpt>
      <trkpt lat="43.29505" lon="0.10636">
        <ele>267</ele>
        <time>2020-05-22T09:20:41Z</time>
      </trkpt>
      <trkpt lat="43.2947" lon="0.10627">
        <ele>267</ele>
        <time>2020-05-22T09:21:07Z</time>
      </trkpt>
      <trkpt lat="43.29457" lon="0.1063">
        <ele>267</ele>
        <time>2020-05-22T09:21:18Z</time>
      </trkpt>
      <trkpt lat="43.29453" lon="0.10641">
        <ele>267</ele>
        <time>2020-05-22T09:21:25Z</time>
      </trkpt>
      <trkpt lat="43.29442" lon="0.10692">
        <ele>268</ele>
        <time>2020-05-22T09:21:56Z</time>
      </trkpt>
      <trkpt lat="43.29429" lon="0.10748">
        <ele>268</ele>
        <time>2020-05-22T09:22:28Z</time>
      </trkpt>
      <trkpt lat="43.29419" lon="0.10796">
        <ele>268</ele>
        <time>2020-05-22T09:22:56Z</time>
      </trkpt>
      <trkpt lat="43.29417" lon="0.10819">
        <ele>268</ele>
        <time>2020-05-22T09:23:10Z</time>
      </trkpt>
      <trkpt lat="43.29416" lon="0.10825">
        <ele>268</ele>
        <time>2020-05-22T09:23:13Z</time>
      </trkpt>
      <trkpt lat="43.29413" lon="0.10852">
        <ele>268</ele>
        <time>2020-05-22T09:23:28Z</time>
      </trkpt>
      <trkpt lat="43.29413" lon="0.10857">
        <ele>268</ele>
        <time>2020-05-22T09:23:31Z</time>
      </trkpt>
      <trkpt lat="43.29411" lon="0.10867">
        <ele>268</ele>
        <time>2020-05-22T09:23:37Z</time>
      </trkpt>
      <trkpt lat="43.29407" lon="0.10919">
        <ele>268</ele>
        <time>2020-05-22T09:24:07Z</time>
      </trkpt>
      <trkpt lat="43.29405" lon="0.1093">
        <ele>268</ele>
        <time>2020-05-22T09:24:13Z</time>
      </trkpt>
      <trkpt lat="43.29404" lon="0.10942">
        <ele>268</ele>
        <time>2020-05-22T09:24:20Z</time>
      </trkpt>
      <trkpt lat="43.29402" lon="0.10948">
        <ele>269</ele>
        <time>2020-05-22T09:24:35Z</time>
      </trkpt>
      <trkpt lat="43.294" lon="0.10959">
        <ele>268</ele>
        <time>2020-05-22T09:24:41Z</time>
      </trkpt>
      <trkpt lat="43.29401" lon="0.10965">
        <ele>268</ele>
        <time>2020-05-22T09:24:45Z</time>
      </trkpt>
      <trkpt lat="43.29402" lon="0.10971">
        <ele>268</ele>
        <time>2020-05-22T09:24:48Z</time>
      </trkpt>
      <trkpt lat="43.29402" lon="0.10982">
        <ele>268</ele>
        <time>2020-05-22T09:24:55Z</time>
      </trkpt>
      <trkpt lat="43.294" lon="0.10997">
        <ele>268</ele>
        <time>2020-05-22T09:25:03Z</time>
      </trkpt>
      <trkpt lat="43.29401" lon="0.11037">
        <ele>268</ele>
        <time>2020-05-22T09:25:25Z</time>
      </trkpt>
      <trkpt lat="43.294" lon="0.11062">
        <ele>268</ele>
        <time>2020-05-22T09:25:39Z</time>
      </trkpt>
      <trkpt lat="43.294" lon="0.11102">
        <ele>268</ele>
        <time>2020-05-22T09:26:02Z</time>
      </trkpt>
      <trkpt lat="43.29399" lon="0.11109">
        <ele>268</ele>
        <time>2020-05-22T09:26:06Z</time>
      </trkpt>
      <trkpt lat="43.294" lon="0.11129">
        <ele>268</ele>
        <time>2020-05-22T09:26:17Z</time>
      </trkpt>
      <trkpt lat="43.29398" lon="0.11135">
        <ele>268</ele>
        <time>2020-05-22T09:26:21Z</time>
      </trkpt>
      <trkpt lat="43.29397" lon="0.11156">
        <ele>268</ele>
        <time>2020-05-22T09:26:39Z</time>
      </trkpt>
      <trkpt lat="43.29397" lon="0.11162">
        <ele>268</ele>
        <time>2020-05-22T09:26:43Z</time>
      </trkpt>
      <trkpt lat="43.29397" lon="0.11188">
        <ele>268</ele>
        <time>2020-05-22T09:26:59Z</time>
      </trkpt>
      <trkpt lat="43.294" lon="0.112">
        <ele>268</ele>
        <time>2020-05-22T09:27:06Z</time>
      </trkpt>
      <trkpt lat="43.29403" lon="0.11205">
        <ele>268</ele>
        <time>2020-05-22T09:27:09Z</time>
      </trkpt>
      <trkpt lat="43.29407" lon="0.11208">
        <ele>269</ele>
        <time>2020-05-22T09:27:13Z</time>
      </trkpt>
      <trkpt lat="43.29412" lon="0.11208">
        <ele>269</ele>
        <time>2020-05-22T09:27:18Z</time>
      </trkpt>
      <trkpt lat="43.29417" lon="0.11209">
        <ele>268</ele>
        <time>2020-05-22T09:27:22Z</time>
      </trkpt>
      <trkpt lat="43.29421" lon="0.11208">
        <ele>269</ele>
        <time>2020-05-22T09:27:25Z</time>
      </trkpt>
      <trkpt lat="43.29426" lon="0.11209">
        <ele>268</ele>
        <time>2020-05-22T09:27:29Z</time>
      </trkpt>
      <trkpt lat="43.29432" lon="0.11209">
        <ele>268</ele>
        <time>2020-05-22T09:27:35Z</time>
      </trkpt>
      <trkpt lat="43.29437" lon="0.11209">
        <ele>268</ele>
        <time>2020-05-22T09:27:38Z</time>
      </trkpt>
      <trkpt lat="43.29456" lon="0.11215">
        <ele>267</ele>
        <time>2020-05-22T09:27:52Z</time>
      </trkpt>
      <trkpt lat="43.2946" lon="0.11217">
        <ele>267</ele>
        <time>2020-05-22T09:27:55Z</time>
      </trkpt>
      <trkpt lat="43.29465" lon="0.11218">
        <ele>267</ele>
        <time>2020-05-22T09:27:58Z</time>
      </trkpt>
      <trkpt lat="43.29473" lon="0.11223">
        <ele>267</ele>
        <time>2020-05-22T09:28:06Z</time>
      </trkpt>
      <trkpt lat="43.29481" lon="0.11228">
        <ele>267</ele>
        <time>2020-05-22T09:28:12Z</time>
      </trkpt>
      <trkpt lat="43.2949" lon="0.11232">
        <ele>267</ele>
        <time>2020-05-22T09:28:19Z</time>
      </trkpt>
      <trkpt lat="43.29492" lon="0.11237">
        <ele>267</ele>
        <time>2020-05-22T09:28:23Z</time>
      </trkpt>
      <trkpt lat="43.29494" lon="0.11243">
        <ele>268</ele>
        <time>2020-05-22T09:28:26Z</time>
      </trkpt>
      <trkpt lat="43.29495" lon="0.1125">
        <ele>268</ele>
        <time>2020-05-22T09:28:30Z</time>
      </trkpt>
      <trkpt lat="43.29495" lon="0.1127">
        <ele>268</ele>
        <time>2020-05-22T09:28:41Z</time>
      </trkpt>
      <trkpt lat="43.29492" lon="0.11293">
        <ele>268</ele>
        <time>2020-05-22T09:28:54Z</time>
      </trkpt>
      <trkpt lat="43.29492" lon="0.113">
        <ele>268</ele>
        <time>2020-05-22T09:28:58Z</time>
      </trkpt>
      <trkpt lat="43.29491" lon="0.11306">
        <ele>268</ele>
        <time>2020-05-22T09:29:01Z</time>
      </trkpt>
      <trkpt lat="43.29491" lon="0.11319">
        <ele>268</ele>
        <time>2020-05-22T09:29:09Z</time>
      </trkpt>
      <trkpt lat="43.29492" lon="0.11326">
        <ele>268</ele>
        <time>2020-05-22T09:29:13Z</time>
      </trkpt>
      <trkpt lat="43.29491" lon="0.11333">
        <ele>268</ele>
        <time>2020-05-22T09:29:16Z</time>
      </trkpt>
      <trkpt lat="43.29489" lon="0.1134">
        <ele>268</ele>
        <time>2020-05-22T09:29:21Z</time>
      </trkpt>
      <trkpt lat="43.29489" lon="0.11354">
        <ele>268</ele>
        <time>2020-05-22T09:29:29Z</time>
      </trkpt>
      <trkpt lat="43.29484" lon="0.11372">
        <ele>268</ele>
        <time>2020-05-22T09:29:40Z</time>
      </trkpt>
      <trkpt lat="43.29483" lon="0.11385">
        <ele>268</ele>
        <time>2020-05-22T09:29:48Z</time>
      </trkpt>
      <trkpt lat="43.29477" lon="0.11386">
        <ele>268</ele>
        <time>2020-05-22T09:30:08Z</time>
      </trkpt>
      <trkpt lat="43.29479" lon="0.11388">
        <ele>267</ele>
        <time>2020-05-22T09:30:54Z</time>
      </trkpt>
      <trkpt lat="43.29485" lon="0.11393">
        <ele>267</ele>
        <time>2020-05-22T09:31:12Z</time>
      </trkpt>
      <trkpt lat="43.29489" lon="0.11397">
        <ele>267</ele>
        <time>2020-05-22T09:31:16Z</time>
      </trkpt>
      <trkpt lat="43.29501" lon="0.11402">
        <ele>267</ele>
        <time>2020-05-22T09:31:28Z</time>
      </trkpt>
      <trkpt lat="43.29503" lon="0.11407">
        <ele>267</ele>
        <time>2020-05-22T09:31:32Z</time>
      </trkpt>
      <trkpt lat="43.29509" lon="0.1141">
        <ele>267</ele>
        <time>2020-05-22T09:31:40Z</time>
      </trkpt>
      <trkpt lat="43.29513" lon="0.1141">
        <ele>267</ele>
        <time>2020-05-22T09:32:02Z</time>
      </trkpt>
      <trkpt lat="43.29516" lon="0.11414">
        <ele>267</ele>
        <time>2020-05-22T09:32:06Z</time>
      </trkpt>
      <trkpt lat="43.2951" lon="0.1142">
        <ele>267</ele>
        <time>2020-05-22T09:32:30Z</time>
      </trkpt>
      <trkpt lat="43.29506" lon="0.11423">
        <ele>267</ele>
        <time>2020-05-22T09:32:34Z</time>
      </trkpt>
      <trkpt lat="43.29504" lon="0.11428">
        <ele>267</ele>
        <time>2020-05-22T09:32:38Z</time>
      </trkpt>
      <trkpt lat="43.29503" lon="0.11433">
        <ele>267</ele>
        <time>2020-05-22T09:32:41Z</time>
      </trkpt>
      <trkpt lat="43.29503" lon="0.11439">
        <ele>267</ele>
        <time>2020-05-22T09:32:45Z</time>
      </trkpt>
      <trkpt lat="43.29498" lon="0.11455">
        <ele>267</ele>
        <time>2020-05-22T09:32:55Z</time>
      </trkpt>
      <trkpt lat="43.29498" lon="0.11463">
        <ele>267</ele>
        <time>2020-05-22T09:33:01Z</time>
      </trkpt>
      <trkpt lat="43.2949" lon="0.11508">
        <ele>267</ele>
        <time>2020-05-22T09:33:26Z</time>
      </trkpt>
      <trkpt lat="43.29489" lon="0.11512">
        <ele>267</ele>
        <time>2020-05-22T09:33:30Z</time>
      </trkpt>
      <trkpt lat="43.29489" lon="0.11528">
        <ele>267</ele>
        <time>2020-05-22T09:33:39Z</time>
      </trkpt>
      <trkpt lat="43.29488" lon="0.11532">
        <ele>267</ele>
        <time>2020-05-22T09:33:42Z</time>
      </trkpt>
      <trkpt lat="43.29489" lon="0.11537">
        <ele>267</ele>
        <time>2020-05-22T09:33:45Z</time>
      </trkpt>
      <trkpt lat="43.29488" lon="0.11543">
        <ele>267</ele>
        <time>2020-05-22T09:33:49Z</time>
      </trkpt>
      <trkpt lat="43.29484" lon="0.11554">
        <ele>267</ele>
        <time>2020-05-22T09:33:55Z</time>
      </trkpt>
      <trkpt lat="43.29481" lon="0.11556">
        <ele>268</ele>
        <time>2020-05-22T09:33:59Z</time>
      </trkpt>
      <trkpt lat="43.29482" lon="0.11561">
        <ele>267</ele>
        <time>2020-05-22T09:34:02Z</time>
      </trkpt>
      <trkpt lat="43.29473" lon="0.1159">
        <ele>267</ele>
        <time>2020-05-22T09:34:20Z</time>
      </trkpt>
      <trkpt lat="43.29467" lon="0.11625">
        <ele>266</ele>
        <time>2020-05-22T09:34:42Z</time>
      </trkpt>
      <trkpt lat="43.29466" lon="0.1163">
        <ele>267</ele>
        <time>2020-05-22T09:34:50Z</time>
      </trkpt>
      <trkpt lat="43.29462" lon="0.11664">
        <ele>266</ele>
        <time>2020-05-22T09:35:22Z</time>
      </trkpt>
      <trkpt lat="43.29458" lon="0.11688">
        <ele>266</ele>
        <time>2020-05-22T09:35:36Z</time>
      </trkpt>
      <trkpt lat="43.29457" lon="0.117">
        <ele>267</ele>
        <time>2020-05-22T09:35:43Z</time>
      </trkpt>
      <trkpt lat="43.29451" lon="0.11741">
        <ele>267</ele>
        <time>2020-05-22T09:36:06Z</time>
      </trkpt>
      <trkpt lat="43.2945" lon="0.11747">
        <ele>267</ele>
        <time>2020-05-22T09:36:09Z</time>
      </trkpt>
      <trkpt lat="43.29448" lon="0.11757">
        <ele>267</ele>
        <time>2020-05-22T09:36:15Z</time>
      </trkpt>
      <trkpt lat="43.2944" lon="0.11804">
        <ele>267</ele>
        <time>2020-05-22T09:36:43Z</time>
      </trkpt>
      <trkpt lat="43.29442" lon="0.11821">
        <ele>267</ele>
        <time>2020-05-22T09:36:53Z</time>
      </trkpt>
      <trkpt lat="43.29437" lon="0.1184">
        <ele>267</ele>
        <time>2020-05-22T09:37:11Z</time>
      </trkpt>
      <trkpt lat="43.29436" lon="0.11846">
        <ele>267</ele>
        <time>2020-05-22T09:37:14Z</time>
      </trkpt>
      <trkpt lat="43.29437" lon="0.11853">
        <ele>267</ele>
        <time>2020-05-22T09:37:18Z</time>
      </trkpt>
      <trkpt lat="43.29438" lon="0.11864">
        <ele>267</ele>
        <time>2020-05-22T09:37:38Z</time>
      </trkpt>
      <trkpt lat="43.2944" lon="0.1187">
        <ele>267</ele>
        <time>2020-05-22T09:37:42Z</time>
      </trkpt>
      <trkpt lat="43.29438" lon="0.11878">
        <ele>267</ele>
        <time>2020-05-22T09:37:47Z</time>
      </trkpt>
      <trkpt lat="43.29437" lon="0.11901">
        <ele>266</ele>
        <time>2020-05-22T09:38:02Z</time>
      </trkpt>
      <trkpt lat="43.29436" lon="0.1191">
        <ele>266</ele>
        <time>2020-05-22T09:38:08Z</time>
      </trkpt>
      <trkpt lat="43.29437" lon="0.11919">
        <ele>267</ele>
        <time>2020-05-22T09:38:14Z</time>
      </trkpt>
      <trkpt lat="43.29433" lon="0.11967">
        <ele>267</ele>
        <time>2020-05-22T09:38:40Z</time>
      </trkpt>
      <trkpt lat="43.29435" lon="0.11999">
        <ele>267</ele>
        <time>2020-05-22T09:38:59Z</time>
      </trkpt>
      <trkpt lat="43.29432" lon="0.12021">
        <ele>267</ele>
        <time>2020-05-22T09:39:11Z</time>
      </trkpt>
      <trkpt lat="43.2943" lon="0.12077">
        <ele>267</ele>
        <time>2020-05-22T09:39:42Z</time>
      </trkpt>
      <trkpt lat="43.29428" lon="0.12083">
        <ele>267</ele>
        <time>2020-05-22T09:39:46Z</time>
      </trkpt>
      <trkpt lat="43.29421" lon="0.12129">
        <ele>267</ele>
        <time>2020-05-22T09:40:18Z</time>
      </trkpt>
      <trkpt lat="43.29417" lon="0.12131">
        <ele>267</ele>
        <time>2020-05-22T09:40:22Z</time>
      </trkpt>
      <trkpt lat="43.29407" lon="0.12135">
        <ele>267</ele>
        <time>2020-05-22T09:40:31Z</time>
      </trkpt>
      <trkpt lat="43.29402" lon="0.12139">
        <ele>267</ele>
        <time>2020-05-22T09:40:46Z</time>
      </trkpt>
      <trkpt lat="43.29396" lon="0.12132">
        <ele>267</ele>
        <time>2020-05-22T09:40:58Z</time>
      </trkpt>
      <trkpt lat="43.29397" lon="0.12131">
        <ele>267</ele>
        <time>2020-05-22T09:41:52Z</time>
      </trkpt>
      <trkpt lat="43.29393" lon="0.12132">
        <ele>267</ele>
        <time>2020-05-22T09:42:46Z</time>
      </trkpt>
      <trkpt lat="43.29374" lon="0.12135">
        <ele>267</ele>
        <time>2020-05-22T09:43:07Z</time>
      </trkpt>
      <trkpt lat="43.29369" lon="0.12138">
        <ele>267</ele>
        <time>2020-05-22T09:43:12Z</time>
      </trkpt>
      <trkpt lat="43.29366" lon="0.12143">
        <ele>267</ele>
        <time>2020-05-22T09:43:16Z</time>
      </trkpt>
      <trkpt lat="43.29366" lon="0.12145">
        <ele>267</ele>
        <time>2020-05-22T09:49:48Z</time>
      </trkpt>
      <trkpt lat="43.29367" lon="0.1216">
        <ele>266</ele>
        <time>2020-05-22T09:49:59Z</time>
      </trkpt>
      <trkpt lat="43.29364" lon="0.12165">
        <ele>266</ele>
        <time>2020-05-22T09:50:04Z</time>
      </trkpt>
      <trkpt lat="43.29359" lon="0.12168">
        <ele>266</ele>
        <time>2020-05-22T09:50:08Z</time>
      </trkpt>
      <trkpt lat="43.29336" lon="0.1217">
        <ele>267</ele>
        <time>2020-05-22T09:50:51Z</time>
      </trkpt>
      <trkpt lat="43.29301" lon="0.12175">
        <ele>267</ele>
        <time>2020-05-22T09:51:18Z</time>
      </trkpt>
      <trkpt lat="43.29296" lon="0.1218">
        <ele>267</ele>
        <time>2020-05-22T09:51:21Z</time>
      </trkpt>
      <trkpt lat="43.29291" lon="0.12181">
        <ele>267</ele>
        <time>2020-05-22T09:51:27Z</time>
      </trkpt>
      <trkpt lat="43.29287" lon="0.12182">
        <ele>267</ele>
        <time>2020-05-22T09:51:30Z</time>
      </trkpt>
      <trkpt lat="43.29275" lon="0.12186">
        <ele>267</ele>
        <time>2020-05-22T09:51:39Z</time>
      </trkpt>
      <trkpt lat="43.29266" lon="0.12185">
        <ele>267</ele>
        <time>2020-05-22T09:51:45Z</time>
      </trkpt>
      <trkpt lat="43.29258" lon="0.12182">
        <ele>267</ele>
        <time>2020-05-22T09:51:52Z</time>
      </trkpt>
      <trkpt lat="43.2925" lon="0.12183">
        <ele>267</ele>
        <time>2020-05-22T09:51:59Z</time>
      </trkpt>
      <trkpt lat="43.29242" lon="0.12186">
        <ele>267</ele>
        <time>2020-05-22T09:52:05Z</time>
      </trkpt>
      <trkpt lat="43.29224" lon="0.12184">
        <ele>267</ele>
        <time>2020-05-22T09:52:17Z</time>
      </trkpt>
      <trkpt lat="43.29215" lon="0.12185">
        <ele>267</ele>
        <time>2020-05-22T09:52:25Z</time>
      </trkpt>
      <trkpt lat="43.29175" lon="0.12182">
        <ele>268</ele>
        <time>2020-05-22T09:52:55Z</time>
      </trkpt>
      <trkpt lat="43.2917" lon="0.12183">
        <ele>268</ele>
        <time>2020-05-22T09:52:59Z</time>
      </trkpt>
      <trkpt lat="43.29155" lon="0.12182">
        <ele>268</ele>
        <time>2020-05-22T09:53:08Z</time>
      </trkpt>
      <trkpt lat="43.29138" lon="0.12186">
        <ele>268</ele>
        <time>2020-05-22T09:53:22Z</time>
      </trkpt>
      <trkpt lat="43.29129" lon="0.12191">
        <ele>268</ele>
        <time>2020-05-22T09:53:30Z</time>
      </trkpt>
      <trkpt lat="43.29125" lon="0.12192">
        <ele>268</ele>
        <time>2020-05-22T09:53:34Z</time>
      </trkpt>
      <trkpt lat="43.29117" lon="0.12197">
        <ele>268</ele>
        <time>2020-05-22T09:53:41Z</time>
      </trkpt>
      <trkpt lat="43.29113" lon="0.12199">
        <ele>268</ele>
        <time>2020-05-22T09:53:44Z</time>
      </trkpt>
      <trkpt lat="43.29104" lon="0.12205">
        <ele>268</ele>
        <time>2020-05-22T09:53:50Z</time>
      </trkpt>
      <trkpt lat="43.29092" lon="0.12209">
        <ele>268</ele>
        <time>2020-05-22T09:53:59Z</time>
      </trkpt>
      <trkpt lat="43.29088" lon="0.12212">
        <ele>268</ele>
        <time>2020-05-22T09:54:03Z</time>
      </trkpt>
      <trkpt lat="43.29075" lon="0.12215">
        <ele>269</ele>
        <time>2020-05-22T09:54:12Z</time>
      </trkpt>
      <trkpt lat="43.29058" lon="0.12216">
        <ele>269</ele>
        <time>2020-05-22T09:54:26Z</time>
      </trkpt>
      <trkpt lat="43.29028" lon="0.12222">
        <ele>269</ele>
        <time>2020-05-22T09:54:48Z</time>
      </trkpt>
      <trkpt lat="43.29024" lon="0.12222">
        <ele>269</ele>
        <time>2020-05-22T09:54:51Z</time>
      </trkpt>
      <trkpt lat="43.28994" lon="0.12224">
        <ele>269</ele>
        <time>2020-05-22T09:55:14Z</time>
      </trkpt>
      <trkpt lat="43.28978" lon="0.12229">
        <ele>269</ele>
        <time>2020-05-22T09:55:26Z</time>
      </trkpt>
      <trkpt lat="43.28937" lon="0.12238">
        <ele>270</ele>
        <time>2020-05-22T09:55:59Z</time>
      </trkpt>
      <trkpt lat="43.28893" lon="0.12245">
        <ele>270</ele>
        <time>2020-05-22T09:56:33Z</time>
      </trkpt>
      <trkpt lat="43.28888" lon="0.12245">
        <ele>270</ele>
        <time>2020-05-22T09:56:36Z</time>
      </trkpt>
      <trkpt lat="43.28885" lon="0.12247">
        <ele>270</ele>
        <time>2020-05-22T09:56:39Z</time>
      </trkpt>
      <trkpt lat="43.2888" lon="0.12247">
        <ele>270</ele>
        <time>2020-05-22T09:56:42Z</time>
      </trkpt>
      <trkpt lat="43.28868" lon="0.12251">
        <ele>270</ele>
        <time>2020-05-22T09:56:51Z</time>
      </trkpt>
      <trkpt lat="43.2886" lon="0.12249">
        <ele>271</ele>
        <time>2020-05-22T09:56:58Z</time>
      </trkpt>
      <trkpt lat="43.28856" lon="0.1225">
        <ele>270</ele>
        <time>2020-05-22T09:57:01Z</time>
      </trkpt>
      <trkpt lat="43.28852" lon="0.12251">
        <ele>271</ele>
        <time>2020-05-22T09:57:05Z</time>
      </trkpt>
      <trkpt lat="43.28847" lon="0.12251">
        <ele>271</ele>
        <time>2020-05-22T09:57:08Z</time>
      </trkpt>
      <trkpt lat="43.28843" lon="0.1225">
        <ele>271</ele>
        <time>2020-05-22T09:57:12Z</time>
      </trkpt>
      <trkpt lat="43.2883" lon="0.12248">
        <ele>271</ele>
        <time>2020-05-22T09:57:21Z</time>
      </trkpt>
      <trkpt lat="43.28826" lon="0.12244">
        <ele>271</ele>
        <time>2020-05-22T09:57:24Z</time>
      </trkpt>
      <trkpt lat="43.28823" lon="0.12243">
        <ele>271</ele>
        <time>2020-05-22T09:57:27Z</time>
      </trkpt>
      <trkpt lat="43.28815" lon="0.12243">
        <ele>271</ele>
        <time>2020-05-22T09:57:34Z</time>
      </trkpt>
      <trkpt lat="43.28812" lon="0.1224">
        <ele>271</ele>
        <time>2020-05-22T09:57:43Z</time>
      </trkpt>
      <trkpt lat="43.28808" lon="0.12242">
        <ele>271</ele>
        <time>2020-05-22T09:57:49Z</time>
      </trkpt>
      <trkpt lat="43.28803" lon="0.12241">
        <ele>271</ele>
        <time>2020-05-22T09:57:52Z</time>
      </trkpt>
      <trkpt lat="43.28764" lon="0.12227">
        <ele>271</ele>
        <time>2020-05-22T09:58:23Z</time>
      </trkpt>
      <trkpt lat="43.28758" lon="0.12221">
        <ele>271</ele>
        <time>2020-05-22T09:58:30Z</time>
      </trkpt>
      <trkpt lat="43.28723" lon="0.12209">
        <ele>272</ele>
        <time>2020-05-22T09:58:59Z</time>
      </trkpt>
      <trkpt lat="43.28717" lon="0.12208">
        <ele>272</ele>
        <time>2020-05-22T09:59:03Z</time>
      </trkpt>
      <trkpt lat="43.28704" lon="0.12203">
        <ele>272</ele>
        <time>2020-05-22T09:59:13Z</time>
      </trkpt>
      <trkpt lat="43.28695" lon="0.12202">
        <ele>271</ele>
        <time>2020-05-22T09:59:20Z</time>
      </trkpt>
      <trkpt lat="43.28692" lon="0.122">
        <ele>271</ele>
        <time>2020-05-22T09:59:23Z</time>
      </trkpt>
      <trkpt lat="43.28689" lon="0.12196">
        <ele>272</ele>
        <time>2020-05-22T09:59:43Z</time>
      </trkpt>
      <trkpt lat="43.28681" lon="0.12195">
        <ele>271</ele>
        <time>2020-05-22T09:59:51Z</time>
      </trkpt>
      <trkpt lat="43.28676" lon="0.12193">
        <ele>271</ele>
        <time>2020-05-22T09:59:55Z</time>
      </trkpt>
      <trkpt lat="43.28669" lon="0.12192">
        <ele>271</ele>
        <time>2020-05-22T10:00:05Z</time>
      </trkpt>
      <trkpt lat="43.28664" lon="0.12193">
        <ele>271</ele>
        <time>2020-05-22T10:00:09Z</time>
      </trkpt>
      <trkpt lat="43.28642" lon="0.12187">
        <ele>271</ele>
        <time>2020-05-22T10:00:27Z</time>
      </trkpt>
      <trkpt lat="43.28633" lon="0.12183">
        <ele>271</ele>
        <time>2020-05-22T10:00:35Z</time>
      </trkpt>
      <trkpt lat="43.28588" lon="0.12175">
        <ele>272</ele>
        <time>2020-05-22T10:01:10Z</time>
      </trkpt>
      <trkpt lat="43.28578" lon="0.12175">
        <ele>272</ele>
        <time>2020-05-22T10:01:16Z</time>
      </trkpt>
      <trkpt lat="43.28537" lon="0.12166">
        <ele>273</ele>
        <time>2020-05-22T10:01:47Z</time>
      </trkpt>
      <trkpt lat="43.28496" lon="0.12151">
        <ele>273</ele>
        <time>2020-05-22T10:02:19Z</time>
      </trkpt>
      <trkpt lat="43.28488" lon="0.12147">
        <ele>274</ele>
        <time>2020-05-22T10:02:26Z</time>
      </trkpt>
      <trkpt lat="43.28483" lon="0.12146">
        <ele>273</ele>
        <time>2020-05-22T10:02:30Z</time>
      </trkpt>
      <trkpt lat="43.28479" lon="0.12143">
        <ele>273</ele>
        <time>2020-05-22T10:02:34Z</time>
      </trkpt>
      <trkpt lat="43.2844" lon="0.12129">
        <ele>274</ele>
        <time>2020-05-22T10:03:02Z</time>
      </trkpt>
      <trkpt lat="43.28434" lon="0.12124">
        <ele>274</ele>
        <time>2020-05-22T10:03:10Z</time>
      </trkpt>
      <trkpt lat="43.2843" lon="0.12122">
        <ele>274</ele>
        <time>2020-05-22T10:03:14Z</time>
      </trkpt>
      <trkpt lat="43.28422" lon="0.1212">
        <ele>274</ele>
        <time>2020-05-22T10:03:22Z</time>
      </trkpt>
      <trkpt lat="43.28418" lon="0.1212">
        <ele>275</ele>
        <time>2020-05-22T10:03:30Z</time>
      </trkpt>
      <trkpt lat="43.28412" lon="0.12122">
        <ele>275</ele>
        <time>2020-05-22T10:03:47Z</time>
      </trkpt>
      <trkpt lat="43.28408" lon="0.12124">
        <ele>275</ele>
        <time>2020-05-22T10:03:51Z</time>
      </trkpt>
      <trkpt lat="43.28403" lon="0.12123">
        <ele>274</ele>
        <time>2020-05-22T10:03:56Z</time>
      </trkpt>
      <trkpt lat="43.28398" lon="0.12122">
        <ele>274</ele>
        <time>2020-05-22T10:04:00Z</time>
      </trkpt>
      <trkpt lat="43.28393" lon="0.1212">
        <ele>274</ele>
        <time>2020-05-22T10:04:04Z</time>
      </trkpt>
      <trkpt lat="43.28382" lon="0.12118">
        <ele>274</ele>
        <time>2020-05-22T10:04:12Z</time>
      </trkpt>
      <trkpt lat="43.28337" lon="0.12114">
        <ele>274</ele>
        <time>2020-05-22T10:04:44Z</time>
      </trkpt>
      <trkpt lat="43.28317" lon="0.1211">
        <ele>274</ele>
        <time>2020-05-22T10:05:00Z</time>
      </trkpt>
      <trkpt lat="43.28312" lon="0.1211">
        <ele>274</ele>
        <time>2020-05-22T10:05:04Z</time>
      </trkpt>
      <trkpt lat="43.28307" lon="0.12108">
        <ele>274</ele>
        <time>2020-05-22T10:05:07Z</time>
      </trkpt>
      <trkpt lat="43.28297" lon="0.12107">
        <ele>274</ele>
        <time>2020-05-22T10:05:15Z</time>
      </trkpt>
      <trkpt lat="43.28293" lon="0.12105">
        <ele>275</ele>
        <time>2020-05-22T10:05:19Z</time>
      </trkpt>
      <trkpt lat="43.28288" lon="0.12106">
        <ele>275</ele>
        <time>2020-05-22T10:05:23Z</time>
      </trkpt>
      <trkpt lat="43.28279" lon="0.12105">
        <ele>275</ele>
        <time>2020-05-22T10:05:29Z</time>
      </trkpt>
      <trkpt lat="43.28269" lon="0.12105">
        <ele>275</ele>
        <time>2020-05-22T10:05:36Z</time>
      </trkpt>
      <trkpt lat="43.28265" lon="0.12105">
        <ele>275</ele>
        <time>2020-05-22T10:05:40Z</time>
      </trkpt>
      <trkpt lat="43.28259" lon="0.12104">
        <ele>275</ele>
        <time>2020-05-22T10:05:44Z</time>
      </trkpt>
      <trkpt lat="43.28249" lon="0.12106">
        <ele>275</ele>
        <time>2020-05-22T10:05:52Z</time>
      </trkpt>
      <trkpt lat="43.28238" lon="0.12104">
        <ele>275</ele>
        <time>2020-05-22T10:05:59Z</time>
      </trkpt>
      <trkpt lat="43.28234" lon="0.12103">
        <ele>275</ele>
        <time>2020-05-22T10:06:03Z</time>
      </trkpt>
      <trkpt lat="43.28229" lon="0.12105">
        <ele>275</ele>
        <time>2020-05-22T10:06:08Z</time>
      </trkpt>
      <trkpt lat="43.28226" lon="0.12107">
        <ele>275</ele>
        <time>2020-05-22T10:06:22Z</time>
      </trkpt>
      <trkpt lat="43.28225" lon="0.12098">
        <ele>275</ele>
        <time>2020-05-22T10:06:34Z</time>
      </trkpt>
      <trkpt lat="43.2822" lon="0.12095">
        <ele>275</ele>
        <time>2020-05-22T10:06:38Z</time>
      </trkpt>
      <trkpt lat="43.28213" lon="0.12094">
        <ele>275</ele>
        <time>2020-05-22T10:06:48Z</time>
      </trkpt>
      <trkpt lat="43.28209" lon="0.12087">
        <ele>275</ele>
        <time>2020-05-22T10:06:54Z</time>
      </trkpt>
      <trkpt lat="43.28195" lon="0.12072">
        <ele>275</ele>
        <time>2020-05-22T10:07:06Z</time>
      </trkpt>
      <trkpt lat="43.28172" lon="0.12057">
        <ele>276</ele>
        <time>2020-05-22T10:07:27Z</time>
      </trkpt>
      <trkpt lat="43.2815" lon="0.12035">
        <ele>276</ele>
        <time>2020-05-22T10:07:47Z</time>
      </trkpt>
      <trkpt lat="43.28138" lon="0.12027">
        <ele>276</ele>
        <time>2020-05-22T10:07:57Z</time>
      </trkpt>
      <trkpt lat="43.28131" lon="0.12021">
        <ele>276</ele>
        <time>2020-05-22T10:08:03Z</time>
      </trkpt>
      <trkpt lat="43.28112" lon="0.12012">
        <ele>277</ele>
        <time>2020-05-22T10:08:18Z</time>
      </trkpt>
      <trkpt lat="43.28109" lon="0.12009">
        <ele>277</ele>
        <time>2020-05-22T10:08:21Z</time>
      </trkpt>
      <trkpt lat="43.28105" lon="0.12009">
        <ele>277</ele>
        <time>2020-05-22T10:08:24Z</time>
      </trkpt>
      <trkpt lat="43.28093" lon="0.12">
        <ele>277</ele>
        <time>2020-05-22T10:08:35Z</time>
      </trkpt>
      <trkpt lat="43.2809" lon="0.11996">
        <ele>276</ele>
        <time>2020-05-22T10:08:38Z</time>
      </trkpt>
      <trkpt lat="43.28078" lon="0.1199">
        <ele>277</ele>
        <time>2020-05-22T10:08:48Z</time>
      </trkpt>
      <trkpt lat="43.28074" lon="0.1199">
        <ele>277</ele>
        <time>2020-05-22T10:08:51Z</time>
      </trkpt>
      <trkpt lat="43.2806" lon="0.11982">
        <ele>276</ele>
        <time>2020-05-22T10:09:01Z</time>
      </trkpt>
      <trkpt lat="43.28057" lon="0.11979">
        <ele>276</ele>
        <time>2020-05-22T10:09:05Z</time>
      </trkpt>
      <trkpt lat="43.2805" lon="0.11974">
        <ele>276</ele>
        <time>2020-05-22T10:09:18Z</time>
      </trkpt>
      <trkpt lat="43.28046" lon="0.11971">
        <ele>276</ele>
        <time>2020-05-22T10:09:22Z</time>
      </trkpt>
      <trkpt lat="43.28042" lon="0.11967">
        <ele>276</ele>
        <time>2020-05-22T10:09:26Z</time>
      </trkpt>
      <trkpt lat="43.28037" lon="0.11958">
        <ele>276</ele>
        <time>2020-05-22T10:09:34Z</time>
      </trkpt>
      <trkpt lat="43.28023" lon="0.11941">
        <ele>277</ele>
        <time>2020-05-22T10:09:49Z</time>
      </trkpt>
      <trkpt lat="43.28019" lon="0.11937">
        <ele>277</ele>
        <time>2020-05-22T10:09:52Z</time>
      </trkpt>
      <trkpt lat="43.28014" lon="0.11933">
        <ele>276</ele>
        <time>2020-05-22T10:09:55Z</time>
      </trkpt>
      <trkpt lat="43.28011" lon="0.1193">
        <ele>277</ele>
        <time>2020-05-22T10:09:58Z</time>
      </trkpt>
      <trkpt lat="43.28008" lon="0.11926">
        <ele>276</ele>
        <time>2020-05-22T10:10:03Z</time>
      </trkpt>
      <trkpt lat="43.2798" lon="0.11895">
        <ele>278</ele>
        <time>2020-05-22T10:10:30Z</time>
      </trkpt>
      <trkpt lat="43.27979" lon="0.11889">
        <ele>278</ele>
        <time>2020-05-22T10:10:33Z</time>
      </trkpt>
      <trkpt lat="43.27954" lon="0.11866">
        <ele>278</ele>
        <time>2020-05-22T10:10:54Z</time>
      </trkpt>
      <trkpt lat="43.27933" lon="0.11837">
        <ele>278</ele>
        <time>2020-05-22T10:11:26Z</time>
      </trkpt>
      <trkpt lat="43.27905" lon="0.11793">
        <ele>278</ele>
        <time>2020-05-22T10:11:56Z</time>
      </trkpt>
      <trkpt lat="43.27903" lon="0.11789">
        <ele>278</ele>
        <time>2020-05-22T10:11:59Z</time>
      </trkpt>
      <trkpt lat="43.27897" lon="0.1178">
        <ele>278</ele>
        <time>2020-05-22T10:12:06Z</time>
      </trkpt>
      <trkpt lat="43.27894" lon="0.11775">
        <ele>279</ele>
        <time>2020-05-22T10:12:10Z</time>
      </trkpt>
      <trkpt lat="43.27893" lon="0.11769">
        <ele>279</ele>
        <time>2020-05-22T10:12:13Z</time>
      </trkpt>
      <trkpt lat="43.2789" lon="0.11763">
        <ele>279</ele>
        <time>2020-05-22T10:12:17Z</time>
      </trkpt>
      <trkpt lat="43.27887" lon="0.11758">
        <ele>278</ele>
        <time>2020-05-22T10:12:21Z</time>
      </trkpt>
      <trkpt lat="43.27882" lon="0.11748">
        <ele>279</ele>
        <time>2020-05-22T10:12:28Z</time>
      </trkpt>
      <trkpt lat="43.2788" lon="0.11742">
        <ele>279</ele>
        <time>2020-05-22T10:12:31Z</time>
      </trkpt>
      <trkpt lat="43.27877" lon="0.11737">
        <ele>279</ele>
        <time>2020-05-22T10:12:35Z</time>
      </trkpt>
      <trkpt lat="43.27874" lon="0.11733">
        <ele>278</ele>
        <time>2020-05-22T10:12:39Z</time>
      </trkpt>
      <trkpt lat="43.27871" lon="0.11726">
        <ele>279</ele>
        <time>2020-05-22T10:12:43Z</time>
      </trkpt>
      <trkpt lat="43.27868" lon="0.11722">
        <ele>279</ele>
        <time>2020-05-22T10:12:46Z</time>
      </trkpt>
      <trkpt lat="43.27867" lon="0.11716">
        <ele>279</ele>
        <time>2020-05-22T10:12:50Z</time>
      </trkpt>
      <trkpt lat="43.27864" lon="0.11712">
        <ele>279</ele>
        <time>2020-05-22T10:12:53Z</time>
      </trkpt>
      <trkpt lat="43.27861" lon="0.117">
        <ele>279</ele>
        <time>2020-05-22T10:13:00Z</time>
      </trkpt>
      <trkpt lat="43.27845" lon="0.11686">
        <ele>279</ele>
        <time>2020-05-22T10:13:12Z</time>
      </trkpt>
      <trkpt lat="43.27842" lon="0.11682">
        <ele>279</ele>
        <time>2020-05-22T10:13:15Z</time>
      </trkpt>
      <trkpt lat="43.27839" lon="0.11676">
        <ele>279</ele>
        <time>2020-05-22T10:13:19Z</time>
      </trkpt>
      <trkpt lat="43.27833" lon="0.11665">
        <ele>279</ele>
        <time>2020-05-22T10:13:26Z</time>
      </trkpt>
      <trkpt lat="43.27831" lon="0.11661">
        <ele>279</ele>
        <time>2020-05-22T10:13:28Z</time>
      </trkpt>
      <trkpt lat="43.27825" lon="0.11652">
        <ele>280</ele>
        <time>2020-05-22T10:13:34Z</time>
      </trkpt>
      <trkpt lat="43.27822" lon="0.11648">
        <ele>279</ele>
        <time>2020-05-22T10:13:37Z</time>
      </trkpt>
      <trkpt lat="43.27819" lon="0.11644">
        <ele>279</ele>
        <time>2020-05-22T10:13:41Z</time>
      </trkpt>
      <trkpt lat="43.27816" lon="0.11636">
        <ele>280</ele>
        <time>2020-05-22T10:13:48Z</time>
      </trkpt>
      <trkpt lat="43.27806" lon="0.11621">
        <ele>280</ele>
        <time>2020-05-22T10:14:00Z</time>
      </trkpt>
      <trkpt lat="43.27804" lon="0.11614">
        <ele>280</ele>
        <time>2020-05-22T10:14:04Z</time>
      </trkpt>
      <trkpt lat="43.27801" lon="0.11608">
        <ele>279</ele>
        <time>2020-05-22T10:14:08Z</time>
      </trkpt>
      <trkpt lat="43.27797" lon="0.11598">
        <ele>280</ele>
        <time>2020-05-22T10:14:14Z</time>
      </trkpt>
      <trkpt lat="43.27793" lon="0.1158">
        <ele>280</ele>
        <time>2020-05-22T10:14:24Z</time>
      </trkpt>
      <trkpt lat="43.2779" lon="0.11574">
        <ele>280</ele>
        <time>2020-05-22T10:14:28Z</time>
      </trkpt>
      <trkpt lat="43.27779" lon="0.11547">
        <ele>280</ele>
        <time>2020-05-22T10:14:45Z</time>
      </trkpt>
      <trkpt lat="43.27778" lon="0.11541">
        <ele>280</ele>
        <time>2020-05-22T10:14:48Z</time>
      </trkpt>
      <trkpt lat="43.27768" lon="0.11519">
        <ele>280</ele>
        <time>2020-05-22T10:15:04Z</time>
      </trkpt>
      <trkpt lat="43.27762" lon="0.115">
        <ele>280</ele>
        <time>2020-05-22T10:15:15Z</time>
      </trkpt>
      <trkpt lat="43.27757" lon="0.11487">
        <ele>280</ele>
        <time>2020-05-22T10:15:23Z</time>
      </trkpt>
      <trkpt lat="43.27753" lon="0.11476">
        <ele>280</ele>
        <time>2020-05-22T10:15:30Z</time>
      </trkpt>
      <trkpt lat="43.27747" lon="0.11469">
        <ele>280</ele>
        <time>2020-05-22T10:15:37Z</time>
      </trkpt>
      <trkpt lat="43.27745" lon="0.11464">
        <ele>280</ele>
        <time>2020-05-22T10:15:40Z</time>
      </trkpt>
      <trkpt lat="43.2774" lon="0.11449">
        <ele>281</ele>
        <time>2020-05-22T10:15:49Z</time>
      </trkpt>
      <trkpt lat="43.27738" lon="0.11443">
        <ele>281</ele>
        <time>2020-05-22T10:15:53Z</time>
      </trkpt>
      <trkpt lat="43.27734" lon="0.11436">
        <ele>280</ele>
        <time>2020-05-22T10:15:58Z</time>
      </trkpt>
      <trkpt lat="43.27741" lon="0.11436">
        <ele>280</ele>
        <time>2020-05-22T10:16:21Z</time>
      </trkpt>
      <trkpt lat="43.27744" lon="0.1143">
        <ele>280</ele>
        <time>2020-05-22T10:16:25Z</time>
      </trkpt>
      <trkpt lat="43.27744" lon="0.11423">
        <ele>280</ele>
        <time>2020-05-22T10:16:29Z</time>
      </trkpt>
      <trkpt lat="43.27747" lon="0.1142">
        <ele>280</ele>
        <time>2020-05-22T10:16:32Z</time>
      </trkpt>
      <trkpt lat="43.27746" lon="0.11412">
        <ele>280</ele>
        <time>2020-05-22T10:17:10Z</time>
      </trkpt>
      <trkpt lat="43.27747" lon="0.11407">
        <ele>280</ele>
        <time>2020-05-22T10:17:13Z</time>
      </trkpt>
      <trkpt lat="43.27746" lon="0.11402">
        <ele>280</ele>
        <time>2020-05-22T10:17:16Z</time>
      </trkpt>
      <trkpt lat="43.27747" lon="0.11398">
        <ele>280</ele>
        <time>2020-05-22T10:17:19Z</time>
      </trkpt>
      <trkpt lat="43.27749" lon="0.11393">
        <ele>280</ele>
        <time>2020-05-22T10:17:22Z</time>
      </trkpt>
      <trkpt lat="43.2775" lon="0.11386">
        <ele>280</ele>
        <time>2020-05-22T10:17:25Z</time>
      </trkpt>
      <trkpt lat="43.2775" lon="0.1138">
        <ele>280</ele>
        <time>2020-05-22T10:17:29Z</time>
      </trkpt>
      <trkpt lat="43.27755" lon="0.11346">
        <ele>280</ele>
        <time>2020-05-22T10:17:48Z</time>
      </trkpt>
      <trkpt lat="43.27758" lon="0.11334">
        <ele>280</ele>
        <time>2020-05-22T10:17:55Z</time>
      </trkpt>
      <trkpt lat="43.2776" lon="0.11323">
        <ele>280</ele>
        <time>2020-05-22T10:18:01Z</time>
      </trkpt>
      <trkpt lat="43.27761" lon="0.11319">
        <ele>280</ele>
        <time>2020-05-22T10:18:04Z</time>
      </trkpt>
      <trkpt lat="43.27762" lon="0.11301">
        <ele>280</ele>
        <time>2020-05-22T10:18:15Z</time>
      </trkpt>
      <trkpt lat="43.27763" lon="0.11295">
        <ele>280</ele>
        <time>2020-05-22T10:18:19Z</time>
      </trkpt>
      <trkpt lat="43.27762" lon="0.11288">
        <ele>280</ele>
        <time>2020-05-22T10:18:24Z</time>
      </trkpt>
      <trkpt lat="43.27764" lon="0.11274">
        <ele>280</ele>
        <time>2020-05-22T10:18:30Z</time>
      </trkpt>
      <trkpt lat="43.27779" lon="0.11227">
        <ele>280</ele>
        <time>2020-05-22T10:18:57Z</time>
      </trkpt>
      <trkpt lat="43.27781" lon="0.11224">
        <ele>280</ele>
        <time>2020-05-22T10:19:01Z</time>
      </trkpt>
      <trkpt lat="43.27783" lon="0.11213">
        <ele>280</ele>
        <time>2020-05-22T10:19:07Z</time>
      </trkpt>
      <trkpt lat="43.27786" lon="0.112">
        <ele>279</ele>
        <time>2020-05-22T10:19:14Z</time>
      </trkpt>
      <trkpt lat="43.27795" lon="0.11181">
        <ele>280</ele>
        <time>2020-05-22T10:19:26Z</time>
      </trkpt>
      <trkpt lat="43.27796" lon="0.11176">
        <ele>280</ele>
        <time>2020-05-22T10:19:29Z</time>
      </trkpt>
      <trkpt lat="43.27798" lon="0.11171">
        <ele>280</ele>
        <time>2020-05-22T10:19:32Z</time>
      </trkpt>
      <trkpt lat="43.27802" lon="0.11166">
        <ele>280</ele>
        <time>2020-05-22T10:19:36Z</time>
      </trkpt>
      <trkpt lat="43.27804" lon="0.11162">
        <ele>280</ele>
        <time>2020-05-22T10:19:39Z</time>
      </trkpt>
      <trkpt lat="43.27806" lon="0.11157">
        <ele>280</ele>
        <time>2020-05-22T10:19:42Z</time>
      </trkpt>
      <trkpt lat="43.27815" lon="0.11134">
        <ele>280</ele>
        <time>2020-05-22T10:19:58Z</time>
      </trkpt>
      <trkpt lat="43.27817" lon="0.11128">
        <ele>280</ele>
        <time>2020-05-22T10:20:02Z</time>
      </trkpt>
      <trkpt lat="43.2782" lon="0.11123">
        <ele>280</ele>
        <time>2020-05-22T10:20:05Z</time>
      </trkpt>
      <trkpt lat="43.27821" lon="0.11113">
        <ele>279</ele>
        <time>2020-05-22T10:20:10Z</time>
      </trkpt>
      <trkpt lat="43.27821" lon="0.11108">
        <ele>279</ele>
        <time>2020-05-22T10:20:14Z</time>
      </trkpt>
      <trkpt lat="43.27824" lon="0.11101">
        <ele>280</ele>
        <time>2020-05-22T10:20:18Z</time>
      </trkpt>
      <trkpt lat="43.2783" lon="0.11091">
        <ele>279</ele>
        <time>2020-05-22T10:20:25Z</time>
      </trkpt>
      <trkpt lat="43.27832" lon="0.11086">
        <ele>280</ele>
        <time>2020-05-22T10:20:28Z</time>
      </trkpt>
      <trkpt lat="43.27835" lon="0.11079">
        <ele>280</ele>
        <time>2020-05-22T10:20:32Z</time>
      </trkpt>
      <trkpt lat="43.27838" lon="0.11049">
        <ele>280</ele>
        <time>2020-05-22T10:20:49Z</time>
      </trkpt>
      <trkpt lat="43.27842" lon="0.11032">
        <ele>280</ele>
        <time>2020-05-22T10:21:46Z</time>
      </trkpt>
      <trkpt lat="43.27844" lon="0.11019">
        <ele>280</ele>
        <time>2020-05-22T10:21:54Z</time>
      </trkpt>
      <trkpt lat="43.27848" lon="0.10996">
        <ele>280</ele>
        <time>2020-05-22T10:22:06Z</time>
      </trkpt>
      <trkpt lat="43.27848" lon="0.10991">
        <ele>280</ele>
        <time>2020-05-22T10:22:09Z</time>
      </trkpt>
      <trkpt lat="43.27851" lon="0.10975">
        <ele>280</ele>
        <time>2020-05-22T10:22:18Z</time>
      </trkpt>
      <trkpt lat="43.27857" lon="0.10935">
        <ele>280</ele>
        <time>2020-05-22T10:22:43Z</time>
      </trkpt>
      <trkpt lat="43.27855" lon="0.1093">
        <ele>280</ele>
        <time>2020-05-22T10:22:51Z</time>
      </trkpt>
      <trkpt lat="43.27856" lon="0.10907">
        <ele>281</ele>
        <time>2020-05-22T10:23:04Z</time>
      </trkpt>
      <trkpt lat="43.2786" lon="0.10904">
        <ele>280</ele>
        <time>2020-05-22T10:23:07Z</time>
      </trkpt>
      <trkpt lat="43.27863" lon="0.10902">
        <ele>280</ele>
        <time>2020-05-22T10:23:10Z</time>
      </trkpt>
      <trkpt lat="43.27866" lon="0.10897">
        <ele>280</ele>
        <time>2020-05-22T10:23:14Z</time>
      </trkpt>
      <trkpt lat="43.27867" lon="0.10891">
        <ele>280</ele>
        <time>2020-05-22T10:23:17Z</time>
      </trkpt>
      <trkpt lat="43.27869" lon="0.10885">
        <ele>280</ele>
        <time>2020-05-22T10:23:20Z</time>
      </trkpt>
      <trkpt lat="43.27872" lon="0.10868">
        <ele>280</ele>
        <time>2020-05-22T10:23:32Z</time>
      </trkpt>
      <trkpt lat="43.27872" lon="0.10861">
        <ele>280</ele>
        <time>2020-05-22T10:23:36Z</time>
      </trkpt>
      <trkpt lat="43.27871" lon="0.10855">
        <ele>280</ele>
        <time>2020-05-22T10:23:40Z</time>
      </trkpt>
      <trkpt lat="43.27871" lon="0.10848">
        <ele>280</ele>
        <time>2020-05-22T10:23:44Z</time>
      </trkpt>
      <trkpt lat="43.27873" lon="0.10842">
        <ele>280</ele>
        <time>2020-05-22T10:23:47Z</time>
      </trkpt>
      <trkpt lat="43.27875" lon="0.10838">
        <ele>280</ele>
        <time>2020-05-22T10:23:50Z</time>
      </trkpt>
      <trkpt lat="43.27876" lon="0.10833">
        <ele>280</ele>
        <time>2020-05-22T10:23:53Z</time>
      </trkpt>
      <trkpt lat="43.27875" lon="0.10827">
        <ele>281</ele>
        <time>2020-05-22T10:23:56Z</time>
      </trkpt>
      <trkpt lat="43.27875" lon="0.1082">
        <ele>280</ele>
        <time>2020-05-22T10:24:00Z</time>
      </trkpt>
      <trkpt lat="43.27873" lon="0.10795">
        <ele>280</ele>
        <time>2020-05-22T10:24:14Z</time>
      </trkpt>
      <trkpt lat="43.27874" lon="0.10788">
        <ele>280</ele>
        <time>2020-05-22T10:24:18Z</time>
      </trkpt>
      <trkpt lat="43.27873" lon="0.10782">
        <ele>280</ele>
        <time>2020-05-22T10:24:21Z</time>
      </trkpt>
      <trkpt lat="43.27872" lon="0.10776">
        <ele>280</ele>
        <time>2020-05-22T10:24:24Z</time>
      </trkpt>
      <trkpt lat="43.27869" lon="0.10772">
        <ele>280</ele>
        <time>2020-05-22T10:24:27Z</time>
      </trkpt>
      <trkpt lat="43.27866" lon="0.10768">
        <ele>280</ele>
        <time>2020-05-22T10:24:32Z</time>
      </trkpt>
      <trkpt lat="43.27865" lon="0.10756">
        <ele>280</ele>
        <time>2020-05-22T10:24:41Z</time>
      </trkpt>
      <trkpt lat="43.2786" lon="0.10749">
        <ele>280</ele>
        <time>2020-05-22T10:24:44Z</time>
      </trkpt>
      <trkpt lat="43.27857" lon="0.10746">
        <ele>280</ele>
        <time>2020-05-22T10:24:46Z</time>
      </trkpt>
      <trkpt lat="43.27854" lon="0.10734">
        <ele>280</ele>
        <time>2020-05-22T10:24:51Z</time>
      </trkpt>
      <trkpt lat="43.27853" lon="0.10728">
        <ele>280</ele>
        <time>2020-05-22T10:24:55Z</time>
      </trkpt>
      <trkpt lat="43.27855" lon="0.10721">
        <ele>280</ele>
        <time>2020-05-22T10:24:59Z</time>
      </trkpt>
      <trkpt lat="43.27858" lon="0.10716">
        <ele>280</ele>
        <time>2020-05-22T10:25:02Z</time>
      </trkpt>
      <trkpt lat="43.2786" lon="0.10709">
        <ele>280</ele>
        <time>2020-05-22T10:25:06Z</time>
      </trkpt>
      <trkpt lat="43.2786" lon="0.10701">
        <ele>280</ele>
        <time>2020-05-22T10:25:10Z</time>
      </trkpt>
      <trkpt lat="43.27857" lon="0.10648">
        <ele>280</ele>
        <time>2020-05-22T10:25:41Z</time>
      </trkpt>
      <trkpt lat="43.27858" lon="0.10635">
        <ele>280</ele>
        <time>2020-05-22T10:25:48Z</time>
      </trkpt>
      <trkpt lat="43.27857" lon="0.10623">
        <ele>280</ele>
        <time>2020-05-22T10:25:53Z</time>
      </trkpt>
      <trkpt lat="43.27853" lon="0.10611">
        <ele>280</ele>
        <time>2020-05-22T10:26:00Z</time>
      </trkpt>
      <trkpt lat="43.27857" lon="0.10594">
        <ele>281</ele>
        <time>2020-05-22T10:26:11Z</time>
      </trkpt>
      <trkpt lat="43.27858" lon="0.10588">
        <ele>280</ele>
        <time>2020-05-22T10:26:14Z</time>
      </trkpt>
      <trkpt lat="43.27861" lon="0.10568">
        <ele>280</ele>
        <time>2020-05-22T10:26:25Z</time>
      </trkpt>
      <trkpt lat="43.27856" lon="0.10555">
        <ele>280</ele>
        <time>2020-05-22T10:26:32Z</time>
      </trkpt>
      <trkpt lat="43.27851" lon="0.10546">
        <ele>280</ele>
        <time>2020-05-22T10:26:38Z</time>
      </trkpt>
      <trkpt lat="43.27833" lon="0.10537">
        <ele>280</ele>
        <time>2020-05-22T10:26:50Z</time>
      </trkpt>
      <trkpt lat="43.27812" lon="0.10534">
        <ele>280</ele>
        <time>2020-05-22T10:27:07Z</time>
      </trkpt>
      <trkpt lat="43.27808" lon="0.10536">
        <ele>280</ele>
        <time>2020-05-22T10:27:09Z</time>
      </trkpt>
      <trkpt lat="43.27803" lon="0.10535">
        <ele>280</ele>
        <time>2020-05-22T10:27:12Z</time>
      </trkpt>
      <trkpt lat="43.27802" lon="0.1053">
        <ele>280</ele>
        <time>2020-05-22T10:27:14Z</time>
      </trkpt>
      <trkpt lat="43.27788" lon="0.10486">
        <ele>280</ele>
        <time>2020-05-22T10:27:40Z</time>
      </trkpt>
      <trkpt lat="43.27782" lon="0.10426">
        <ele>280</ele>
        <time>2020-05-22T10:28:13Z</time>
      </trkpt>
      <trkpt lat="43.27779" lon="0.10396">
        <ele>280</ele>
        <time>2020-05-22T10:28:30Z</time>
      </trkpt>
      <trkpt lat="43.27777" lon="0.1039">
        <ele>281</ele>
        <time>2020-05-22T10:28:40Z</time>
      </trkpt>
      <trkpt lat="43.27776" lon="0.10382">
        <ele>281</ele>
        <time>2020-05-22T10:28:58Z</time>
      </trkpt>
      <trkpt lat="43.27774" lon="0.10368">
        <ele>281</ele>
        <time>2020-05-22T10:29:08Z</time>
      </trkpt>
      <trkpt lat="43.27772" lon="0.10343">
        <ele>281</ele>
        <time>2020-05-22T10:29:22Z</time>
      </trkpt>
      <trkpt lat="43.27764" lon="0.10307">
        <ele>281</ele>
        <time>2020-05-22T10:29:43Z</time>
      </trkpt>
      <trkpt lat="43.27763" lon="0.10294">
        <ele>281</ele>
        <time>2020-05-22T10:29:50Z</time>
      </trkpt>
      <trkpt lat="43.27757" lon="0.10277">
        <ele>281</ele>
        <time>2020-05-22T10:30:01Z</time>
      </trkpt>
      <trkpt lat="43.27754" lon="0.10272">
        <ele>281</ele>
        <time>2020-05-22T10:30:05Z</time>
      </trkpt>
      <trkpt lat="43.27749" lon="0.10255">
        <ele>281</ele>
        <time>2020-05-22T10:30:15Z</time>
      </trkpt>
      <trkpt lat="43.27747" lon="0.1025">
        <ele>281</ele>
        <time>2020-05-22T10:30:18Z</time>
      </trkpt>
      <trkpt lat="43.27742" lon="0.10241">
        <ele>281</ele>
        <time>2020-05-22T10:30:24Z</time>
      </trkpt>
      <trkpt lat="43.27741" lon="0.10235">
        <ele>281</ele>
        <time>2020-05-22T10:30:28Z</time>
      </trkpt>
      <trkpt lat="43.27725" lon="0.10196">
        <ele>281</ele>
        <time>2020-05-22T10:30:52Z</time>
      </trkpt>
      <trkpt lat="43.27724" lon="0.1019">
        <ele>282</ele>
        <time>2020-05-22T10:30:56Z</time>
      </trkpt>
      <trkpt lat="43.27718" lon="0.10179">
        <ele>280</ele>
        <time>2020-05-22T10:31:05Z</time>
      </trkpt>
      <trkpt lat="43.27711" lon="0.10144">
        <ele>281</ele>
        <time>2020-05-22T10:31:24Z</time>
      </trkpt>
      <trkpt lat="43.27709" lon="0.1012">
        <ele>281</ele>
        <time>2020-05-22T10:31:37Z</time>
      </trkpt>
      <trkpt lat="43.27708" lon="0.10064">
        <ele>281</ele>
        <time>2020-05-22T10:32:09Z</time>
      </trkpt>
      <trkpt lat="43.27708" lon="0.10042">
        <ele>281</ele>
        <time>2020-05-22T10:32:21Z</time>
      </trkpt>
      <trkpt lat="43.27708" lon="0.10036">
        <ele>281</ele>
        <time>2020-05-22T10:32:24Z</time>
      </trkpt>
      <trkpt lat="43.27707" lon="0.10019">
        <ele>281</ele>
        <time>2020-05-22T10:32:35Z</time>
      </trkpt>
      <trkpt lat="43.27708" lon="0.10007">
        <ele>281</ele>
        <time>2020-05-22T10:32:42Z</time>
      </trkpt>
      <trkpt lat="43.27708" lon="0.10001">
        <ele>281</ele>
        <time>2020-05-22T10:32:46Z</time>
      </trkpt>
      <trkpt lat="43.27707" lon="0.09979">
        <ele>281</ele>
        <time>2020-05-22T10:32:58Z</time>
      </trkpt>
      <trkpt lat="43.27707" lon="0.09968">
        <ele>281</ele>
        <time>2020-05-22T10:33:04Z</time>
      </trkpt>
      <trkpt lat="43.27708" lon="0.09962">
        <ele>281</ele>
        <time>2020-05-22T10:33:07Z</time>
      </trkpt>
      <trkpt lat="43.27708" lon="0.0995">
        <ele>281</ele>
        <time>2020-05-22T10:33:13Z</time>
      </trkpt>
      <trkpt lat="43.27709" lon="0.09933">
        <ele>281</ele>
        <time>2020-05-22T10:33:22Z</time>
      </trkpt>
      <trkpt lat="43.27708" lon="0.09928">
        <ele>281</ele>
        <time>2020-05-22T10:33:25Z</time>
      </trkpt>
      <trkpt lat="43.2771" lon="0.0989">
        <ele>281</ele>
        <time>2020-05-22T10:33:46Z</time>
      </trkpt>
      <trkpt lat="43.27709" lon="0.09873">
        <ele>281</ele>
        <time>2020-05-22T10:33:56Z</time>
      </trkpt>
      <trkpt lat="43.27709" lon="0.09868">
        <ele>281</ele>
        <time>2020-05-22T10:33:59Z</time>
      </trkpt>
      <trkpt lat="43.2771" lon="0.09856">
        <ele>281</ele>
        <time>2020-05-22T10:34:05Z</time>
      </trkpt>
      <trkpt lat="43.27712" lon="0.09846">
        <ele>281</ele>
        <time>2020-05-22T10:34:12Z</time>
      </trkpt>
      <trkpt lat="43.27712" lon="0.09835">
        <ele>281</ele>
        <time>2020-05-22T10:34:18Z</time>
      </trkpt>
      <trkpt lat="43.27711" lon="0.09823">
        <ele>281</ele>
        <time>2020-05-22T10:34:24Z</time>
      </trkpt>
      <trkpt lat="43.27712" lon="0.09818">
        <ele>281</ele>
        <time>2020-05-22T10:34:27Z</time>
      </trkpt>
      <trkpt lat="43.27712" lon="0.09812">
        <ele>281</ele>
        <time>2020-05-22T10:34:31Z</time>
      </trkpt>
      <trkpt lat="43.27712" lon="0.09799">
        <ele>281</ele>
        <time>2020-05-22T10:34:37Z</time>
      </trkpt>
      <trkpt lat="43.27713" lon="0.09782">
        <ele>281</ele>
        <time>2020-05-22T10:34:47Z</time>
      </trkpt>
      <trkpt lat="43.27713" lon="0.09764">
        <ele>280</ele>
        <time>2020-05-22T10:34:57Z</time>
      </trkpt>
      <trkpt lat="43.27713" lon="0.09751">
        <ele>281</ele>
        <time>2020-05-22T10:35:04Z</time>
      </trkpt>
      <trkpt lat="43.27711" lon="0.0974">
        <ele>281</ele>
        <time>2020-05-22T10:35:11Z</time>
      </trkpt>
      <trkpt lat="43.27712" lon="0.09734">
        <ele>281</ele>
        <time>2020-05-22T10:35:15Z</time>
      </trkpt>
      <trkpt lat="43.27712" lon="0.09728">
        <ele>281</ele>
        <time>2020-05-22T10:35:18Z</time>
      </trkpt>
      <trkpt lat="43.27712" lon="0.09722">
        <ele>281</ele>
        <time>2020-05-22T10:35:21Z</time>
      </trkpt>
      <trkpt lat="43.27713" lon="0.09717">
        <ele>281</ele>
        <time>2020-05-22T10:35:24Z</time>
      </trkpt>
      <trkpt lat="43.27713" lon="0.09712">
        <ele>281</ele>
        <time>2020-05-22T10:35:27Z</time>
      </trkpt>
      <trkpt lat="43.2771" lon="0.09696">
        <ele>280</ele>
        <time>2020-05-22T10:35:36Z</time>
      </trkpt>
      <trkpt lat="43.2771" lon="0.09645">
        <ele>280</ele>
        <time>2020-05-22T10:36:05Z</time>
      </trkpt>
      <trkpt lat="43.27711" lon="0.09638">
        <ele>280</ele>
        <time>2020-05-22T10:36:08Z</time>
      </trkpt>
      <trkpt lat="43.27711" lon="0.09634">
        <ele>280</ele>
        <time>2020-05-22T10:36:11Z</time>
      </trkpt>
      <trkpt lat="43.2771" lon="0.09629">
        <ele>280</ele>
        <time>2020-05-22T10:36:14Z</time>
      </trkpt>
      <trkpt lat="43.27711" lon="0.09586">
        <ele>280</ele>
        <time>2020-05-22T10:36:37Z</time>
      </trkpt>
      <trkpt lat="43.27712" lon="0.0958">
        <ele>280</ele>
        <time>2020-05-22T10:36:40Z</time>
      </trkpt>
      <trkpt lat="43.27712" lon="0.09575">
        <ele>280</ele>
        <time>2020-05-22T10:36:43Z</time>
      </trkpt>
      <trkpt lat="43.27712" lon="0.09569">
        <ele>280</ele>
        <time>2020-05-22T10:36:47Z</time>
      </trkpt>
      <trkpt lat="43.27712" lon="0.09541">
        <ele>279</ele>
        <time>2020-05-22T10:37:10Z</time>
      </trkpt>
      <trkpt lat="43.27716" lon="0.09532">
        <ele>280</ele>
        <time>2020-05-22T10:37:26Z</time>
      </trkpt>
      <trkpt lat="43.27716" lon="0.0952">
        <ele>280</ele>
        <time>2020-05-22T10:37:33Z</time>
      </trkpt>
      <trkpt lat="43.27715" lon="0.09496">
        <ele>280</ele>
        <time>2020-05-22T10:37:46Z</time>
      </trkpt>
      <trkpt lat="43.27717" lon="0.09484">
        <ele>280</ele>
        <time>2020-05-22T10:37:52Z</time>
      </trkpt>
      <trkpt lat="43.27716" lon="0.09479">
        <ele>280</ele>
        <time>2020-05-22T10:37:55Z</time>
      </trkpt>
      <trkpt lat="43.27717" lon="0.09473">
        <ele>280</ele>
        <time>2020-05-22T10:37:58Z</time>
      </trkpt>
      <trkpt lat="43.27716" lon="0.09449">
        <ele>280</ele>
        <time>2020-05-22T10:38:11Z</time>
      </trkpt>
      <trkpt lat="43.27714" lon="0.09444">
        <ele>280</ele>
        <time>2020-05-22T10:38:15Z</time>
      </trkpt>
      <trkpt lat="43.27714" lon="0.09439">
        <ele>280</ele>
        <time>2020-05-22T10:38:18Z</time>
      </trkpt>
      <trkpt lat="43.27715" lon="0.09433">
        <ele>280</ele>
        <time>2020-05-22T10:38:21Z</time>
      </trkpt>
      <trkpt lat="43.27715" lon="0.09406">
        <ele>280</ele>
        <time>2020-05-22T10:38:37Z</time>
      </trkpt>
      <trkpt lat="43.27714" lon="0.094">
        <ele>280</ele>
        <time>2020-05-22T10:38:40Z</time>
      </trkpt>
      <trkpt lat="43.27714" lon="0.09395">
        <ele>280</ele>
        <time>2020-05-22T10:38:43Z</time>
      </trkpt>
      <trkpt lat="43.27713" lon="0.09383">
        <ele>280</ele>
        <time>2020-05-22T10:38:49Z</time>
      </trkpt>
      <trkpt lat="43.27714" lon="0.09377">
        <ele>280</ele>
        <time>2020-05-22T10:38:52Z</time>
      </trkpt>
      <trkpt lat="43.27714" lon="0.09331">
        <ele>280</ele>
        <time>2020-05-22T10:39:23Z</time>
      </trkpt>
      <trkpt lat="43.27709" lon="0.09327">
        <ele>280</ele>
        <time>2020-05-22T10:39:26Z</time>
      </trkpt>
      <trkpt lat="43.27706" lon="0.09321">
        <ele>280</ele>
        <time>2020-05-22T10:39:30Z</time>
      </trkpt>
      <trkpt lat="43.27705" lon="0.09316">
        <ele>280</ele>
        <time>2020-05-22T10:39:34Z</time>
      </trkpt>
      <trkpt lat="43.27701" lon="0.09319">
        <ele>280</ele>
        <time>2020-05-22T10:39:38Z</time>
      </trkpt>
      <trkpt lat="43.27697" lon="0.09316">
        <ele>280</ele>
        <time>2020-05-22T10:39:42Z</time>
      </trkpt>
      <trkpt lat="43.27692" lon="0.09316">
        <ele>280</ele>
        <time>2020-05-22T10:39:46Z</time>
      </trkpt>
      <trkpt lat="43.27686" lon="0.09317">
        <ele>280</ele>
        <time>2020-05-22T10:39:50Z</time>
      </trkpt>
      <trkpt lat="43.27683" lon="0.09313">
        <ele>280</ele>
        <time>2020-05-22T10:39:54Z</time>
      </trkpt>
      <trkpt lat="43.27682" lon="0.09308">
        <ele>280</ele>
        <time>2020-05-22T10:43:34Z</time>
      </trkpt>
      <trkpt lat="43.27678" lon="0.09303">
        <ele>281</ele>
        <time>2020-05-22T10:44:04Z</time>
      </trkpt>
      <trkpt lat="43.27683" lon="0.09296">
        <ele>281</ele>
        <time>2020-05-22T10:45:40Z</time>
      </trkpt>
      <trkpt lat="43.27683" lon="0.09298">
        <ele>281</ele>
        <time>2020-05-22T10:46:40Z</time>
      </trkpt>
      <trkpt lat="43.2768" lon="0.09301">
        <ele>280</ele>
        <time>2020-05-22T10:49:03Z</time>
      </trkpt>
      <trkpt lat="43.2768" lon="0.09304">
        <ele>281</ele>
        <time>2020-05-22T10:50:09Z</time>
      </trkpt>
      <trkpt lat="43.27682" lon="0.09304">
        <ele>281</ele>
        <time>2020-05-22T10:55:25Z</time>
      </trkpt>
      <trkpt lat="43.27687" lon="0.09304">
        <ele>281</ele>
        <time>2020-05-22T10:55:29Z</time>
      </trkpt>
      <trkpt lat="43.27691" lon="0.09306">
        <ele>281</ele>
        <time>2020-05-22T10:55:32Z</time>
      </trkpt>
      <trkpt lat="43.27693" lon="0.09299">
        <ele>281</ele>
        <time>2020-05-22T10:55:40Z</time>
      </trkpt>
      <trkpt lat="43.27696" lon="0.09291">
        <ele>281</ele>
        <time>2020-05-22T10:55:51Z</time>
      </trkpt>
      <trkpt lat="43.27697" lon="0.09284">
        <ele>281</ele>
        <time>2020-05-22T10:55:54Z</time>
      </trkpt>
      <trkpt lat="43.27703" lon="0.09275">
        <ele>281</ele>
        <time>2020-05-22T10:56:01Z</time>
      </trkpt>
      <trkpt lat="43.27708" lon="0.09279">
        <ele>280</ele>
        <time>2020-05-22T10:56:05Z</time>
      </trkpt>
      <trkpt lat="43.27702" lon="0.09281">
        <ele>280</ele>
        <time>2020-05-22T10:56:41Z</time>
      </trkpt>
      <trkpt lat="43.27703" lon="0.09282">
        <ele>280</ele>
        <time>2020-05-22T10:57:33Z</time>
      </trkpt>
      <trkpt lat="43.27707" lon="0.09272">
        <ele>280</ele>
        <time>2020-05-22T11:00:24Z</time>
      </trkpt>
      <trkpt lat="43.27708" lon="0.09265">
        <ele>280</ele>
        <time>2020-05-22T11:00:28Z</time>
      </trkpt>
      <trkpt lat="43.27712" lon="0.09261">
        <ele>280</ele>
        <time>2020-05-22T11:00:31Z</time>
      </trkpt>
      <trkpt lat="43.27711" lon="0.09253">
        <ele>280</ele>
        <time>2020-05-22T11:00:40Z</time>
      </trkpt>
      <trkpt lat="43.27711" lon="0.09242">
        <ele>280</ele>
        <time>2020-05-22T11:01:15Z</time>
      </trkpt>
      <trkpt lat="43.27706" lon="0.09231">
        <ele>280</ele>
        <time>2020-05-22T11:01:22Z</time>
      </trkpt>
      <trkpt lat="43.27708" lon="0.09216">
        <ele>280</ele>
        <time>2020-05-22T11:01:32Z</time>
      </trkpt>
      <trkpt lat="43.27705" lon="0.09212">
        <ele>280</ele>
        <time>2020-05-22T11:05:35Z</time>
      </trkpt>
      <trkpt lat="43.27701" lon="0.09209">
        <ele>280</ele>
        <time>2020-05-22T11:05:45Z</time>
      </trkpt>
      <trkpt lat="43.27703" lon="0.09192">
        <ele>280</ele>
        <time>2020-05-22T11:05:54Z</time>
      </trkpt>
      <trkpt lat="43.27702" lon="0.09184">
        <ele>280</ele>
        <time>2020-05-22T11:06:01Z</time>
      </trkpt>
      <trkpt lat="43.27703" lon="0.09175">
        <ele>280</ele>
        <time>2020-05-22T11:06:14Z</time>
      </trkpt>
      <trkpt lat="43.27703" lon="0.09167">
        <ele>280</ele>
        <time>2020-05-22T11:06:19Z</time>
      </trkpt>
      <trkpt lat="43.27705" lon="0.09158">
        <ele>280</ele>
        <time>2020-05-22T11:06:27Z</time>
      </trkpt>
      <trkpt lat="43.27704" lon="0.0915">
        <ele>280</ele>
        <time>2020-05-22T11:06:33Z</time>
      </trkpt>
      <trkpt lat="43.27706" lon="0.09141">
        <ele>280</ele>
        <time>2020-05-22T11:06:38Z</time>
      </trkpt>
      <trkpt lat="43.27709" lon="0.09136">
        <ele>280</ele>
        <time>2020-05-22T11:06:42Z</time>
      </trkpt>
      <trkpt lat="43.27711" lon="0.0913">
        <ele>280</ele>
        <time>2020-05-22T11:06:46Z</time>
      </trkpt>
      <trkpt lat="43.27712" lon="0.09112">
        <ele>280</ele>
        <time>2020-05-22T11:06:55Z</time>
      </trkpt>
      <trkpt lat="43.27711" lon="0.09106">
        <ele>280</ele>
        <time>2020-05-22T11:06:58Z</time>
      </trkpt>
      <trkpt lat="43.27712" lon="0.09099">
        <ele>280</ele>
        <time>2020-05-22T11:07:02Z</time>
      </trkpt>
      <trkpt lat="43.27712" lon="0.09093">
        <ele>280</ele>
        <time>2020-05-22T11:07:06Z</time>
      </trkpt>
      <trkpt lat="43.27713" lon="0.09087">
        <ele>280</ele>
        <time>2020-05-22T11:07:33Z</time>
      </trkpt>
      <trkpt lat="43.27712" lon="0.0907">
        <ele>280</ele>
        <time>2020-05-22T11:07:53Z</time>
      </trkpt>
      <trkpt lat="43.27713" lon="0.09063">
        <ele>280</ele>
        <time>2020-05-22T11:07:58Z</time>
      </trkpt>
      <trkpt lat="43.27715" lon="0.09057">
        <ele>280</ele>
        <time>2020-05-22T11:08:03Z</time>
      </trkpt>
      <trkpt lat="43.27714" lon="0.09042">
        <ele>280</ele>
        <time>2020-05-22T11:08:15Z</time>
      </trkpt>
      <trkpt lat="43.27717" lon="0.09026">
        <ele>280</ele>
        <time>2020-05-22T11:08:32Z</time>
      </trkpt>
      <trkpt lat="43.27718" lon="0.09017">
        <ele>280</ele>
        <time>2020-05-22T11:08:37Z</time>
      </trkpt>
      <trkpt lat="43.27717" lon="0.09008">
        <ele>280</ele>
        <time>2020-05-22T11:08:42Z</time>
      </trkpt>
      <trkpt lat="43.27716" lon="0.09002">
        <ele>280</ele>
        <time>2020-05-22T11:08:48Z</time>
      </trkpt>
      <trkpt lat="43.2772" lon="0.08991">
        <ele>280</ele>
        <time>2020-05-22T11:08:59Z</time>
      </trkpt>
      <trkpt lat="43.27721" lon="0.08983">
        <ele>280</ele>
        <time>2020-05-22T11:09:03Z</time>
      </trkpt>
      <trkpt lat="43.27723" lon="0.08977">
        <ele>280</ele>
        <time>2020-05-22T11:09:07Z</time>
      </trkpt>
      <trkpt lat="43.27723" lon="0.08939">
        <ele>280</ele>
        <time>2020-05-22T11:09:30Z</time>
      </trkpt>
      <trkpt lat="43.27726" lon="0.08921">
        <ele>280</ele>
        <time>2020-05-22T11:09:39Z</time>
      </trkpt>
      <trkpt lat="43.27726" lon="0.08909">
        <ele>280</ele>
        <time>2020-05-22T11:09:47Z</time>
      </trkpt>
      <trkpt lat="43.27724" lon="0.08903">
        <ele>280</ele>
        <time>2020-05-22T11:09:57Z</time>
      </trkpt>
      <trkpt lat="43.2772" lon="0.08904">
        <ele>280</ele>
        <time>2020-05-22T11:10:03Z</time>
      </trkpt>
      <trkpt lat="43.27716" lon="0.08903">
        <ele>280</ele>
        <time>2020-05-22T11:10:08Z</time>
      </trkpt>
      <trkpt lat="43.27712" lon="0.08899">
        <ele>280</ele>
        <time>2020-05-22T11:10:11Z</time>
      </trkpt>
      <trkpt lat="43.27708" lon="0.08897">
        <ele>280</ele>
        <time>2020-05-22T11:10:14Z</time>
      </trkpt>
      <trkpt lat="43.27705" lon="0.08893">
        <ele>280</ele>
        <time>2020-05-22T11:10:17Z</time>
      </trkpt>
      <trkpt lat="43.27698" lon="0.08888">
        <ele>279</ele>
        <time>2020-05-22T11:10:23Z</time>
      </trkpt>
      <trkpt lat="43.27694" lon="0.08884">
        <ele>279</ele>
        <time>2020-05-22T11:10:27Z</time>
      </trkpt>
      <trkpt lat="43.27649" lon="0.08864">
        <ele>280</ele>
        <time>2020-05-22T11:10:59Z</time>
      </trkpt>
      <trkpt lat="43.2764" lon="0.08864">
        <ele>280</ele>
        <time>2020-05-22T11:11:06Z</time>
      </trkpt>
      <trkpt lat="43.27636" lon="0.0886">
        <ele>280</ele>
        <time>2020-05-22T11:11:10Z</time>
      </trkpt>
      <trkpt lat="43.27627" lon="0.08858">
        <ele>280</ele>
        <time>2020-05-22T11:11:17Z</time>
      </trkpt>
      <trkpt lat="43.27623" lon="0.08856">
        <ele>280</ele>
        <time>2020-05-22T11:11:20Z</time>
      </trkpt>
      <trkpt lat="43.2762" lon="0.08852">
        <ele>281</ele>
        <time>2020-05-22T11:11:24Z</time>
      </trkpt>
      <trkpt lat="43.27613" lon="0.08828">
        <ele>281</ele>
        <time>2020-05-22T11:11:39Z</time>
      </trkpt>
      <trkpt lat="43.27611" lon="0.08803">
        <ele>280</ele>
        <time>2020-05-22T11:11:52Z</time>
      </trkpt>
      <trkpt lat="43.27612" lon="0.08797">
        <ele>281</ele>
        <time>2020-05-22T11:11:55Z</time>
      </trkpt>
      <trkpt lat="43.27612" lon="0.08792">
        <ele>281</ele>
        <time>2020-05-22T11:11:57Z</time>
      </trkpt>
      <trkpt lat="43.27612" lon="0.08786">
        <ele>281</ele>
        <time>2020-05-22T11:12:00Z</time>
      </trkpt>
      <trkpt lat="43.27613" lon="0.08779">
        <ele>280</ele>
        <time>2020-05-22T11:12:04Z</time>
      </trkpt>
      <trkpt lat="43.27615" lon="0.08748">
        <ele>280</ele>
        <time>2020-05-22T11:12:21Z</time>
      </trkpt>
      <trkpt lat="43.27617" lon="0.08734">
        <ele>280</ele>
        <time>2020-05-22T11:12:29Z</time>
      </trkpt>
      <trkpt lat="43.27619" lon="0.08728">
        <ele>280</ele>
        <time>2020-05-22T11:12:33Z</time>
      </trkpt>
      <trkpt lat="43.27618" lon="0.08723">
        <ele>280</ele>
        <time>2020-05-22T11:12:36Z</time>
      </trkpt>
      <trkpt lat="43.27618" lon="0.08717">
        <ele>280</ele>
        <time>2020-05-22T11:12:39Z</time>
      </trkpt>
      <trkpt lat="43.27619" lon="0.08711">
        <ele>280</ele>
        <time>2020-05-22T11:12:42Z</time>
      </trkpt>
      <trkpt lat="43.27623" lon="0.08701">
        <ele>280</ele>
        <time>2020-05-22T11:12:48Z</time>
      </trkpt>
      <trkpt lat="43.27625" lon="0.08688">
        <ele>280</ele>
        <time>2020-05-22T11:12:56Z</time>
      </trkpt>
      <trkpt lat="43.27631" lon="0.08658">
        <ele>279</ele>
        <time>2020-05-22T11:13:15Z</time>
      </trkpt>
      <trkpt lat="43.27638" lon="0.08657">
        <ele>279</ele>
        <time>2020-05-22T11:13:29Z</time>
      </trkpt>
      <trkpt lat="43.27637" lon="0.0863">
        <ele>280</ele>
        <time>2020-05-22T11:13:44Z</time>
      </trkpt>
      <trkpt lat="43.2764" lon="0.08611">
        <ele>280</ele>
        <time>2020-05-22T11:13:55Z</time>
      </trkpt>
      <trkpt lat="43.27638" lon="0.08599">
        <ele>280</ele>
        <time>2020-05-22T11:14:01Z</time>
      </trkpt>
      <trkpt lat="43.27641" lon="0.08574">
        <ele>280</ele>
        <time>2020-05-22T11:14:15Z</time>
      </trkpt>
      <trkpt lat="43.27641" lon="0.08569">
        <ele>280</ele>
        <time>2020-05-22T11:14:18Z</time>
      </trkpt>
      <trkpt lat="43.27643" lon="0.08555">
        <ele>281</ele>
        <time>2020-05-22T11:14:26Z</time>
      </trkpt>
      <trkpt lat="43.27645" lon="0.08542">
        <ele>280</ele>
        <time>2020-05-22T11:14:33Z</time>
      </trkpt>
      <trkpt lat="43.27647" lon="0.08529">
        <ele>280</ele>
        <time>2020-05-22T11:14:41Z</time>
      </trkpt>
      <trkpt lat="43.27647" lon="0.08524">
        <ele>280</ele>
        <time>2020-05-22T11:14:44Z</time>
      </trkpt>
      <trkpt lat="43.27648" lon="0.08519">
        <ele>280</ele>
        <time>2020-05-22T11:14:47Z</time>
      </trkpt>
      <trkpt lat="43.27648" lon="0.08513">
        <ele>280</ele>
        <time>2020-05-22T11:14:50Z</time>
      </trkpt>
      <trkpt lat="43.27647" lon="0.08509">
        <ele>280</ele>
        <time>2020-05-22T11:14:53Z</time>
      </trkpt>
      <trkpt lat="43.27633" lon="0.08487">
        <ele>279</ele>
        <time>2020-05-22T11:15:20Z</time>
      </trkpt>
      <trkpt lat="43.27629" lon="0.08475">
        <ele>280</ele>
        <time>2020-05-22T11:15:26Z</time>
      </trkpt>
      <trkpt lat="43.27625" lon="0.08475">
        <ele>279</ele>
        <time>2020-05-22T11:15:31Z</time>
      </trkpt>
      <trkpt lat="43.2762" lon="0.08471">
        <ele>279</ele>
        <time>2020-05-22T11:15:37Z</time>
      </trkpt>
      <trkpt lat="43.27616" lon="0.08467">
        <ele>279</ele>
        <time>2020-05-22T11:15:41Z</time>
      </trkpt>
      <trkpt lat="43.27613" lon="0.08461">
        <ele>279</ele>
        <time>2020-05-22T11:15:44Z</time>
      </trkpt>
      <trkpt lat="43.27602" lon="0.08444">
        <ele>279</ele>
        <time>2020-05-22T11:16:00Z</time>
      </trkpt>
      <trkpt lat="43.27594" lon="0.08438">
        <ele>279</ele>
        <time>2020-05-22T11:16:06Z</time>
      </trkpt>
      <trkpt lat="43.27573" lon="0.08416">
        <ele>280</ele>
        <time>2020-05-22T11:16:29Z</time>
      </trkpt>
      <trkpt lat="43.27563" lon="0.08412">
        <ele>280</ele>
        <time>2020-05-22T11:16:37Z</time>
      </trkpt>
      <trkpt lat="43.27555" lon="0.08405">
        <ele>280</ele>
        <time>2020-05-22T11:16:45Z</time>
      </trkpt>
      <trkpt lat="43.27551" lon="0.08403">
        <ele>280</ele>
        <time>2020-05-22T11:16:49Z</time>
      </trkpt>
      <trkpt lat="43.27507" lon="0.08394">
        <ele>280</ele>
        <time>2020-05-22T11:17:23Z</time>
      </trkpt>
      <trkpt lat="43.27467" lon="0.08384">
        <ele>280</ele>
        <time>2020-05-22T11:17:54Z</time>
      </trkpt>
      <trkpt lat="43.2744" lon="0.08381">
        <ele>280</ele>
        <time>2020-05-22T11:18:14Z</time>
      </trkpt>
      <trkpt lat="43.27435" lon="0.08383">
        <ele>280</ele>
        <time>2020-05-22T11:18:19Z</time>
      </trkpt>
      <trkpt lat="43.27418" lon="0.08381">
        <ele>280</ele>
        <time>2020-05-22T11:18:32Z</time>
      </trkpt>
      <trkpt lat="43.27404" lon="0.08383">
        <ele>280</ele>
        <time>2020-05-22T11:18:45Z</time>
      </trkpt>
      <trkpt lat="43.27398" lon="0.08382">
        <ele>280</ele>
        <time>2020-05-22T11:18:50Z</time>
      </trkpt>
      <trkpt lat="43.27393" lon="0.08383">
        <ele>280</ele>
        <time>2020-05-22T11:18:54Z</time>
      </trkpt>
      <trkpt lat="43.27382" lon="0.08388">
        <ele>280</ele>
        <time>2020-05-22T11:19:03Z</time>
      </trkpt>
      <trkpt lat="43.27375" lon="0.08388">
        <ele>280</ele>
        <time>2020-05-22T11:19:08Z</time>
      </trkpt>
      <trkpt lat="43.27369" lon="0.08391">
        <ele>280</ele>
        <time>2020-05-22T11:19:13Z</time>
      </trkpt>
      <trkpt lat="43.27357" lon="0.08392">
        <ele>280</ele>
        <time>2020-05-22T11:19:19Z</time>
      </trkpt>
      <trkpt lat="43.27353" lon="0.08394">
        <ele>280</ele>
        <time>2020-05-22T11:19:23Z</time>
      </trkpt>
      <trkpt lat="43.27311" lon="0.08399">
        <ele>281</ele>
        <time>2020-05-22T11:19:55Z</time>
      </trkpt>
      <trkpt lat="43.27266" lon="0.08398">
        <ele>282</ele>
        <time>2020-05-22T11:20:29Z</time>
      </trkpt>
      <trkpt lat="43.2726" lon="0.08398">
        <ele>282</ele>
        <time>2020-05-22T11:20:33Z</time>
      </trkpt>
      <trkpt lat="43.27251" lon="0.08392">
        <ele>281</ele>
        <time>2020-05-22T11:20:41Z</time>
      </trkpt>
      <trkpt lat="43.27235" lon="0.08389">
        <ele>281</ele>
        <time>2020-05-22T11:20:53Z</time>
      </trkpt>
      <trkpt lat="43.27207" lon="0.08373">
        <ele>282</ele>
        <time>2020-05-22T11:21:18Z</time>
      </trkpt>
      <trkpt lat="43.27203" lon="0.08373">
        <ele>282</ele>
        <time>2020-05-22T11:21:22Z</time>
      </trkpt>
      <trkpt lat="43.27198" lon="0.0837">
        <ele>282</ele>
        <time>2020-05-22T11:21:25Z</time>
      </trkpt>
      <trkpt lat="43.27195" lon="0.08367">
        <ele>282</ele>
        <time>2020-05-22T11:21:28Z</time>
      </trkpt>
      <trkpt lat="43.27171" lon="0.08355">
        <ele>282</ele>
        <time>2020-05-22T11:21:48Z</time>
      </trkpt>
      <trkpt lat="43.27157" lon="0.08357">
        <ele>282</ele>
        <time>2020-05-22T11:21:59Z</time>
      </trkpt>
      <trkpt lat="43.27136" lon="0.08361">
        <ele>282</ele>
        <time>2020-05-22T11:22:16Z</time>
      </trkpt>
      <trkpt lat="43.27127" lon="0.08368">
        <ele>282</ele>
        <time>2020-05-22T11:22:24Z</time>
      </trkpt>
      <trkpt lat="43.27122" lon="0.08369">
        <ele>282</ele>
        <time>2020-05-22T11:22:28Z</time>
      </trkpt>
      <trkpt lat="43.27091" lon="0.08392">
        <ele>282</ele>
        <time>2020-05-22T11:22:56Z</time>
      </trkpt>
      <trkpt lat="43.27061" lon="0.08402">
        <ele>281</ele>
        <time>2020-05-22T11:23:20Z</time>
      </trkpt>
      <trkpt lat="43.27056" lon="0.08402">
        <ele>281</ele>
        <time>2020-05-22T11:23:24Z</time>
      </trkpt>
      <trkpt lat="43.27051" lon="0.084">
        <ele>281</ele>
        <time>2020-05-22T11:23:27Z</time>
      </trkpt>
      <trkpt lat="43.27047" lon="0.08401">
        <ele>281</ele>
        <time>2020-05-22T11:23:31Z</time>
      </trkpt>
      <trkpt lat="43.27041" lon="0.08398">
        <ele>281</ele>
        <time>2020-05-22T11:23:35Z</time>
      </trkpt>
      <trkpt lat="43.27036" lon="0.08398">
        <ele>281</ele>
        <time>2020-05-22T11:23:48Z</time>
      </trkpt>
      <trkpt lat="43.27032" lon="0.08397">
        <ele>281</ele>
        <time>2020-05-22T11:23:52Z</time>
      </trkpt>
      <trkpt lat="43.27008" lon="0.08378">
        <ele>281</ele>
        <time>2020-05-22T11:24:11Z</time>
      </trkpt>
      <trkpt lat="43.27003" lon="0.08376">
        <ele>281</ele>
        <time>2020-05-22T11:24:15Z</time>
      </trkpt>
      <trkpt lat="43.26988" lon="0.08377">
        <ele>281</ele>
        <time>2020-05-22T11:24:29Z</time>
      </trkpt>
      <trkpt lat="43.26977" lon="0.08379">
        <ele>281</ele>
        <time>2020-05-22T11:24:37Z</time>
      </trkpt>
      <trkpt lat="43.26971" lon="0.08381">
        <ele>281</ele>
        <time>2020-05-22T11:24:41Z</time>
      </trkpt>
      <trkpt lat="43.26955" lon="0.08382">
        <ele>281</ele>
        <time>2020-05-22T11:24:55Z</time>
      </trkpt>
      <trkpt lat="43.26931" lon="0.08393">
        <ele>281</ele>
        <time>2020-05-22T11:25:19Z</time>
      </trkpt>
      <trkpt lat="43.26934" lon="0.08389">
        <ele>281</ele>
        <time>2020-05-22T11:26:15Z</time>
      </trkpt>
      <trkpt lat="43.2693" lon="0.0838">
        <ele>281</ele>
        <time>2020-05-22T11:27:21Z</time>
      </trkpt>
      <trkpt lat="43.26926" lon="0.08388">
        <ele>279</ele>
        <time>2020-05-22T11:32:25Z</time>
      </trkpt>
      <trkpt lat="43.26924" lon="0.08391">
        <ele>279</ele>
        <time>2020-05-22T11:32:53Z</time>
      </trkpt>
      <trkpt lat="43.2692" lon="0.08396">
        <ele>280</ele>
        <time>2020-05-22T11:32:57Z</time>
      </trkpt>
      <trkpt lat="43.26882" lon="0.08413">
        <ele>280</ele>
        <time>2020-05-22T11:33:28Z</time>
      </trkpt>
      <trkpt lat="43.26858" lon="0.08424">
        <ele>281</ele>
        <time>2020-05-22T11:33:47Z</time>
      </trkpt>
      <trkpt lat="43.26853" lon="0.08425">
        <ele>281</ele>
        <time>2020-05-22T11:33:51Z</time>
      </trkpt>
      <trkpt lat="43.26821" lon="0.08439">
        <ele>282</ele>
        <time>2020-05-22T11:34:17Z</time>
      </trkpt>
      <trkpt lat="43.26798" lon="0.08443">
        <ele>282</ele>
        <time>2020-05-22T11:34:34Z</time>
      </trkpt>
      <trkpt lat="43.26775" lon="0.08455">
        <ele>282</ele>
        <time>2020-05-22T11:34:53Z</time>
      </trkpt>
      <trkpt lat="43.26752" lon="0.0846">
        <ele>282</ele>
        <time>2020-05-22T11:35:11Z</time>
      </trkpt>
      <trkpt lat="43.2674" lon="0.08463">
        <ele>282</ele>
        <time>2020-05-22T11:35:20Z</time>
      </trkpt>
      <trkpt lat="43.26728" lon="0.08463">
        <ele>283</ele>
        <time>2020-05-22T11:35:30Z</time>
      </trkpt>
      <trkpt lat="43.2672" lon="0.0846">
        <ele>283</ele>
        <time>2020-05-22T11:35:38Z</time>
      </trkpt>
      <trkpt lat="43.2668" lon="0.08458">
        <ele>284</ele>
        <time>2020-05-22T11:36:06Z</time>
      </trkpt>
      <trkpt lat="43.26657" lon="0.08449">
        <ele>284</ele>
        <time>2020-05-22T11:36:23Z</time>
      </trkpt>
      <trkpt lat="43.26651" lon="0.08449">
        <ele>284</ele>
        <time>2020-05-22T11:36:28Z</time>
      </trkpt>
      <trkpt lat="43.26624" lon="0.08436">
        <ele>285</ele>
        <time>2020-05-22T11:36:50Z</time>
      </trkpt>
      <trkpt lat="43.26615" lon="0.08427">
        <ele>285</ele>
        <time>2020-05-22T11:36:58Z</time>
      </trkpt>
      <trkpt lat="43.26572" lon="0.08412">
        <ele>286</ele>
        <time>2020-05-22T11:37:33Z</time>
      </trkpt>
      <trkpt lat="43.26561" lon="0.08405">
        <ele>286</ele>
        <time>2020-05-22T11:37:40Z</time>
      </trkpt>
      <trkpt lat="43.26556" lon="0.08403">
        <ele>286</ele>
        <time>2020-05-22T11:37:44Z</time>
      </trkpt>
      <trkpt lat="43.26518" lon="0.08372">
        <ele>286</ele>
        <time>2020-05-22T11:38:18Z</time>
      </trkpt>
      <trkpt lat="43.26503" lon="0.08357">
        <ele>286</ele>
        <time>2020-05-22T11:38:30Z</time>
      </trkpt>
      <trkpt lat="43.26488" lon="0.08342">
        <ele>286</ele>
        <time>2020-05-22T11:38:44Z</time>
      </trkpt>
      <trkpt lat="43.26479" lon="0.0832">
        <ele>286</ele>
        <time>2020-05-22T11:38:58Z</time>
      </trkpt>
      <trkpt lat="43.26473" lon="0.08318">
        <ele>286</ele>
        <time>2020-05-22T11:39:02Z</time>
      </trkpt>
      <trkpt lat="43.26467" lon="0.08317">
        <ele>286</ele>
        <time>2020-05-22T11:39:08Z</time>
      </trkpt>
      <trkpt lat="43.2646" lon="0.08314">
        <ele>287</ele>
        <time>2020-05-22T11:39:14Z</time>
      </trkpt>
      <trkpt lat="43.2643" lon="0.08316">
        <ele>287</ele>
        <time>2020-05-22T11:39:36Z</time>
      </trkpt>
      <trkpt lat="43.26386" lon="0.08328">
        <ele>287</ele>
        <time>2020-05-22T11:40:10Z</time>
      </trkpt>
      <trkpt lat="43.2638" lon="0.08331">
        <ele>287</ele>
        <time>2020-05-22T11:40:14Z</time>
      </trkpt>
      <trkpt lat="43.26375" lon="0.08328">
        <ele>287</ele>
        <time>2020-05-22T11:40:19Z</time>
      </trkpt>
      <trkpt lat="43.26351" lon="0.0833">
        <ele>287</ele>
        <time>2020-05-22T11:40:37Z</time>
      </trkpt>
      <trkpt lat="43.26345" lon="0.08329">
        <ele>287</ele>
        <time>2020-05-22T11:40:42Z</time>
      </trkpt>
      <trkpt lat="43.26323" lon="0.08336">
        <ele>287</ele>
        <time>2020-05-22T11:40:58Z</time>
      </trkpt>
      <trkpt lat="43.2631" lon="0.08345">
        <ele>288</ele>
        <time>2020-05-22T11:41:12Z</time>
      </trkpt>
      <trkpt lat="43.26295" lon="0.08345">
        <ele>288</ele>
        <time>2020-05-22T11:41:24Z</time>
      </trkpt>
      <trkpt lat="43.26252" lon="0.08344">
        <ele>288</ele>
        <time>2020-05-22T11:41:56Z</time>
      </trkpt>
      <trkpt lat="43.26244" lon="0.08345">
        <ele>288</ele>
        <time>2020-05-22T11:42:02Z</time>
      </trkpt>
      <trkpt lat="43.26196" lon="0.08354">
        <ele>289</ele>
        <time>2020-05-22T11:42:36Z</time>
      </trkpt>
      <trkpt lat="43.26181" lon="0.08353">
        <ele>289</ele>
        <time>2020-05-22T11:42:50Z</time>
      </trkpt>
      <trkpt lat="43.26173" lon="0.08356">
        <ele>289</ele>
        <time>2020-05-22T11:42:55Z</time>
      </trkpt>
      <trkpt lat="43.26128" lon="0.08366">
        <ele>289</ele>
        <time>2020-05-22T11:43:28Z</time>
      </trkpt>
      <trkpt lat="43.2609" lon="0.08369">
        <ele>290</ele>
        <time>2020-05-22T11:43:59Z</time>
      </trkpt>
      <trkpt lat="43.26077" lon="0.08372">
        <ele>290</ele>
        <time>2020-05-22T11:44:07Z</time>
      </trkpt>
      <trkpt lat="43.2607" lon="0.08375">
        <ele>290</ele>
        <time>2020-05-22T11:44:12Z</time>
      </trkpt>
      <trkpt lat="43.26057" lon="0.08377">
        <ele>290</ele>
        <time>2020-05-22T11:44:22Z</time>
      </trkpt>
      <trkpt lat="43.26026" lon="0.08374">
        <ele>291</ele>
        <time>2020-05-22T11:44:45Z</time>
      </trkpt>
      <trkpt lat="43.25989" lon="0.08381">
        <ele>291</ele>
        <time>2020-05-22T11:45:13Z</time>
      </trkpt>
      <trkpt lat="43.25947" lon="0.08375">
        <ele>291</ele>
        <time>2020-05-22T11:45:45Z</time>
      </trkpt>
      <trkpt lat="43.25917" lon="0.0837">
        <ele>292</ele>
        <time>2020-05-22T11:46:08Z</time>
      </trkpt>
      <trkpt lat="43.259" lon="0.08371">
        <ele>292</ele>
        <time>2020-05-22T11:46:23Z</time>
      </trkpt>
      <trkpt lat="43.25858" lon="0.08364">
        <ele>292</ele>
        <time>2020-05-22T11:46:56Z</time>
      </trkpt>
      <trkpt lat="43.25845" lon="0.08364">
        <ele>292</ele>
        <time>2020-05-22T11:47:07Z</time>
      </trkpt>
      <trkpt lat="43.25832" lon="0.0837">
        <ele>292</ele>
        <time>2020-05-22T11:47:18Z</time>
      </trkpt>
      <trkpt lat="43.25817" lon="0.0837">
        <ele>292</ele>
        <time>2020-05-22T11:47:28Z</time>
      </trkpt>
      <trkpt lat="43.258" lon="0.08367">
        <ele>292</ele>
        <time>2020-05-22T11:47:38Z</time>
      </trkpt>
      <trkpt lat="43.25793" lon="0.08367">
        <ele>292</ele>
        <time>2020-05-22T11:47:42Z</time>
      </trkpt>
      <trkpt lat="43.25781" lon="0.08364">
        <ele>292</ele>
        <time>2020-05-22T11:47:52Z</time>
      </trkpt>
      <trkpt lat="43.25775" lon="0.08365">
        <ele>292</ele>
        <time>2020-05-22T11:47:56Z</time>
      </trkpt>
      <trkpt lat="43.2577" lon="0.08368">
        <ele>292</ele>
        <time>2020-05-22T11:48:00Z</time>
      </trkpt>
      <trkpt lat="43.25759" lon="0.08368">
        <ele>292</ele>
        <time>2020-05-22T11:48:08Z</time>
      </trkpt>
      <trkpt lat="43.25753" lon="0.08366">
        <ele>292</ele>
        <time>2020-05-22T11:48:13Z</time>
      </trkpt>
      <trkpt lat="43.25735" lon="0.08367">
        <ele>292</ele>
        <time>2020-05-22T11:48:28Z</time>
      </trkpt>
      <trkpt lat="43.2573" lon="0.0837">
        <ele>293</ele>
        <time>2020-05-22T11:48:33Z</time>
      </trkpt>
      <trkpt lat="43.25713" lon="0.08369">
        <ele>293</ele>
        <time>2020-05-22T11:48:45Z</time>
      </trkpt>
      <trkpt lat="43.2569" lon="0.08373">
        <ele>293</ele>
        <time>2020-05-22T11:49:03Z</time>
      </trkpt>
      <trkpt lat="43.25674" lon="0.08381">
        <ele>293</ele>
        <time>2020-05-22T11:49:16Z</time>
      </trkpt>
      <trkpt lat="43.25653" lon="0.08377">
        <ele>293</ele>
        <time>2020-05-22T11:49:33Z</time>
      </trkpt>
      <trkpt lat="43.25646" lon="0.08381">
        <ele>293</ele>
        <time>2020-05-22T11:49:39Z</time>
      </trkpt>
      <trkpt lat="43.25604" lon="0.08386">
        <ele>294</ele>
        <time>2020-05-22T11:50:14Z</time>
      </trkpt>
      <trkpt lat="43.25596" lon="0.08388">
        <ele>294</ele>
        <time>2020-05-22T11:50:20Z</time>
      </trkpt>
      <trkpt lat="43.25553" lon="0.08387">
        <ele>294</ele>
        <time>2020-05-22T11:50:52Z</time>
      </trkpt>
      <trkpt lat="43.25546" lon="0.08387">
        <ele>294</ele>
        <time>2020-05-22T11:50:57Z</time>
      </trkpt>
      <trkpt lat="43.25504" lon="0.08399">
        <ele>294</ele>
        <time>2020-05-22T11:51:29Z</time>
      </trkpt>
      <trkpt lat="43.25466" lon="0.08409">
        <ele>294</ele>
        <time>2020-05-22T11:52:00Z</time>
      </trkpt>
      <trkpt lat="43.25461" lon="0.08415">
        <ele>294</ele>
        <time>2020-05-22T11:52:05Z</time>
      </trkpt>
      <trkpt lat="43.25428" lon="0.08416">
        <ele>293</ele>
        <time>2020-05-22T11:52:30Z</time>
      </trkpt>
      <trkpt lat="43.25415" lon="0.08415">
        <ele>293</ele>
        <time>2020-05-22T11:52:40Z</time>
      </trkpt>
      <trkpt lat="43.25395" lon="0.08416">
        <ele>293</ele>
        <time>2020-05-22T11:52:56Z</time>
      </trkpt>
      <trkpt lat="43.25381" lon="0.08423">
        <ele>294</ele>
        <time>2020-05-22T11:53:05Z</time>
      </trkpt>
      <trkpt lat="43.25362" lon="0.0842">
        <ele>294</ele>
        <time>2020-05-22T11:53:18Z</time>
      </trkpt>
      <trkpt lat="43.25343" lon="0.08422">
        <ele>295</ele>
        <time>2020-05-22T11:53:33Z</time>
      </trkpt>
      <trkpt lat="43.25332" lon="0.08418">
        <ele>295</ele>
        <time>2020-05-22T11:53:41Z</time>
      </trkpt>
      <trkpt lat="43.25322" lon="0.08411">
        <ele>295</ele>
        <time>2020-05-22T11:53:51Z</time>
      </trkpt>
      <trkpt lat="43.2531" lon="0.0841">
        <ele>295</ele>
        <time>2020-05-22T11:54:00Z</time>
      </trkpt>
      <trkpt lat="43.25294" lon="0.08411">
        <ele>295</ele>
        <time>2020-05-22T11:54:15Z</time>
      </trkpt>
      <trkpt lat="43.25282" lon="0.08417">
        <ele>295</ele>
        <time>2020-05-22T11:54:24Z</time>
      </trkpt>
      <trkpt lat="43.25278" lon="0.08423">
        <ele>295</ele>
        <time>2020-05-22T11:54:30Z</time>
      </trkpt>
      <trkpt lat="43.25267" lon="0.08426">
        <ele>295</ele>
        <time>2020-05-22T11:54:37Z</time>
      </trkpt>
      <trkpt lat="43.25261" lon="0.08424">
        <ele>295</ele>
        <time>2020-05-22T11:54:41Z</time>
      </trkpt>
      <trkpt lat="43.25238" lon="0.08385">
        <ele>296</ele>
        <time>2020-05-22T11:55:07Z</time>
      </trkpt>
      <trkpt lat="43.25235" lon="0.08377">
        <ele>297</ele>
        <time>2020-05-22T11:55:12Z</time>
      </trkpt>
      <trkpt lat="43.25232" lon="0.08372">
        <ele>297</ele>
        <time>2020-05-22T11:55:18Z</time>
      </trkpt>
      <trkpt lat="43.25213" lon="0.08374">
        <ele>297</ele>
        <time>2020-05-22T11:55:34Z</time>
      </trkpt>
      <trkpt lat="43.25208" lon="0.08376">
        <ele>297</ele>
        <time>2020-05-22T11:55:40Z</time>
      </trkpt>
      <trkpt lat="43.25201" lon="0.08375">
        <ele>297</ele>
        <time>2020-05-22T11:55:45Z</time>
      </trkpt>
      <trkpt lat="43.25196" lon="0.08376">
        <ele>297</ele>
        <time>2020-05-22T11:55:49Z</time>
      </trkpt>
      <trkpt lat="43.25185" lon="0.08372">
        <ele>298</ele>
        <time>2020-05-22T11:55:57Z</time>
      </trkpt>
      <trkpt lat="43.25172" lon="0.08357">
        <ele>297</ele>
        <time>2020-05-22T11:56:09Z</time>
      </trkpt>
      <trkpt lat="43.25165" lon="0.08347">
        <ele>297</ele>
        <time>2020-05-22T11:56:17Z</time>
      </trkpt>
      <trkpt lat="43.2516" lon="0.08345">
        <ele>297</ele>
        <time>2020-05-22T11:56:21Z</time>
      </trkpt>
      <trkpt lat="43.25149" lon="0.08346">
        <ele>297</ele>
        <time>2020-05-22T11:56:29Z</time>
      </trkpt>
      <trkpt lat="43.25126" lon="0.0835">
        <ele>297</ele>
        <time>2020-05-22T11:56:46Z</time>
      </trkpt>
      <trkpt lat="43.25096" lon="0.08343">
        <ele>297</ele>
        <time>2020-05-22T11:57:09Z</time>
      </trkpt>
      <trkpt lat="43.25085" lon="0.08335">
        <ele>297</ele>
        <time>2020-05-22T11:57:19Z</time>
      </trkpt>
      <trkpt lat="43.25079" lon="0.08336">
        <ele>297</ele>
        <time>2020-05-22T11:57:23Z</time>
      </trkpt>
      <trkpt lat="43.25063" lon="0.08334">
        <ele>298</ele>
        <time>2020-05-22T11:57:34Z</time>
      </trkpt>
      <trkpt lat="43.25039" lon="0.08332">
        <ele>298</ele>
        <time>2020-05-22T11:57:53Z</time>
      </trkpt>
      <trkpt lat="43.25008" lon="0.08327">
        <ele>298</ele>
        <time>2020-05-22T11:58:16Z</time>
      </trkpt>
      <trkpt lat="43.24998" lon="0.08326">
        <ele>298</ele>
        <time>2020-05-22T11:58:23Z</time>
      </trkpt>
      <trkpt lat="43.24983" lon="0.08323">
        <ele>298</ele>
        <time>2020-05-22T11:58:34Z</time>
      </trkpt>
      <trkpt lat="43.24972" lon="0.08325">
        <ele>298</ele>
        <time>2020-05-22T11:58:43Z</time>
      </trkpt>
      <trkpt lat="43.24952" lon="0.08321">
        <ele>298</ele>
        <time>2020-05-22T11:58:58Z</time>
      </trkpt>
      <trkpt lat="43.24934" lon="0.08324">
        <ele>298</ele>
        <time>2020-05-22T11:59:11Z</time>
      </trkpt>
      <trkpt lat="43.2493" lon="0.08326">
        <ele>298</ele>
        <time>2020-05-22T11:59:16Z</time>
      </trkpt>
      <trkpt lat="43.24913" lon="0.08325">
        <ele>298</ele>
        <time>2020-05-22T11:59:28Z</time>
      </trkpt>
      <trkpt lat="43.2487" lon="0.08328">
        <ele>298</ele>
        <time>2020-05-22T12:00:00Z</time>
      </trkpt>
      <trkpt lat="43.24847" lon="0.08332">
        <ele>298</ele>
        <time>2020-05-22T12:00:21Z</time>
      </trkpt>
      <trkpt lat="43.24842" lon="0.08336">
        <ele>298</ele>
        <time>2020-05-22T12:00:25Z</time>
      </trkpt>
      <trkpt lat="43.24837" lon="0.08336">
        <ele>298</ele>
        <time>2020-05-22T12:00:30Z</time>
      </trkpt>
      <trkpt lat="43.2483" lon="0.08336">
        <ele>298</ele>
        <time>2020-05-22T12:00:34Z</time>
      </trkpt>
      <trkpt lat="43.24819" lon="0.08341">
        <ele>298</ele>
        <time>2020-05-22T12:00:42Z</time>
      </trkpt>
      <trkpt lat="43.24814" lon="0.08344">
        <ele>299</ele>
        <time>2020-05-22T12:00:47Z</time>
      </trkpt>
      <trkpt lat="43.24809" lon="0.08346">
        <ele>299</ele>
        <time>2020-05-22T12:00:52Z</time>
      </trkpt>
      <trkpt lat="43.24785" lon="0.08351">
        <ele>300</ele>
        <time>2020-05-22T12:01:17Z</time>
      </trkpt>
      <trkpt lat="43.2476" lon="0.08349">
        <ele>300</ele>
        <time>2020-05-22T12:01:35Z</time>
      </trkpt>
      <trkpt lat="43.2473" lon="0.08355">
        <ele>300</ele>
        <time>2020-05-22T12:01:58Z</time>
      </trkpt>
      <trkpt lat="43.24686" lon="0.08351">
        <ele>299</ele>
        <time>2020-05-22T12:02:33Z</time>
      </trkpt>
      <trkpt lat="43.24675" lon="0.08346">
        <ele>299</ele>
        <time>2020-05-22T12:02:41Z</time>
      </trkpt>
      <trkpt lat="43.24671" lon="0.08342">
        <ele>299</ele>
        <time>2020-05-22T12:02:46Z</time>
      </trkpt>
      <trkpt lat="43.24652" lon="0.08336">
        <ele>299</ele>
        <time>2020-05-22T12:03:01Z</time>
      </trkpt>
      <trkpt lat="43.24641" lon="0.08338">
        <ele>300</ele>
        <time>2020-05-22T12:03:09Z</time>
      </trkpt>
      <trkpt lat="43.24623" lon="0.08337">
        <ele>300</ele>
        <time>2020-05-22T12:03:23Z</time>
      </trkpt>
      <trkpt lat="43.24584" lon="0.08321">
        <ele>300</ele>
        <time>2020-05-22T12:03:53Z</time>
      </trkpt>
      <trkpt lat="43.24579" lon="0.08321">
        <ele>300</ele>
        <time>2020-05-22T12:03:57Z</time>
      </trkpt>
      <trkpt lat="43.24571" lon="0.08314">
        <ele>300</ele>
        <time>2020-05-22T12:04:05Z</time>
      </trkpt>
      <trkpt lat="43.24566" lon="0.0831">
        <ele>300</ele>
        <time>2020-05-22T12:04:09Z</time>
      </trkpt>
      <trkpt lat="43.24562" lon="0.08308">
        <ele>300</ele>
        <time>2020-05-22T12:04:12Z</time>
      </trkpt>
      <trkpt lat="43.24546" lon="0.08294">
        <ele>300</ele>
        <time>2020-05-22T12:04:26Z</time>
      </trkpt>
      <trkpt lat="43.24531" lon="0.08276">
        <ele>300</ele>
        <time>2020-05-22T12:04:43Z</time>
      </trkpt>
      <trkpt lat="43.24515" lon="0.08274">
        <ele>300</ele>
        <time>2020-05-22T12:04:57Z</time>
      </trkpt>
      <trkpt lat="43.24499" lon="0.08267">
        <ele>300</ele>
        <time>2020-05-22T12:05:10Z</time>
      </trkpt>
      <trkpt lat="43.24494" lon="0.08263">
        <ele>300</ele>
        <time>2020-05-22T12:05:15Z</time>
      </trkpt>
      <trkpt lat="43.24489" lon="0.08263">
        <ele>300</ele>
        <time>2020-05-22T12:05:19Z</time>
      </trkpt>
      <trkpt lat="43.24483" lon="0.08265">
        <ele>300</ele>
        <time>2020-05-22T12:05:24Z</time>
      </trkpt>
      <trkpt lat="43.24457" lon="0.08262">
        <ele>300</ele>
        <time>2020-05-22T12:05:43Z</time>
      </trkpt>
      <trkpt lat="43.24435" lon="0.08271">
        <ele>301</ele>
        <time>2020-05-22T12:06:03Z</time>
      </trkpt>
      <trkpt lat="43.24427" lon="0.0827">
        <ele>300</ele>
        <time>2020-05-22T12:06:10Z</time>
      </trkpt>
      <trkpt lat="43.24407" lon="0.08276">
        <ele>300</ele>
        <time>2020-05-22T12:06:26Z</time>
      </trkpt>
      <trkpt lat="43.24386" lon="0.08276">
        <ele>300</ele>
        <time>2020-05-22T12:06:40Z</time>
      </trkpt>
      <trkpt lat="43.24374" lon="0.08273">
        <ele>301</ele>
        <time>2020-05-22T12:06:51Z</time>
      </trkpt>
      <trkpt lat="43.24355" lon="0.08276">
        <ele>301</ele>
        <time>2020-05-22T12:07:06Z</time>
      </trkpt>
      <trkpt lat="43.24348" lon="0.08275">
        <ele>301</ele>
        <time>2020-05-22T12:07:09Z</time>
      </trkpt>
      <trkpt lat="43.24337" lon="0.08272">
        <ele>301</ele>
        <time>2020-05-22T12:07:17Z</time>
      </trkpt>
      <trkpt lat="43.24298" lon="0.08264">
        <ele>302</ele>
        <time>2020-05-22T12:07:48Z</time>
      </trkpt>
      <trkpt lat="43.24282" lon="0.08256">
        <ele>302</ele>
        <time>2020-05-22T12:08:01Z</time>
      </trkpt>
      <trkpt lat="43.24276" lon="0.08255">
        <ele>302</ele>
        <time>2020-05-22T12:08:06Z</time>
      </trkpt>
      <trkpt lat="43.24269" lon="0.08253">
        <ele>303</ele>
        <time>2020-05-22T12:08:12Z</time>
      </trkpt>
      <trkpt lat="43.24254" lon="0.08261">
        <ele>303</ele>
        <time>2020-05-22T12:08:25Z</time>
      </trkpt>
      <trkpt lat="43.24241" lon="0.0826">
        <ele>304</ele>
        <time>2020-05-22T12:08:33Z</time>
      </trkpt>
      <trkpt lat="43.24235" lon="0.08258">
        <ele>304</ele>
        <time>2020-05-22T12:08:37Z</time>
      </trkpt>
      <trkpt lat="43.24229" lon="0.08259">
        <ele>304</ele>
        <time>2020-05-22T12:08:42Z</time>
      </trkpt>
      <trkpt lat="43.24211" lon="0.08255">
        <ele>304</ele>
        <time>2020-05-22T12:08:56Z</time>
      </trkpt>
      <trkpt lat="43.24171" lon="0.08258">
        <ele>303</ele>
        <time>2020-05-22T12:09:28Z</time>
      </trkpt>
      <trkpt lat="43.24165" lon="0.08261">
        <ele>303</ele>
        <time>2020-05-22T12:09:32Z</time>
      </trkpt>
      <trkpt lat="43.24154" lon="0.08263">
        <ele>303</ele>
        <time>2020-05-22T12:09:42Z</time>
      </trkpt>
      <trkpt lat="43.24141" lon="0.08266">
        <ele>304</ele>
        <time>2020-05-22T12:09:53Z</time>
      </trkpt>
      <trkpt lat="43.24127" lon="0.08273">
        <ele>304</ele>
        <time>2020-05-22T12:10:06Z</time>
      </trkpt>
      <trkpt lat="43.24115" lon="0.0827">
        <ele>305</ele>
        <time>2020-05-22T12:10:14Z</time>
      </trkpt>
      <trkpt lat="43.24103" lon="0.08272">
        <ele>304</ele>
        <time>2020-05-22T12:10:23Z</time>
      </trkpt>
      <trkpt lat="43.24088" lon="0.08283">
        <ele>304</ele>
        <time>2020-05-22T12:10:36Z</time>
      </trkpt>
      <trkpt lat="43.24079" lon="0.08291">
        <ele>305</ele>
        <time>2020-05-22T12:10:44Z</time>
      </trkpt>
      <trkpt lat="43.24069" lon="0.08293">
        <ele>305</ele>
        <time>2020-05-22T12:10:52Z</time>
      </trkpt>
      <trkpt lat="43.24036" lon="0.08313">
        <ele>305</ele>
        <time>2020-05-22T12:11:20Z</time>
      </trkpt>
      <trkpt lat="43.24012" lon="0.08333">
        <ele>305</ele>
        <time>2020-05-22T12:11:42Z</time>
      </trkpt>
      <trkpt lat="43.24001" lon="0.08337">
        <ele>305</ele>
        <time>2020-05-22T12:11:51Z</time>
      </trkpt>
      <trkpt lat="43.23996" lon="0.08336">
        <ele>306</ele>
        <time>2020-05-22T12:11:57Z</time>
      </trkpt>
      <trkpt lat="43.2399" lon="0.08334">
        <ele>305</ele>
        <time>2020-05-22T12:12:02Z</time>
      </trkpt>
      <trkpt lat="43.23974" lon="0.08334">
        <ele>304</ele>
        <time>2020-05-22T12:12:16Z</time>
      </trkpt>
      <trkpt lat="43.23962" lon="0.08339">
        <ele>304</ele>
        <time>2020-05-22T12:12:28Z</time>
      </trkpt>
      <trkpt lat="43.23955" lon="0.08335">
        <ele>304</ele>
        <time>2020-05-22T12:12:35Z</time>
      </trkpt>
      <trkpt lat="43.23947" lon="0.08337">
        <ele>304</ele>
        <time>2020-05-22T12:12:40Z</time>
      </trkpt>
      <trkpt lat="43.23941" lon="0.08341">
        <ele>304</ele>
        <time>2020-05-22T12:12:44Z</time>
      </trkpt>
      <trkpt lat="43.23928" lon="0.08344">
        <ele>304</ele>
        <time>2020-05-22T12:12:52Z</time>
      </trkpt>
      <trkpt lat="43.23924" lon="0.08347">
        <ele>304</ele>
        <time>2020-05-22T12:12:55Z</time>
      </trkpt>
      <trkpt lat="43.23919" lon="0.0835">
        <ele>304</ele>
        <time>2020-05-22T12:12:59Z</time>
      </trkpt>
      <trkpt lat="43.23882" lon="0.08369">
        <ele>305</ele>
        <time>2020-05-22T12:13:31Z</time>
      </trkpt>
      <trkpt lat="43.23844" lon="0.08387">
        <ele>305</ele>
        <time>2020-05-22T12:14:02Z</time>
      </trkpt>
      <trkpt lat="43.23838" lon="0.08389">
        <ele>306</ele>
        <time>2020-05-22T12:14:07Z</time>
      </trkpt>
      <trkpt lat="43.23833" lon="0.08394">
        <ele>305</ele>
        <time>2020-05-22T12:14:12Z</time>
      </trkpt>
      <trkpt lat="43.23828" lon="0.084">
        <ele>306</ele>
        <time>2020-05-22T12:14:17Z</time>
      </trkpt>
      <trkpt lat="43.23787" lon="0.08424">
        <ele>306</ele>
        <time>2020-05-22T12:14:50Z</time>
      </trkpt>
      <trkpt lat="43.23752" lon="0.08447">
        <ele>307</ele>
        <time>2020-05-22T12:15:22Z</time>
      </trkpt>
      <trkpt lat="43.2374" lon="0.08453">
        <ele>307</ele>
        <time>2020-05-22T12:15:31Z</time>
      </trkpt>
      <trkpt lat="43.23725" lon="0.08465">
        <ele>307</ele>
        <time>2020-05-22T12:15:44Z</time>
      </trkpt>
      <trkpt lat="43.23714" lon="0.0847">
        <ele>307</ele>
        <time>2020-05-22T12:15:53Z</time>
      </trkpt>
      <trkpt lat="43.23704" lon="0.08477">
        <ele>307</ele>
        <time>2020-05-22T12:16:02Z</time>
      </trkpt>
      <trkpt lat="43.23699" lon="0.08478">
        <ele>307</ele>
        <time>2020-05-22T12:16:06Z</time>
      </trkpt>
      <trkpt lat="43.2369" lon="0.08484">
        <ele>307</ele>
        <time>2020-05-22T12:16:14Z</time>
      </trkpt>
      <trkpt lat="43.23674" lon="0.08505">
        <ele>308</ele>
        <time>2020-05-22T12:16:35Z</time>
      </trkpt>
      <trkpt lat="43.23673" lon="0.08516">
        <ele>310</ele>
        <time>2020-05-22T12:16:48Z</time>
      </trkpt>
      <trkpt lat="43.23669" lon="0.08522">
        <ele>310</ele>
        <time>2020-05-22T12:16:54Z</time>
      </trkpt>
      <trkpt lat="43.23659" lon="0.0853">
        <ele>310</ele>
        <time>2020-05-22T12:17:03Z</time>
      </trkpt>
      <trkpt lat="43.23628" lon="0.08566">
        <ele>310</ele>
        <time>2020-05-22T12:17:35Z</time>
      </trkpt>
      <trkpt lat="43.23606" lon="0.08594">
        <ele>310</ele>
        <time>2020-05-22T12:17:58Z</time>
      </trkpt>
      <trkpt lat="43.23591" lon="0.08615">
        <ele>310</ele>
        <time>2020-05-22T12:18:16Z</time>
      </trkpt>
      <trkpt lat="43.23584" lon="0.08621">
        <ele>310</ele>
        <time>2020-05-22T12:18:24Z</time>
      </trkpt>
      <trkpt lat="43.2358" lon="0.08617">
        <ele>310</ele>
        <time>2020-05-22T12:18:28Z</time>
      </trkpt>
      <trkpt lat="43.23552" lon="0.08582">
        <ele>310</ele>
        <time>2020-05-22T12:19:00Z</time>
      </trkpt>
      <trkpt lat="43.23541" lon="0.08566">
        <ele>310</ele>
        <time>2020-05-22T12:19:14Z</time>
      </trkpt>
      <trkpt lat="43.2353" lon="0.08558">
        <ele>310</ele>
        <time>2020-05-22T12:19:22Z</time>
      </trkpt>
      <trkpt lat="43.23514" lon="0.08551">
        <ele>310</ele>
        <time>2020-05-22T12:19:32Z</time>
      </trkpt>
      <trkpt lat="43.23509" lon="0.08546">
        <ele>310</ele>
        <time>2020-05-22T12:19:38Z</time>
      </trkpt>
      <trkpt lat="43.23505" lon="0.08538">
        <ele>310</ele>
        <time>2020-05-22T12:19:42Z</time>
      </trkpt>
      <trkpt lat="43.23503" lon="0.0852">
        <ele>311</ele>
        <time>2020-05-22T12:19:49Z</time>
      </trkpt>
      <trkpt lat="43.23504" lon="0.08505">
        <ele>311</ele>
        <time>2020-05-22T12:19:56Z</time>
      </trkpt>
      <trkpt lat="43.23501" lon="0.08498">
        <ele>311</ele>
        <time>2020-05-22T12:20:00Z</time>
      </trkpt>
      <trkpt lat="43.2349" lon="0.08478">
        <ele>311</ele>
        <time>2020-05-22T12:20:16Z</time>
      </trkpt>
      <trkpt lat="43.23484" lon="0.0846">
        <ele>311</ele>
        <time>2020-05-22T12:20:27Z</time>
      </trkpt>
      <trkpt lat="43.23479" lon="0.08456">
        <ele>311</ele>
        <time>2020-05-22T12:20:32Z</time>
      </trkpt>
      <trkpt lat="43.23475" lon="0.08445">
        <ele>312</ele>
        <time>2020-05-22T12:20:40Z</time>
      </trkpt>
      <trkpt lat="43.23471" lon="0.08438">
        <ele>311</ele>
        <time>2020-05-22T12:20:45Z</time>
      </trkpt>
      <trkpt lat="43.23463" lon="0.08437">
        <ele>311</ele>
        <time>2020-05-22T12:20:49Z</time>
      </trkpt>
      <trkpt lat="43.23457" lon="0.08433">
        <ele>311</ele>
        <time>2020-05-22T12:20:54Z</time>
      </trkpt>
      <trkpt lat="43.23445" lon="0.0842">
        <ele>311</ele>
        <time>2020-05-22T12:21:06Z</time>
      </trkpt>
      <trkpt lat="43.23441" lon="0.08414">
        <ele>312</ele>
        <time>2020-05-22T12:21:11Z</time>
      </trkpt>
      <trkpt lat="43.23434" lon="0.08391">
        <ele>311</ele>
        <time>2020-05-22T12:21:26Z</time>
      </trkpt>
      <trkpt lat="43.2343" lon="0.08385">
        <ele>311</ele>
        <time>2020-05-22T12:21:31Z</time>
      </trkpt>
      <trkpt lat="43.23426" lon="0.08379">
        <ele>311</ele>
        <time>2020-05-22T12:21:36Z</time>
      </trkpt>
      <trkpt lat="43.23424" lon="0.08371">
        <ele>311</ele>
        <time>2020-05-22T12:21:40Z</time>
      </trkpt>
      <trkpt lat="43.23422" lon="0.08362">
        <ele>311</ele>
        <time>2020-05-22T12:21:45Z</time>
      </trkpt>
      <trkpt lat="43.2342" lon="0.08352">
        <ele>312</ele>
        <time>2020-05-22T12:21:52Z</time>
      </trkpt>
      <trkpt lat="43.23416" lon="0.08342">
        <ele>312</ele>
        <time>2020-05-22T12:21:57Z</time>
      </trkpt>
      <trkpt lat="43.23413" lon="0.08312">
        <ele>312</ele>
        <time>2020-05-22T12:22:14Z</time>
      </trkpt>
      <trkpt lat="43.23416" lon="0.08283">
        <ele>312</ele>
        <time>2020-05-22T12:22:32Z</time>
      </trkpt>
      <trkpt lat="43.23413" lon="0.08275">
        <ele>312</ele>
        <time>2020-05-22T12:22:38Z</time>
      </trkpt>
      <trkpt lat="43.23417" lon="0.08257">
        <ele>312</ele>
        <time>2020-05-22T12:22:52Z</time>
      </trkpt>
      <trkpt lat="43.23418" lon="0.08246">
        <ele>312</ele>
        <time>2020-05-22T12:23:01Z</time>
      </trkpt>
      <trkpt lat="43.23417" lon="0.08236">
        <ele>312</ele>
        <time>2020-05-22T12:23:07Z</time>
      </trkpt>
      <trkpt lat="43.23411" lon="0.08224">
        <ele>312</ele>
        <time>2020-05-22T12:23:14Z</time>
      </trkpt>
      <trkpt lat="43.2341" lon="0.08216">
        <ele>311</ele>
        <time>2020-05-22T12:23:20Z</time>
      </trkpt>
      <trkpt lat="43.23405" lon="0.08213">
        <ele>311</ele>
        <time>2020-05-22T12:23:25Z</time>
      </trkpt>
      <trkpt lat="43.234" lon="0.08214">
        <ele>311</ele>
        <time>2020-05-22T12:23:29Z</time>
      </trkpt>
      <trkpt lat="43.23403" lon="0.08199">
        <ele>313</ele>
        <time>2020-05-22T12:23:49Z</time>
      </trkpt>
      <trkpt lat="43.23406" lon="0.08178">
        <ele>313</ele>
        <time>2020-05-22T12:23:56Z</time>
      </trkpt>
      <trkpt lat="43.23406" lon="0.08168">
        <ele>313</ele>
        <time>2020-05-22T12:24:00Z</time>
      </trkpt>
      <trkpt lat="43.23403" lon="0.08159">
        <ele>312</ele>
        <time>2020-05-22T12:24:07Z</time>
      </trkpt>
    </trkseg>
  </trk>
</gpx>